[[[{"header":{"parameterUnit":"kt","parameterCategory":2,"dx":1,"dy":1,"la1":29.587661999999998,"la2":31.0,"lo1":-88.76705300000003,"lo2":-86.6583820000003,"nx":115,"ny":88,"refTime":"2022-10-25T00:00:00:Z","depth":0,"parameterNumber":1,"parameterNumberName":"U-component_of_WINDS"},"data":[17.2345,17.2345,17.2063,17.1007,16.9881,17.0866,17.0796,16.9951,17.0866,17.0796,17.0233,17.1429,17.2697,17.3612,17.2556,17.2063,17.1852,17.0444,16.8895,16.7346,16.7135,16.7064,16.6994,16.6994,16.6994,16.6994,16.6994,16.6994,16.6994,16.7064,16.748,16.8375,16.8127,16.8517,16.9459,16.9327,16.8516,16.8794,16.9419,17.0018,17.0919,17.1474,17.1613,17.1682,17.1682,17.0711,16.981,16.9393,16.9185,16.9463,17.0434,17.2029,17.2099,17.1405,17.0018,16.863,16.6827,16.5509,16.4815,16.4538,16.4468,16.4468,16.4468,16.4468,16.4468,16.4468,16.4468,16.4468,16.4468,16.4468,16.4468,16.4468,16.4468,16.4147,16.3986,16.3427,16.2861,16.2599,16.2503,16.2373,16.2348,16.2739,16.3359,16.2298,15.9546,15.6948,15.5272,15.3931,15.3328,15.3194,15.3261,15.4133,15.5071,15.601,15.6881,15.8356,15.8826,15.9161,15.8483,15.5716,15.305,15.0968,14.771,14.3835,14.253,14.2229,14.1868,14.1868,14.1868,14.1868,14.1868,14.1868,14.1868,14.1868,14.1868,17.5442,17.5302,17.4034,17.2626,17.1359,17.15,17.1429,17.1289,17.15,17.1429,17.1641,17.4175,17.4527,17.4668,17.4668,17.4246,17.333,17.1781,17.0233,16.8825,16.7628,16.7276,16.7135,16.6994,16.6994,16.6994,16.6994,16.6994,16.6994,16.7346,16.7909,16.8746,16.9006,16.9192,17.0508,17.0874,17.044,17.0231,17.0485,17.1085,17.1752,17.2515,17.2931,17.3209,17.3209,17.2445,17.1474,17.0711,17.0018,17.0156,17.0434,17.196,17.2376,17.1336,16.9879,16.8561,16.6827,16.537,16.4607,16.4468,16.4468,16.4468,16.4468,16.4468,16.4468,16.4468,16.4468,16.4468,16.4468,16.4468,16.4468,16.4468,16.4468,16.4308,16.4308,16.3916,16.3427,16.3068,16.3181,16.3617,16.3725,16.4267,16.4525,16.4904,16.2634,15.9697,15.782,15.6412,15.5272,15.5004,15.5071,15.5876,15.6613,15.7418,15.8356,15.9027,15.9295,15.963,15.9459,15.637,15.3588,15.237,14.9821,14.526,14.3011,14.271,14.2409,14.2227,14.1988,14.1868,14.1868,14.1868,14.1868,14.1868,14.1868,17.6146,17.6006,17.5302,17.4175,17.3049,17.3682,17.3541,17.3049,17.3682,17.4034,17.4386,17.5302,17.5794,17.5442,17.5724,17.5161,17.3753,17.2978,17.1429,16.974,16.8402,16.7839,16.7205,16.6994,16.7064,16.6994,16.6994,16.7064,16.7135,16.7628,16.8895,17.0223,17.1113,17.159,17.1925,17.2082,17.1831,17.102,17.1344,17.2179,17.3057,17.3404,17.3821,17.3625,17.3555,17.3278,17.2445,17.1544,17.0503,16.981,17.0503,17.196,17.2307,17.1058,16.981,16.8561,16.7035,16.537,16.4746,16.4468,16.4468,16.4468,16.4468,16.4468,16.4468,16.4468,16.4468,16.4468,16.4468,16.4468,16.4468,16.4468,16.4468,16.4468,16.4308,16.4308,16.3916,16.3496,16.3549,16.4071,16.4406,16.4898,16.5694,16.5958,16.412,16.1173,15.9228,15.7753,15.7015,15.6546,15.6948,15.7552,15.7954,15.8692,15.896,15.9228,15.963,16.0166,16.0636,15.8789,15.7623,15.5264,15.2274,14.8573,14.5888,14.4395,14.3008,14.2945,14.2706,14.1988,14.1868,14.1868,14.1868,14.1868,14.1868,17.6146,17.6146,17.6146,17.5442,17.4527,17.5583,17.5372,17.4457,17.5654,17.6006,17.6076,17.6076,17.6006,17.5935,17.6076,17.5654,17.4386,17.3753,17.2274,17.1077,16.9881,16.9106,16.7839,16.7769,16.7346,16.7135,16.6994,16.6994,16.7276,16.8473,16.9951,17.1922,17.2614,17.2798,17.3149,17.3607,17.299,17.2271,17.2668,17.3575,17.3875,17.3988,17.4057,17.3724,17.3625,17.3486,17.307,17.2099,17.0711,16.981,17.0781,17.1474,17.2376,17.0919,16.974,16.8769,16.7035,16.5578,16.4746,16.4468,16.4468,16.4468,16.4468,16.4468,16.4468,16.4468,16.4468,16.4468,16.4468,16.4468,16.4468,16.4468,16.4468,16.4468,16.4468,16.4468,16.4468,16.4055,16.3867,16.4266,16.4791,16.5612,16.6493,16.6029,16.454,16.3003,16.151,16.0083,15.9663,15.926,15.998,15.9278,15.9681,15.896,15.896,15.9228,15.9764,16.0368,16.0904,16.1641,16.2056,15.8872,15.5593,15.1835,14.828,14.6193,14.4636,14.3791,14.2885,14.2167,14.1868,14.1868,14.1868,14.1868,14.1868,17.6146,17.6146,17.6146,17.5935,17.5935,17.6006,17.6006,17.5935,17.6006,17.6146,17.6146,17.6146,17.6146,17.6146,17.6146,17.5865,17.5372,17.4527,17.3541,17.3401,17.1852,17.0233,16.9177,16.8825,16.7909,16.7276,16.6994,16.6994,16.7417,16.8825,17.0937,17.3471,17.3894,17.3951,17.4162,17.4624,17.4466,17.3818,17.4149,17.4619,17.4482,17.4223,17.4057,17.3625,17.3625,17.3555,17.3209,17.2307,17.1197,17.1128,17.1058,17.0434,17.0018,16.8908,16.8838,16.7867,16.6341,16.5162,16.4607,16.4468,16.4468,16.4468,16.4468,16.4607,16.4676,16.4676,16.4538,16.4468,16.4468,16.4468,16.4468,16.4468,16.4468,16.4468,16.4468,16.4468,16.4468,16.4308,16.447,16.555,16.6392,16.7638,16.8463,16.8282,16.6889,16.6644,16.53,16.3783,16.3176,16.2888,16.2183,16.1074,16.0335,15.9327,15.9144,15.9228,15.9831,16.0502,16.1105,16.1776,16.2513,16.0788,15.8712,15.5016,15.1436,14.8623,14.5115,14.3673,14.2586,14.2047,14.1868,14.1868,14.1868,14.1868,14.1868,17.6146,17.6146,17.6146,17.6146,17.6146,17.6146,17.6146,17.6146,17.6146,17.6146,17.6146,17.6146,17.6146,17.6146,17.6146,17.6076,17.6076,17.5231,17.4598,17.4105,17.3049,17.1359,16.9881,16.8965,16.8261,16.7487,16.6994,16.6994,16.7628,16.9247,17.1429,17.3682,17.495,17.509,17.5302,17.5428,17.5342,17.5272,17.5342,17.5219,17.5039,17.4622,17.4057,17.3793,17.3625,17.3625,17.3417,17.2099,17.1336,17.1197,17.1266,17.085,17.0434,17.0711,17.0989,16.8214,16.6272,16.4954,16.4607,16.4538,16.4468,16.4468,16.4468,16.4885,16.5162,16.4815,16.4607,16.4468,16.4468,16.4468,16.4468,16.4468,16.4468,16.4468,16.4468,16.4468,16.4468,16.4468,16.5509,16.6827,16.8189,16.9519,17.0217,17.0011,16.976,16.8953,16.78,16.6508,16.5919,16.5354,16.4043,16.2348,16.0884,15.9173,15.9144,15.9094,15.9764,16.0435,16.1172,16.1977,16.2525,16.2034,16.1583,15.8601,15.4653,14.9589,14.4982,14.3612,14.2466,14.2107,14.1868,14.1868,14.1868,14.1868,14.1868,17.6146,17.6146,17.6146,17.6146,17.6146,17.6146,17.6146,17.6146,17.6146,17.6146,17.6146,17.6146,17.6146,17.6146,17.6146,17.6146,17.6146,17.5935,17.5231,17.4879,17.4457,17.2415,17.0937,16.981,16.8543,16.7628,16.6994,16.7064,16.7557,16.9247,17.1429,17.3682,17.5161,17.5794,17.6006,17.6076,17.6076,17.6006,17.6006,17.5519,17.5039,17.4318,17.3387,17.289,17.2723,17.2723,17.2584,17.1682,17.1891,17.1613,17.1544,17.1266,17.1266,17.2099,17.196,16.8977,16.6896,16.5093,16.5023,16.4746,16.5023,16.5786,16.5509,16.5994,16.5509,16.5093,16.4468,16.4468,16.4468,16.4468,16.4468,16.4468,16.4468,16.4468,16.4468,16.4468,16.4468,16.4607,16.5301,16.6688,16.8422,16.9755,17.1624,17.1598,17.1184,17.0492,16.9799,16.8926,16.7955,16.6972,16.5634,16.3114,16.1266,15.8635,15.8412,15.8473,15.9479,16.0301,16.1306,16.2178,16.2848,16.3596,16.4349,16.2641,15.9525,15.389,14.6973,14.3609,14.2287,14.2047,14.1868,14.1868,14.1868,14.1868,14.1868,17.6146,17.6146,17.6146,17.6146,17.6146,17.6146,17.6146,17.6146,17.6146,17.6146,17.6146,17.6146,17.6146,17.6146,17.6146,17.6146,17.6146,17.6146,17.5935,17.5865,17.5583,17.3541,17.2063,17.1007,16.9317,16.7839,16.6994,16.6994,16.7135,16.8895,17.0937,17.3119,17.4738,17.5724,17.6076,17.6146,17.6146,17.6146,17.6146,17.5677,17.4969,17.3899,17.3133,17.257,17.2168,17.2168,17.2029,17.1821,17.2307,17.2445,17.2168,17.1613,17.1336,17.1336,17.0364,16.9116,16.7729,16.6757,16.6341,16.5231,16.5856,16.7867,16.7312,16.5994,16.5439,16.5301,16.4815,16.4607,16.4468,16.4468,16.4468,16.4468,16.4468,16.4468,16.4468,16.4468,16.4468,16.4746,16.537,16.6896,16.863,17.0434,17.2307,17.2901,17.246,17.2012,17.146,17.0455,16.9667,16.8671,16.6506,16.4102,16.1293,15.8528,15.7487,15.7558,15.8252,15.8826,16.0166,16.1574,16.2982,16.373,16.4141,16.396,16.2973,15.9538,15.2502,14.7697,14.3911,14.2047,14.1868,14.1868,14.1868,14.1868,14.1868,17.6146,17.6146,17.6146,17.6146,17.6146,17.6146,17.6146,17.6146,17.6146,17.6146,17.6146,17.6146,17.6146,17.6146,17.6146,17.6146,17.6146,17.6146,17.6146,17.6146,17.6076,17.4105,17.2345,17.1218,16.9529,16.7769,16.6994,16.6994,16.7064,16.8473,16.981,17.1359,17.3189,17.495,17.5935,17.6146,17.6146,17.6146,17.6146,17.5677,17.506,17.4226,17.3482,17.2918,17.2584,17.2654,17.2723,17.2862,17.307,17.3278,17.3209,17.2862,17.2862,17.2654,17.2029,17.0503,16.9047,16.7798,16.7174,16.6133,16.7382,16.9671,16.7937,16.7104,16.7312,16.6064,16.5439,16.4746,16.4538,16.4468,16.4468,16.4468,16.4468,16.4468,16.4468,16.4468,16.4468,16.4538,16.5162,16.7312,16.9185,17.0989,17.2723,17.304,17.3456,17.3217,17.2977,17.2147,17.1248,16.9588,16.7525,16.4855,16.2221,15.9799,15.8325,15.7622,15.7424,15.7418,15.8759,16.0234,16.1641,16.3385,16.3921,16.4199,16.3172,16.1371,15.6476,15.1869,14.7096,14.426,14.3129,14.235,14.1868,14.1868,14.1868,17.6146,17.6146,17.6146,17.6146,17.6146,17.6146,17.6146,17.6146,17.6146,17.6146,17.6146,17.6146,17.6146,17.6146,17.6146,17.6146,17.6146,17.6146,17.6146,17.6006,17.5372,17.3612,17.1993,17.0725,16.9247,16.7557,16.6994,16.6994,16.7064,16.8543,16.9106,16.9951,17.2485,17.4457,17.5724,17.6146,17.6146,17.6146,17.6146,17.5834,17.5039,17.4388,17.3645,17.2584,17.2515,17.2515,17.2445,17.3209,17.3,17.2584,17.2584,17.2099,17.1613,17.1544,17.1474,17.1128,16.974,16.863,16.8492,16.7729,16.8561,16.8838,16.8214,16.7243,16.7729,16.6827,16.5717,16.4746,16.4468,16.4468,16.4468,16.4468,16.4468,16.4468,16.4468,16.4468,16.4468,16.4538,16.5509,16.7729,16.9116,17.0642,17.2584,17.3486,17.3456,17.3386,17.3217,17.2693,17.0476,16.8882,16.7219,16.4557,16.2064,16.034,15.898,15.815,15.7714,15.8117,15.8826,15.9496,16.0904,16.2647,16.3385,16.3854,16.336,16.2709,15.8908,15.4976,15.0166,14.648,14.4721,14.3659,14.253,14.1868,14.1868,17.6146,17.6146,17.6146,17.6146,17.6146,17.6146,17.6146,17.6146,17.6146,17.6146,17.6146,17.6146,17.6146,17.6146,17.6146,17.6146,17.6146,17.6146,17.5935,17.5513,17.4668,17.2978,17.1359,16.9951,16.8684,16.7346,16.7276,16.7417,16.7205,16.8965,16.9669,17.0585,17.2767,17.4809,17.6006,17.6146,17.6217,17.6217,17.6358,17.5958,17.534,17.4248,17.3412,17.2779,17.2307,17.2237,17.2307,17.2862,17.2515,17.1752,17.1474,17.0711,16.981,16.9671,17.0018,17.0711,16.9463,16.9532,17.0642,16.9463,16.8908,16.8838,16.7937,16.7174,16.6757,16.5786,16.4885,16.4607,16.4468,16.4468,16.4468,16.4468,16.4468,16.4468,16.4468,16.4468,16.4468,16.4538,16.6202,16.8214,16.9047,16.9948,17.2099,17.3625,17.3625,17.3625,17.3625,17.1891,16.9116,16.7243,16.5509,16.2879,16.023,15.8917,15.8873,15.8196,15.8137,15.8702,15.896,15.9228,16.0234,16.2178,16.3049,16.3318,16.3414,16.3698,16.0921,15.7804,15.5108,15.188,14.8843,14.5173,14.2948,14.2109,14.1868,17.6146,17.6146,17.6146,17.6146,17.6146,17.6146,17.6146,17.6146,17.6146,17.6146,17.6146,17.6146,17.6146,17.6146,17.6146,17.6146,17.6146,17.6006,17.5442,17.4668,17.3753,17.2204,17.0514,16.9247,16.8543,16.7557,16.7769,16.8543,16.8613,17.0092,17.1289,17.2697,17.4386,17.5442,17.6498,17.7062,17.7766,17.7766,17.7766,17.7451,17.6902,17.6088,17.5389,17.4683,17.3585,17.307,17.3139,17.2445,17.2029,17.1197,17.0295,16.9463,16.9047,16.8977,16.9185,16.8977,16.8492,16.8145,16.8769,16.8492,16.7937,16.8422,16.7451,16.7382,16.7659,16.7035,16.537,16.4746,16.4538,16.4468,16.4468,16.4676,16.4676,16.4468,16.4468,16.4468,16.4468,16.4954,16.6757,16.8492,16.9324,17.0156,17.2168,17.3625,17.3625,17.3625,17.3209,17.1474,16.8075,16.5162,16.3428,16.0843,15.8816,15.8738,15.8643,15.8332,15.8189,15.8702,15.8857,15.8942,15.9764,16.1977,16.325,16.3116,16.3463,16.4409,16.2438,15.9007,15.7687,15.6692,15.2837,14.8153,14.5969,14.2948,14.277,17.6146,17.6146,17.6146,17.6146,17.6146,17.6146,17.6146,17.6146,17.6146,17.6146,17.6146,17.6146,17.6146,17.6146,17.6146,17.6146,17.6146,17.6146,17.509,17.4105,17.3049,17.1781,17.0655,16.9599,16.9106,16.9177,16.9529,17.0092,17.0233,17.1641,17.333,17.5442,17.7202,17.7414,17.7977,17.9174,17.9174,17.8892,17.7836,17.7397,17.7062,17.6858,17.702,17.6591,17.5182,17.5359,17.4873,17.3209,17.2029,17.1058,16.981,16.8353,16.7243,16.8422,16.8561,16.8075,16.8145,16.8283,16.87,16.7243,16.6688,16.7382,16.6966,16.6688,16.8492,16.6896,16.5648,16.5578,16.5439,16.5578,16.537,16.5301,16.4954,16.4607,16.4468,16.4468,16.4746,16.5439,16.6827,16.8561,16.9601,17.0642,17.2168,17.3555,17.3625,17.3417,17.2515,17.085,16.648,16.3012,16.0861,15.8279,15.8764,15.8917,15.8668,15.856,15.8402,15.8313,15.8433,15.8655,15.8893,16.1172,16.2647,16.2714,16.2982,16.3396,16.2679,15.9984,15.8147,15.7161,15.4383,15.1115,14.7932,14.471,14.3423,17.5935,17.5935,17.5935,17.5935,17.6146,17.6146,17.6146,17.6146,17.6146,17.6146,17.6146,17.6146,17.6146,17.6146,17.6146,17.6146,17.6076,17.6006,17.495,17.3612,17.2133,17.1218,17.0585,16.9881,16.9669,17.0585,17.15,17.157,17.1993,17.3189,17.5513,17.7977,17.8188,17.8822,17.9455,18.0371,18.0582,17.9174,17.8047,17.7186,17.7081,17.688,17.702,17.68,17.7227,17.7717,17.7509,17.4457,17.2307,17.0711,16.9255,16.7659,16.6064,16.6966,16.7312,16.6966,16.7104,16.752,16.752,16.6064,16.5509,16.5786,16.6133,16.6688,16.8561,16.6272,16.5439,16.5994,16.5717,16.5994,16.6202,16.6411,16.537,16.4885,16.4468,16.4468,16.4746,16.5578,16.7104,16.87,17.0156,17.1474,17.2931,17.3486,17.3625,17.2584,17.1613,16.9463,16.5023,16.211,15.9474,15.7948,15.8711,15.9093,15.8853,15.9234,15.9525,15.9623,15.9175,15.8904,15.8624,15.9764,16.1574,16.1708,16.2044,16.2379,16.219,16.0151,15.8572,15.7402,15.5846,15.305,15.0051,14.7326,14.5173,17.4316,17.4386,17.4316,17.502,17.6076,17.6146,17.6076,17.6146,17.6146,17.6146,17.6146,17.6146,17.6146,17.6146,17.6146,17.6076,17.6006,17.4879,17.4175,17.2978,17.1359,17.0233,17.0162,16.981,16.9599,16.9669,17.2204,17.3119,17.3682,17.4598,17.5724,17.6639,17.7695,17.7766,17.8681,18.023,18.1004,17.9667,17.9244,17.9103,17.8716,17.7721,17.7254,17.6645,17.5727,17.4735,17.4457,17.2862,17.1336,16.9879,16.8561,16.7104,16.5301,16.5925,16.5994,16.5856,16.5648,16.6064,16.5648,16.5301,16.4815,16.5509,16.6272,16.752,16.8561,16.7382,16.6272,16.537,16.5439,16.5301,16.5093,16.5231,16.4954,16.4815,16.4468,16.4468,16.4746,16.6064,16.752,16.9047,17.0503,17.2029,17.2654,17.3278,17.2792,17.1682,16.981,16.759,16.4885,16.2249,15.9821,15.774,15.8572,15.9319,15.9885,16.0644,16.0782,16.0754,16.0223,15.985,15.9211,15.9898,16.0636,16.0971,16.1306,16.1507,16.144,16.0166,15.8842,15.7773,15.6494,15.433,15.2498,15.0393,14.7835,17.2204,17.2767,17.2767,17.3682,17.502,17.509,17.5442,17.6006,17.6146,17.6146,17.6146,17.6146,17.6146,17.6146,17.6146,17.6146,17.5935,17.5302,17.4527,17.333,17.2274,17.1359,17.1148,17.1148,17.1711,17.2767,17.3894,17.4598,17.495,17.5654,17.6146,17.6287,17.685,17.7414,17.7414,17.9667,17.9807,17.9385,17.9455,17.9455,17.8734,17.7743,17.7184,17.7184,17.6353,17.5844,17.529,17.3555,17.1821,17.0989,16.9532,16.8006,16.6827,16.6341,16.5994,16.5578,16.4954,16.4538,16.4468,16.4468,16.4954,16.5786,16.6827,16.8006,16.7659,16.6619,16.537,16.537,16.5439,16.5578,16.5648,16.5439,16.5162,16.4676,16.4468,16.4468,16.4885,16.6341,16.8075,16.9393,17.0781,17.1474,17.2168,17.2168,17.1474,16.974,16.7382,16.5162,16.2942,16.0931,15.9058,15.767,15.8642,15.9821,16.1101,16.1957,16.2105,16.154,16.101,16.0029,15.9644,15.9429,15.9697,16.0099,16.0301,16.0301,16.0166,15.9563,15.9094,15.8149,15.7137,15.5257,15.3384,15.1518,14.8939,16.981,17.1218,17.1218,17.2204,17.3682,17.3823,17.4668,17.6006,17.6146,17.6146,17.6146,17.6146,17.6146,17.6146,17.6146,17.6146,17.6006,17.5583,17.4879,17.4246,17.326,17.2837,17.3541,17.3682,17.3401,17.4527,17.5231,17.5865,17.5935,17.5935,17.6146,17.6287,17.7062,17.7554,17.678,17.8892,17.8962,17.7343,17.8118,17.8188,17.6975,17.6831,17.6788,17.688,17.6939,17.6917,17.6053,17.4696,17.307,17.2792,17.1682,17.0434,16.9185,16.8838,16.7937,16.6966,16.5717,16.4676,16.4538,16.4468,16.4885,16.5717,16.6688,16.6757,16.6757,16.5994,16.5578,16.6549,16.6272,16.6064,16.5925,16.6202,16.5717,16.5023,16.4815,16.5023,16.537,16.7312,16.8977,17.0364,17.0919,17.1474,17.1197,17.0711,16.9948,16.7451,16.5023,16.2665,16.0514,15.878,15.6977,15.8017,15.9058,16.1,16.2506,16.2948,16.289,16.2326,16.1118,15.9937,15.9759,15.9563,15.9496,15.9295,15.9228,15.9295,15.9429,15.9429,15.9094,15.8589,15.7773,15.6367,15.4526,15.2211,14.9874,16.8261,16.9669,16.9599,17.1218,17.3541,17.3753,17.4598,17.5935,17.6146,17.6146,17.6146,17.6146,17.6146,17.6146,17.6146,17.6076,17.6006,17.4809,17.502,17.4879,17.3541,17.2837,17.3119,17.2908,17.3049,17.4668,17.4598,17.4879,17.5865,17.6146,17.6146,17.6287,17.6287,17.6358,17.6428,17.7977,17.847,17.854,17.9455,17.9455,17.789,17.666,17.569,17.5507,17.5483,17.5337,17.5043,17.4238,17.3474,17.2404,17.1474,17.0642,16.9116,16.7867,16.7659,16.8075,16.7104,16.5786,16.4885,16.4468,16.4815,16.5648,16.6272,16.6619,16.6619,16.6341,16.5717,16.5093,16.5093,16.5231,16.5231,16.5023,16.4885,16.4676,16.5439,16.6411,16.6966,16.8353,17.0018,17.0642,17.1197,17.085,16.974,16.9047,16.8075,16.5786,16.3567,16.1139,15.9196,15.7254,15.6907,15.8156,15.9613,16.1694,16.313,16.3663,16.3785,16.3282,16.2313,16.0817,16.0297,15.963,15.9362,15.9094,15.896,15.896,15.896,15.9027,15.896,15.8775,15.8403,15.7394,15.5716,15.3588,15.1938,16.7417,16.8121,16.8121,16.9881,17.2345,17.2697,17.3964,17.5935,17.6146,17.6146,17.6146,17.6146,17.6146,17.6146,17.6146,17.6146,17.6006,17.5161,17.5372,17.5654,17.4598,17.4246,17.4668,17.4246,17.4316,17.4457,17.4175,17.4598,17.5935,17.6146,17.6146,17.6146,17.6146,17.6146,17.6358,17.6991,17.7202,17.7343,17.7906,17.7977,17.7202,17.6483,17.5747,17.527,17.5017,17.4785,17.4293,17.4388,17.397,17.2848,17.264,17.2057,17.1058,17.0018,16.9047,16.863,16.752,16.6064,16.4815,16.4468,16.5301,16.6202,16.5786,16.6341,16.7104,16.648,16.5231,16.4885,16.4815,16.5301,16.4676,16.5301,16.5093,16.5023,16.5786,16.6549,16.7382,16.9532,17.0573,17.1128,17.0919,17.0018,16.863,16.7243,16.6133,16.426,16.211,16.0098,15.8156,15.7185,15.663,15.774,15.8919,16.1208,16.3497,16.4169,16.4786,16.4444,16.3632,16.2124,16.1124,15.9882,15.9228,15.9027,15.896,15.896,15.896,15.896,15.896,15.896,15.8149,15.7328,15.6494,15.5716,15.4661,16.6994,16.6994,16.7205,16.8895,17.1359,17.1781,17.3612,17.5865,17.6146,17.6146,17.6146,17.6146,17.6146,17.6146,17.6146,17.6146,17.6146,17.5865,17.5654,17.4879,17.5724,17.5302,17.5302,17.4879,17.5231,17.5372,17.502,17.495,17.5865,17.6146,17.6146,17.6146,17.6146,17.6146,17.6146,17.6146,17.6358,17.6498,17.6569,17.6639,17.6358,17.6146,17.5834,17.5519,17.536,17.5109,17.4947,17.4947,17.4785,17.4223,17.4057,17.3821,17.3,17.2099,17.085,16.974,16.8492,16.7451,16.6064,16.5439,16.6619,16.752,16.6688,16.648,16.7104,16.6202,16.5162,16.5093,16.5925,16.6411,16.5301,16.5994,16.6064,16.5994,16.6549,16.7382,16.8075,16.9393,17.0503,17.0434,17.0018,16.9324,16.759,16.5994,16.4885,16.3289,16.1832,16.0445,15.8364,15.7254,15.6907,15.767,15.8503,16.1,16.3636,16.4721,16.6193,16.5849,16.4966,16.3455,16.1864,16.0285,15.9228,15.9027,15.896,15.896,15.896,15.896,15.896,15.9027,15.8149,15.7071,15.6687,15.6301,15.5716,16.6994,16.7064,16.8261,16.9881,17.15,17.2837,17.4386,17.6006,17.6146,17.6146,17.6146,17.6146,17.6146,17.6146,17.6146,17.6146,17.6076,17.5935,17.4527,17.326,17.4668,17.4879,17.4316,17.4175,17.4175,17.4316,17.4879,17.5442,17.5865,17.6146,17.6146,17.6146,17.6146,17.6146,17.6146,17.6146,17.6146,17.6146,17.6146,17.6146,17.6146,17.6146,17.5991,17.5677,17.5677,17.5519,17.527,17.4947,17.4785,17.4223,17.3891,17.3625,17.3555,17.3209,17.2584,17.0919,17.0434,16.9324,16.8006,16.7937,16.8145,16.863,16.7243,16.6896,16.6757,16.5925,16.537,16.5994,16.6549,16.6966,16.8006,16.7382,16.7243,16.7798,16.8214,16.9255,17.0018,16.9601,16.9532,16.9255,16.8769,16.7659,16.6064,16.5162,16.3775,16.2526,16.204,16.1,15.885,15.7532,15.767,15.8225,15.8919,16.0931,16.3497,16.5023,16.7464,16.7361,16.6412,16.4856,16.309,16.109,15.9094,15.9027,15.896,15.896,15.896,15.896,15.9027,15.9027,15.8589,15.8149,15.7517,15.7137,15.7584,16.6994,16.7135,16.8543,17.0092,17.157,17.3119,17.4668,17.5935,17.6146,17.6146,17.6146,17.6146,17.6146,17.6146,17.6146,17.6076,17.5935,17.5231,17.3612,17.2345,17.2767,17.326,17.2626,17.2556,17.2556,17.2767,17.4105,17.4809,17.5161,17.5583,17.6076,17.6146,17.6146,17.6146,17.6146,17.6146,17.6146,17.6146,17.6146,17.6146,17.6146,17.6146,17.5991,17.5991,17.592,17.592,17.5519,17.536,17.5109,17.4622,17.396,17.3625,17.3625,17.3555,17.2792,17.1544,17.1197,17.0503,16.9393,16.8977,16.9324,17.0087,16.8006,16.759,16.7382,16.6549,16.6202,16.6549,16.6827,16.6966,16.759,16.6966,16.7035,16.7659,16.7729,16.8422,16.9463,16.9393,16.8908,16.863,16.759,16.6133,16.5162,16.4815,16.3775,16.3428,16.2942,16.1902,15.9682,15.878,15.878,15.8711,15.9405,16.0792,16.3358,16.574,16.8215,16.8155,16.6767,16.4856,16.3411,16.1224,15.9094,15.896,15.896,15.896,15.896,15.896,15.896,15.9027,15.9027,15.896,15.8775,15.8149,15.8403,16.6994,16.7064,16.8543,17.0092,17.1641,17.3119,17.4668,17.6006,17.5724,17.5442,17.5442,17.5161,17.502,17.495,17.4809,17.509,17.4668,17.326,17.2485,17.1429,17.15,17.1289,17.0514,17.0937,17.0937,17.1359,17.2556,17.3471,17.4034,17.495,17.5724,17.6006,17.6146,17.6146,17.6146,17.6146,17.6146,17.6146,17.6146,17.6146,17.6146,17.6146,17.6146,17.6146,17.6076,17.6076,17.592,17.5677,17.527,17.4785,17.4127,17.3625,17.3625,17.3625,17.2862,17.1752,17.1474,17.1128,16.9879,17.0018,17.0503,17.1405,16.9601,16.8075,16.8908,16.752,16.6827,16.6827,16.7104,16.7382,16.752,16.7104,16.7104,16.7312,16.7243,16.7451,16.8422,16.8283,16.7937,16.7937,16.7104,16.5786,16.4676,16.4468,16.4399,16.433,16.3567,16.2595,16.1486,16.0376,15.989,15.9335,15.9959,16.0792,16.322,16.5486,16.7347,16.7946,16.6122,16.4224,16.3041,16.1209,15.9764,15.9295,15.9094,15.896,15.896,15.896,15.896,15.896,15.896,15.896,15.896,15.896,15.896,16.6994,16.7064,16.8543,17.0092,17.157,17.3049,17.4457,17.5513,17.4598,17.4034,17.3753,17.2626,17.2415,17.1993,17.2556,17.2063,17.2063,17.0796,17.0655,17.1077,17.0937,16.9951,16.8261,16.8965,16.9388,16.9669,17.1007,17.2274,17.3189,17.3823,17.4738,17.5654,17.6006,17.6076,17.6146,17.6146,17.6146,17.6146,17.6146,17.6076,17.5865,17.5865,17.5654,17.5654,17.5654,17.5865,17.578,17.536,17.4808,17.4947,17.4127,17.3555,17.3486,17.3555,17.2723,17.1613,17.1891,17.2099,17.1266,17.1613,17.2792,17.2376,17.1197,17.0434,16.8769,16.759,16.6757,16.6757,16.8006,16.8353,16.8353,16.752,16.752,16.8075,16.7382,16.759,16.8075,16.6549,16.5509,16.6619,16.5648,16.4815,16.4468,16.4468,16.4468,16.4399,16.4191,16.3289,16.2526,16.1694,16.1069,16.0514,16.0792,16.1208,16.3081,16.5162,16.664,16.7485,16.5305,16.3946,16.2779,16.1259,16.0151,15.9563,15.9161,15.896,15.896,15.896,15.896,15.896,15.896,15.896,15.896,15.896,15.896,16.6994,16.7064,16.8543,16.9529,17.0303,17.1781,17.2837,17.3189,17.2697,17.2415,17.2345,17.1711,17.15,17.15,17.15,17.15,17.1289,16.9881,16.9599,17.0092,16.9388,16.8332,16.7487,16.7487,16.7909,16.805,16.9388,17.0444,17.1289,17.2978,17.4034,17.4738,17.5654,17.6076,17.6006,17.6146,17.6146,17.6076,17.6076,17.5583,17.4809,17.4738,17.4386,17.3682,17.4316,17.4738,17.4795,17.4939,17.4296,17.3482,17.3404,17.3139,17.2376,17.2237,17.1544,17.0087,17.0503,17.0711,17.0156,17.0434,17.085,17.0642,16.9532,16.8422,16.7729,16.7174,16.6757,16.6827,16.8145,16.8769,16.8838,16.8422,16.8353,16.863,16.7659,16.7104,16.759,16.5856,16.5439,16.5925,16.5509,16.4468,16.4468,16.4468,16.4468,16.4468,16.4468,16.3983,16.3497,16.3081,16.2526,16.2179,16.2179,16.2179,16.3428,16.4538,16.567,16.5878,16.4473,16.4106,16.2653,16.0614,15.9846,15.9228,15.9094,15.896,15.896,15.896,15.896,15.896,15.896,15.896,15.896,15.896,15.896,16.6994,16.7064,16.8121,16.8825,16.9317,17.0303,17.1077,17.1429,17.1148,17.0866,17.0725,17.0514,17.0162,17.0303,17.0233,17.0303,16.9881,16.8965,16.8613,16.8473,16.7417,16.7205,16.7487,16.7205,16.6994,16.7135,16.8121,16.8754,16.9317,17.1289,17.2626,17.3189,17.4175,17.495,17.5372,17.495,17.509,17.5442,17.5161,17.4175,17.326,17.3189,17.2556,17.1641,17.2626,17.3119,17.333,17.3537,17.32,17.2227,17.2613,17.2307,17.0781,17.0642,16.9948,16.8769,16.87,16.8838,16.863,16.8838,16.8977,16.8769,16.8353,16.7174,16.6827,16.6757,16.6549,16.6411,16.752,16.8283,16.8353,16.863,16.8838,16.8769,16.7659,16.6966,16.7174,16.6064,16.5509,16.6411,16.5856,16.5023,16.4676,16.4468,16.4468,16.4468,16.4468,16.433,16.4052,16.3636,16.3012,16.2942,16.2942,16.3012,16.3289,16.3983,16.4468,16.4516,16.4376,16.403,16.2599,16.0901,16.012,15.9027,15.9027,15.896,15.896,15.896,15.896,15.896,15.896,15.896,15.896,15.896,15.896,16.6994,16.6994,16.7064,16.7909,16.8965,16.9247,16.9951,17.0937,16.9881,16.9247,16.8965,16.8121,16.7487,16.7346,16.7769,16.7698,16.7276,16.7276,16.7346,16.7276,16.7135,16.7487,16.8261,16.7417,16.6994,16.6994,16.7135,16.7839,16.8895,16.9599,17.0162,17.15,17.1993,17.2485,17.3471,17.2485,17.2697,17.3612,17.2626,17.1993,17.1641,17.1641,17.1429,17.1289,17.1429,17.1641,17.1489,17.1534,17.1541,17.1948,17.1736,17.0919,16.9463,16.9047,16.8492,16.7104,16.8214,16.8075,16.752,16.8214,16.8908,16.8908,16.8561,16.8283,16.6966,16.6549,16.5994,16.5093,16.6202,16.7035,16.7312,16.8006,16.8769,16.87,16.7659,16.7382,16.8353,16.7243,16.6341,16.6411,16.6619,16.6133,16.4607,16.4468,16.4468,16.4468,16.4468,16.4468,16.433,16.3913,16.3289,16.315,16.315,16.3358,16.3844,16.4399,16.4399,16.4447,16.4355,16.3841,16.29,16.1813,16.105,15.9872,15.9211,15.896,15.896,15.896,15.896,15.896,15.896,15.896,15.896,15.896,15.896,16.6994,16.6994,16.6994,16.7346,16.7769,16.7769,16.8121,16.8473,16.798,16.7839,16.7698,16.7205,16.6994,16.6994,16.6994,16.6994,16.6994,16.6994,16.6994,16.6994,16.6994,16.7205,16.7557,16.7205,16.6994,16.6994,16.6994,16.7276,16.7839,16.8684,16.9458,17.0162,17.1007,17.1781,17.2133,17.1781,17.1711,17.2133,17.1781,17.1007,17.0233,17.0021,16.9529,16.8965,16.9529,16.9801,16.9638,17.0243,17.0963,17.1577,17.1432,17.0434,16.9116,16.8838,16.7867,16.6202,16.6619,16.7451,16.7035,16.8145,16.8908,16.87,16.8075,16.7312,16.6827,16.5717,16.5231,16.4746,16.5856,16.6757,16.6827,16.7312,16.8006,16.8769,16.752,16.7104,16.7174,16.6202,16.5509,16.5509,16.5439,16.5093,16.4607,16.4468,16.4468,16.4468,16.4468,16.4468,16.433,16.3913,16.3983,16.3913,16.3705,16.3913,16.4399,16.4468,16.4468,16.4468,16.4468,16.3986,16.3427,16.2595,16.1744,16.0521,15.9327,15.9327,15.896,15.896,15.896,15.896,15.896,15.896,15.896,15.896,15.8589,16.622,16.629,16.6783,16.6994,16.6994,16.6994,16.6994,16.6994,16.6994,16.6994,16.6994,16.6994,16.6994,16.6994,16.6994,16.6994,16.6994,16.6994,16.7205,16.7557,16.7135,16.7205,16.7557,16.7205,16.6994,16.7064,16.7417,16.7628,16.7909,16.8684,16.8825,16.8684,16.9529,17.0303,17.0725,17.0796,17.0725,17.0796,17.0725,17.0303,16.9317,16.9177,16.8965,16.8543,16.9317,16.9298,16.8561,17.0072,17.1133,17.1623,17.1432,17.0503,16.9255,16.8908,16.7937,16.6272,16.6896,16.7451,16.759,16.8422,16.8908,16.87,16.759,16.6896,16.6619,16.5439,16.4538,16.4607,16.537,16.6341,16.6688,16.6757,16.6966,16.7451,16.6688,16.5994,16.5925,16.5578,16.5231,16.5162,16.5162,16.4954,16.4607,16.4468,16.4468,16.4468,16.4468,16.4468,16.4468,16.433,16.4468,16.4468,16.4468,16.4399,16.4468,16.4468,16.4468,16.4468,16.4468,16.4147,16.3591,16.293,16.2257,16.1399,16.0164,15.9509,15.9144,15.896,15.896,15.896,15.896,15.896,15.896,15.8589,15.8149,16.4671,16.4812,16.629,16.6642,16.6572,16.6712,16.6924,16.6853,16.6924,16.6994,16.6994,16.6994,16.6994,16.6994,16.6994,16.6924,16.6783,16.6924,16.7557,16.8543,16.7628,16.7839,16.8895,16.7909,16.7417,16.7276,16.8402,16.8965,16.8754,16.8825,16.8332,16.7276,16.7346,16.8121,16.9177,16.9177,16.9177,16.9177,16.9177,16.9106,16.9106,16.8965,16.9458,17.0725,17.1289,17.0481,16.8447,17.1103,17.2319,17.1571,17.1405,17.0503,16.9532,16.9116,16.8908,16.863,16.8838,16.8908,16.8908,16.9116,16.9393,16.8977,16.7729,16.6966,16.6619,16.537,16.4468,16.4468,16.4676,16.5162,16.6341,16.6688,16.6341,16.4885,16.4885,16.4746,16.4885,16.5786,16.6688,16.6411,16.6272,16.5994,16.4954,16.4468,16.4468,16.4468,16.4468,16.4468,16.4468,16.4468,16.4468,16.4468,16.4468,16.4468,16.4468,16.4468,16.4468,16.4468,16.4468,16.4468,16.3916,16.3262,16.2595,16.2257,16.105,15.9985,15.9509,15.9144,15.896,15.896,15.896,15.896,15.8775,15.8336,15.7707,16.3052,16.3122,16.3615,16.3826,16.3896,16.4952,16.5375,16.5516,16.6501,16.6994,16.6994,16.6994,16.6994,16.6994,16.6994,16.6431,16.5586,16.6501,16.7205,16.7628,16.8191,16.8684,16.9177,16.974,16.9458,16.8684,16.8965,16.8613,16.7839,16.7698,16.7417,16.6994,16.6994,16.7205,16.7557,16.7698,16.7698,16.7698,16.7698,16.7698,16.7628,16.7628,16.798,16.8754,17.1429,17.2798,17.2711,17.3619,17.3854,17.3029,17.2862,17.2654,17.2029,17.1058,17.0018,16.9185,16.9879,17.0503,17.0573,17.1544,17.1613,17.0573,16.9116,16.7729,16.6757,16.537,16.4607,16.4468,16.4468,16.4538,16.5301,16.6202,16.6133,16.4815,16.4468,16.4468,16.4468,16.5023,16.5301,16.537,16.5439,16.5093,16.4538,16.4468,16.4468,16.4468,16.4468,16.4468,16.4468,16.4468,16.4468,16.4468,16.4468,16.4468,16.4468,16.4468,16.4468,16.4468,16.4468,16.4468,16.4147,16.3591,16.293,16.2763,16.1848,16.063,15.9805,15.9327,15.9144,15.896,15.896,15.9027,15.8775,15.8149,15.6753,16.3122,16.3192,16.3685,16.3615,16.3263,16.4178,16.4319,16.3896,16.4882,16.5234,16.5304,16.5304,16.5234,16.5375,16.6431,16.6149,16.4882,16.622,16.6642,16.629,16.7698,16.8684,16.9177,17.0162,17.0303,17.0092,17.0514,17.0303,16.9458,16.8825,16.8332,16.7909,16.7769,16.7417,16.7135,16.7487,16.7487,16.7135,16.7557,16.7769,16.7909,16.7839,16.7769,16.798,17.1489,17.3695,17.4039,17.4506,17.4293,17.3625,17.3625,17.3625,17.3486,17.2654,17.1613,17.085,17.1544,17.2099,17.2237,17.307,17.3139,17.2029,17.0156,16.8492,16.7451,16.5717,16.4746,16.5162,16.5301,16.5301,16.5509,16.6133,16.6411,16.5439,16.4815,16.4885,16.5648,16.5578,16.5301,16.5301,16.5301,16.5023,16.4746,16.4468,16.4468,16.4468,16.4468,16.4468,16.4468,16.4468,16.4468,16.4468,16.4468,16.4468,16.4468,16.4468,16.4468,16.4468,16.4468,16.4468,16.4468,16.3916,16.3754,16.3427,16.2694,16.1676,16.133,16.0874,16.0052,15.9872,15.9027,15.9027,15.896,15.7773,15.6301,16.453,16.4671,16.6079,16.5586,16.453,16.453,16.3826,16.277,16.277,16.27,16.2981,16.284,16.2488,16.27,16.5516,16.6008,16.4952,16.622,16.629,16.5234,16.6572,16.7839,16.9106,16.9247,17.0021,17.1007,17.2133,17.2767,17.2697,17.1781,17.0655,16.9317,16.9247,16.8613,16.7769,16.8543,16.8402,16.7417,16.8191,16.8965,16.9036,16.9036,16.8965,16.9247,17.1604,17.2907,17.2851,17.3621,17.4057,17.3625,17.3486,17.3486,17.3625,17.3486,17.3347,17.3417,17.3555,17.3555,17.3486,17.3555,17.3486,17.3,17.0503,16.8838,16.8283,16.6202,16.537,16.6619,16.6896,16.7174,16.7174,16.7451,16.7243,16.6827,16.5648,16.6202,16.8492,16.7451,16.6966,16.6896,16.6688,16.6064,16.4885,16.4538,16.4468,16.4468,16.4468,16.4468,16.4468,16.4468,16.4468,16.4468,16.4468,16.4468,16.4468,16.4468,16.4468,16.4468,16.4468,16.4468,16.4468,16.4468,16.4468,16.4147,16.3262,16.2763,16.2763,16.2257,16.1225,16.0521,15.9872,15.9211,15.896,15.7584,15.5912,16.2911,16.2981,16.3404,16.3333,16.3052,16.4108,16.4389,16.4108,16.5164,16.5727,16.5656,16.5656,16.446,16.277,16.4389,16.5023,16.4882,16.629,16.6712,16.6572,16.7839,16.8754,16.9247,17.0303,17.0514,16.9951,17.0373,16.9951,16.8965,16.9388,17.0162,17.0796,17.0866,17.0655,17.0233,16.9388,16.8965,16.8543,16.7839,16.7557,16.7628,16.7628,16.8121,16.9177,17.0621,17.1925,17.2571,17.3552,17.4057,17.3555,17.2515,17.2376,17.3486,17.2515,17.2445,17.3417,17.3625,17.3625,17.3625,17.3625,17.3139,17.1891,17.0156,16.8492,16.752,16.6619,16.6411,16.6896,16.8769,16.9879,17.0018,17.0018,16.9463,16.8422,16.8075,16.7937,16.8838,16.863,16.8353,16.8214,16.752,16.6549,16.6133,16.5162,16.4468,16.4468,16.4468,16.4468,16.4468,16.4468,16.4468,16.4468,16.4468,16.4468,16.4468,16.4468,16.4468,16.4468,16.4468,16.4468,16.4468,16.4468,16.4468,16.4724,16.3729,16.3097,16.3262,16.2595,16.1572,16.1225,16.0698,16.0052,15.9144,15.6561,15.4925,16.4178,16.4248,16.4812,16.4741,16.4319,16.5164,16.4882,16.3826,16.4671,16.5023,16.5304,16.7769,16.7839,16.6149,16.6994,16.7064,16.6642,16.8121,16.8473,16.798,16.9388,17.0444,17.1077,17.2063,17.2345,17.1993,17.1993,17.0866,16.9388,17.0373,17.0796,17.0585,17.0514,17.0233,16.9599,16.8684,16.8261,16.8191,16.7417,16.6994,16.7064,16.7557,16.8332,16.9097,17.0047,17.1068,17.1662,17.1786,17.2014,17.1613,17.0781,17.0711,17.1682,17.1405,17.1682,17.2515,17.2654,17.2376,17.1752,17.1682,17.1266,17.0364,16.8908,16.7729,16.6827,16.6757,16.6757,16.7035,16.8908,17.0018,16.9393,16.9393,16.9324,16.8977,16.8353,16.8838,17.0503,17.0295,16.9879,16.974,16.8561,16.752,16.6757,16.5439,16.4538,16.4468,16.4468,16.4468,16.4468,16.4468,16.4468,16.4468,16.4468,16.4468,16.4468,16.4468,16.4468,16.4468,16.4468,16.4885,16.5093,16.5023,16.4746,16.537,16.4401,16.3823,16.366,16.3097,16.2595,16.2257,16.1676,16.0806,15.8826,15.6301,15.4449,16.6924,16.7205,16.8543,16.8543,16.7135,16.7346,16.5868,16.3333,16.3192,16.3052,16.3615,16.8543,17.0796,17.1077,17.0796,16.9951,16.8895,17.0373,17.0233,16.9317,17.0585,17.2063,17.326,17.3471,17.4316,17.5231,17.5302,17.3612,17.1359,17.2697,17.2063,16.9669,16.9388,16.8895,16.7628,16.7346,16.7205,16.7205,16.7135,16.7135,16.7064,16.8402,16.9106,16.9106,16.9753,17.0055,16.9897,16.9396,16.8977,16.9116,16.9116,16.8977,16.9324,17.0295,17.0989,17.1058,17.0989,17.0434,16.9116,16.8908,16.9047,16.8838,16.7659,16.6827,16.6757,16.6619,16.648,16.6549,16.7867,16.8492,16.7243,16.7174,16.7867,16.8769,16.7937,16.8561,17.1752,17.2029,17.1266,17.1266,16.9948,16.8561,16.7312,16.5856,16.4746,16.4538,16.4468,16.4468,16.4468,16.4468,16.4468,16.4468,16.4885,16.4885,16.4538,16.4538,16.4885,16.4815,16.4746,16.5439,16.6341,16.6064,16.5162,16.6202,16.5486,16.4655,16.4447,16.4468,16.4147,16.3427,16.2861,16.195,15.8741,15.578,15.4021,16.6994,16.7276,16.981,17.0092,16.8754,16.9951,16.9388,16.7769,16.8825,16.8121,16.622,16.7276,16.798,16.798,16.798,16.7839,16.7557,16.7839,16.8402,16.9106,16.9529,17.0514,17.1852,17.1993,17.2204,17.2485,17.2485,17.2204,17.157,17.1852,17.1641,17.1077,17.0937,17.0796,17.0444,16.9247,16.8613,16.8684,16.8613,16.8121,16.7064,16.8402,16.8394,16.7111,16.7987,16.8361,16.8045,16.8609,16.9463,17.0573,16.9532,16.9463,17.0573,16.9948,16.9463,16.9463,16.9463,16.9255,16.8908,16.8908,16.8908,16.8908,16.759,16.6757,16.6688,16.5717,16.4468,16.3775,16.648,16.863,16.8145,16.8214,16.8561,16.8838,16.8561,16.8838,16.9879,17.0781,17.1266,17.1197,17.0919,17.0018,16.863,16.7174,16.5717,16.4607,16.4468,16.4468,16.4468,16.4468,16.4468,16.4885,16.648,16.6966,16.4885,16.5439,16.6133,16.6272,16.6272,16.6896,16.7937,16.8214,16.7798,16.6966,16.6549,16.5925,16.4746,16.4538,16.4516,16.4424,16.3936,16.2495,15.967,15.5912,15.2901,16.6994,16.7276,16.9458,16.9951,16.9247,17.0021,16.9529,16.8261,16.9036,16.8473,16.7064,16.6994,16.7346,16.798,16.798,16.8332,16.9036,16.9036,16.9458,17.0162,17.0233,17.0725,17.1429,17.15,17.1852,17.2485,17.2556,17.2556,17.2556,17.2556,17.1852,17.0585,17.0514,17.0092,16.9458,16.9247,16.8825,16.8191,16.8121,16.7769,16.6994,16.636,16.544,16.4154,16.4545,16.466,16.4265,16.5183,16.5578,16.5023,16.4815,16.5093,16.5925,16.5231,16.537,16.6757,16.6202,16.5786,16.5786,16.5162,16.4468,16.3844,16.3012,16.204,16.0584,16.0306,16.0237,16.0237,16.2804,16.4746,16.4746,16.4746,16.5301,16.6688,16.6896,16.7451,16.87,16.974,17.0156,17.0087,16.8977,16.7867,16.6966,16.5578,16.426,16.3705,16.4121,16.4468,16.4468,16.5578,16.6549,16.6619,16.7867,16.8075,16.6966,16.7243,16.7659,16.7729,16.7729,16.8353,16.9671,16.9255,16.8977,16.8769,16.8214,16.7451,16.6757,16.648,16.6549,16.6549,16.5991,16.4686,16.2214,15.8729,15.5575,16.6853,16.6783,16.8473,16.8895,16.8543,16.8543,16.798,16.6994,16.622,16.6149,16.636,16.629,16.6994,16.8191,16.8191,16.8895,17.0162,17.0233,17.0444,17.0866,17.0866,17.1077,17.15,17.15,17.2204,17.333,17.3471,17.3471,17.3401,17.3189,17.1852,16.9529,16.9106,16.8402,16.7487,16.8754,16.8754,16.7346,16.7487,16.7487,16.7276,16.4882,16.3189,16.205,16.1887,16.1517,16.0575,16.1781,16.1139,15.8503,15.9682,16.0237,15.9821,15.9751,16.0376,16.2249,16.1069,16.0168,16.0098,15.8988,15.774,15.6769,15.6699,15.5034,15.1566,15.3231,15.5243,15.6561,15.8503,15.9474,15.9474,15.989,16.1139,16.3428,16.3844,16.4746,16.6966,16.759,16.7867,16.8145,16.6133,16.5023,16.4746,16.3567,16.2665,16.2179,16.3012,16.4191,16.4676,16.6688,16.8283,16.8838,16.9255,16.9393,16.8769,16.9047,16.9255,16.9255,16.9255,16.981,17.1336,17.0711,17.0226,17.0989,17.0018,16.9185,16.8769,16.8908,16.863,16.8561,16.7997,16.6986,16.4132,16.2353,15.9717,16.622,16.5304,16.798,16.7698,16.5445,16.5375,16.6008,16.6712,0.0,0.0,0.0,16.3122,16.3263,16.3474,16.3474,16.3615,16.3896,16.3896,16.5304,16.7769,16.7769,16.9106,17.1429,17.15,17.1641,17.1852,17.1922,17.1922,17.1852,17.0585,16.9669,16.9106,16.798,16.7839,16.8825,17.0303,17.0303,16.8895,17.0021,17.0092,16.8825,16.9458,16.7752,16.3286,16.4253,16.332,16.0114,16.2526,16.322,16.1486,16.2804,16.2457,15.9959,15.8642,15.6561,15.337,15.1705,15.0942,15.0872,15.0664,15.0872,15.1844,15.1844,14.9,14.2271,14.7751,15.1566,15.1844,15.5659,15.8017,15.8017,15.9058,16.0029,16.0514,16.0584,16.0792,16.1416,16.2457,16.3844,16.5093,16.5648,16.5856,16.4399,16.3844,16.315,16.1069,16.1555,16.2942,16.4191,16.5231,16.6619,16.8908,17.1058,17.1752,16.9948,16.9948,17.0781,17.085,17.085,17.1405,17.2654,17.3,17.2376,17.1613,17.1128,17.0364,16.9255,16.8951,16.8908,16.8908,16.7602,16.5485,16.3238,16.2776,16.0907,16.4108,0.0,16.4178,16.3615,0.0,16.1432,16.0658,15.9743,15.7419,15.6856,15.756,15.756,15.8053,15.8757,15.8757,15.9179,15.9954,16.0728,16.1925,16.3474,16.4248,16.5375,16.6853,16.7628,16.798,16.805,16.9599,17.0303,17.0303,17.0373,16.9951,16.9177,16.8402,16.7276,16.5797,16.805,16.9599,17.0303,16.9599,16.8825,16.805,16.6979,16.5136,16.2436,16.2774,0.0,0.0,0.0,0.0,0.0,0.0,0.0,0.0,0.0,0.0,14.7404,14.2895,13.9982,13.9288,13.7762,13.7554,13.9011,13.9843,13.7068,12.9324,13.549,14.1093,14.4347,14.8086,15.1211,15.2884,15.4341,15.5451,15.6214,15.6352,15.6977,15.8503,15.9405,16.0168,16.0931,16.1,16.0723,15.989,15.9821,15.9405,15.8919,16.0029,16.204,16.4954,16.6272,16.7867,17.085,17.2792,17.3,17.1682,17.2029,17.2445,17.2445,17.2445,17.2792,17.3486,17.3625,17.3417,17.2654,17.2445,17.2237,17.1405,17.0355,17.0116,17.0694,16.883,16.5483,16.1906,16.0094,15.843,16.1221,16.0869,15.9602,15.8898,15.8335,15.5378,15.2702,15.0379,15.0661,15.0942,15.1224,15.1576,15.235,15.3547,15.3547,15.4322,15.5519,15.7349,15.8335,15.8687,16.0517,16.1573,16.1925,16.3474,16.4178,16.4319,16.6642,16.7839,16.7839,16.9177,16.9106,16.7839,16.7839,16.629,16.3404,0.0,0.0,0.0,16.7691,16.7058,16.6706,16.4302,16.2604,16.1447,16.1715,0.0,16.0531,16.2197,16.1642,15.8601,15.7962,0.0,0.0,0.0,0.0,0.0,0.0,0.0,0.0,0.0,0.0,0.0,12.4791,12.2747,11.7847,12.3721,13.0397,13.6047,14.0055,14.3378,14.6086,14.7612,14.9138,15.0595,15.0803,15.1913,15.4618,15.5243,15.5728,15.6214,15.552,15.4965,15.5173,15.5451,15.6144,15.6769,15.8711,16.1694,16.5301,16.6272,16.8422,17.196,17.2376,17.2654,17.2723,17.3139,17.3347,17.3278,17.3347,17.3555,17.3625,17.3625,17.3625,17.3555,17.3417,17.307,17.3,17.118,16.9788,17.1736,16.8729,16.4693,16.0128,15.7483,15.5873,15.7419,15.6223,15.6011,15.5096,15.3195,14.4888,14.1156,14.0875,14.2213,14.3621,14.4958,14.6296,14.7,14.7211,14.7211,14.7352,14.7704,15.052,15.2562,15.404,15.6927,15.8968,16.0306,16.1855,16.2559,16.2629,16.2981,16.3192,16.3192,16.3404,16.3333,16.3192,16.3192,16.4248,16.6149,16.3746,16.1138,15.8529,16.4917,16.7592,16.5804,16.7321,16.6399,16.2818,16.5804,16.5944,16.2803,16.524,16.4909,16.0889,15.9124,15.5701,15.013,14.2818,13.5517,0.0,11.9519,0.0,0.0,0.0,0.0,0.0,0.0,0.0,0.0,11.9099,12.4811,12.8328,13.4176,13.8109,13.8456,13.9913,14.1369,14.2757,14.2965,14.3658,14.5462,14.6849,14.8653,15.1219,15.2537,15.3231,15.3162,15.5728,15.6214,15.4549,15.8017,16.1347,16.2457,16.1902,16.3567,16.8769,16.9532,16.9879,17.0018,17.1821,17.3,17.196,17.2515,17.3555,17.3417,17.3486,17.3555,17.3417,17.2376,17.1613,17.1544,16.8774,16.6835,16.6943,16.356,15.9469,15.6636,15.5871,15.5855,15.2843,15.1294,14.9605,14.7493,14.4888,14.0804,13.8974,13.9044,13.9748,14.0382,14.1156,14.179,14.1649,14.0945,14.0945,14.0499,14.007,14.4572,14.6678,14.6915,15.1588,15.411,15.4885,15.7279,15.7983,15.7208,15.8898,15.925,15.8546,15.932,16.0165,16.101,16.0868,15.9106,15.6157,15.6296,15.6924,15.8044,16.3156,16.6084,16.6909,16.7763,16.7748,16.6633,16.8045,16.7538,16.5134,16.5709,16.4335,16.0948,15.7521,15.2497,14.5464,13.6978,12.7673,0.0,0.0,0.0,0.0,0.0,0.0,0.0,0.0,0.0,0.0,0.0,11.4452,11.5069,12.5087,13.1332,13.0756,13.36,13.5057,13.4086,13.3947,13.4224,13.4655,13.6948,13.922,14.1091,14.3705,14.605,14.7601,14.9755,15.1566,15.2953,15.5161,15.7016,15.8225,16.0029,16.2595,16.6966,16.8422,16.8908,16.8908,17.0156,17.0781,17.0156,17.0573,17.0989,17.0989,17.0989,17.1058,17.0989,17.0434,16.9948,16.9714,16.6297,16.3274,16.2435,15.7029,15.1393,14.9697,15.0331,15.0668,14.7141,14.5592,13.9836,13.6076,13.4059,13.437,13.4792,13.5233,13.5616,13.5665,13.5736,13.6158,13.482,13.2239,13.177,13.1454,13.1519,13.7007,13.9739,14.0331,14.5801,14.8581,14.9136,15.2216,15.3054,15.2069,15.397,15.4251,15.3195,15.3547,15.4392,15.524,15.3981,15.0061,14.4263,14.7409,15.1952,15.7199,15.985,16.3065,16.6545,16.7296,16.7886,16.8979,16.9165,16.8748,16.7636,16.564,16.3151,16.01,15.3896,14.6996,13.9685,12.9063,0.0,0.0,0.0,0.0,0.0,0.0,0.0,0.0,0.0,8.6697,8.5431,0.0,10.2678,0.0,11.4983,12.3403,12.4439,12.6679,0.0,0.0,12.3889,12.3006,12.3057,12.5884,12.8368,12.9936,13.3779,13.7274,14.0119,14.2887,14.5796,14.8701,14.9876,15.1052,15.3359,15.7254,16.1,16.3844,16.5301,16.648,16.6966,16.7312,16.752,16.8283,16.8769,16.8908,16.8908,16.8422,16.7704,16.7236,16.6475,16.5481,16.4778,16.0969,15.7647,15.5839,14.921,14.2567,14.2245,14.3597,14.4687,13.9819,13.8622,12.515,11.9604,11.9887,12.0833,12.2552,12.4525,12.5781,12.6231,12.6372,12.778,12.5065,11.9224,11.7322,0.0,12.1363,12.566,13.0416,13.542,13.9639,14.2548,14.4284,14.7458,14.876,14.8619,14.7493,14.6859,14.6648,14.4043,14.2579,14.2325,13.7807,13.5177,13.438,13.8951,14.4623,15.1158,15.3832,15.7607,16.2942,16.618,16.7557,16.7197,16.9091,17.0037,16.9827,16.5466,16.1924,15.9239,14.7621,13.8214,13.1732,0.0,0.0,0.0,0.0,0.0,0.0,0.0,0.0,0.0,0.0,0.0,0.0,0.0,0.0,9.4601,10.4194,0.0,12.0916,11.7916,0.0,0.0,0.0,10.9316,11.0192,11.3043,11.6132,11.95,0.0,0.0,13.1107,13.6731,13.9887,13.8501,14.1769,14.5455,14.8653,15.1705,15.4757,15.8087,15.8503,15.9543,16.2179,16.2526,16.3358,16.5786,16.8075,16.8353,16.805,16.6249,16.4099,16.2221,15.8834,15.5739,15.415,15.0809,14.6664,14.1733,13.9386,13.7866,13.6836,13.851,14.0443,12.7694,11.8238,11.0541,10.7899,10.9044,11.0334,11.2761,11.5871,11.8262,11.8232,11.6775,11.715,11.3122,10.6101,10.4368,0.0,0.0,0.0,11.9923,12.563,13.1625,13.6273,13.9558,14.1679,14.2705,14.2635,14.2072,14.179,14.179,14.0523,13.2684,11.8512,0.0,0.0,11.864,12.7828,13.636,14.3936,15.1998,15.7848,16.1271,16.5153,16.7497,16.8006,16.8956,16.8631,16.6753,16.2525,15.6615,14.9157,13.7925,12.6783,0.0,0.0,0.0,0.0,0.0,0.0,0.0,0.0,0.0,0.0,0.0,7.235,7.0205,0.0,0.0,0.0,8.7319,9.4286,10.5485,10.8606,0.0,0.0,0.0,0.0,0.0,0.0,0.0,10.676,11.2949,11.9078,12.435,12.6773,12.8537,12.9519,13.452,13.9138,14.2199,0.0,14.9955,15.4202,15.4063,15.448,15.7462,15.7185,15.6977,15.8295,15.9682,16.034,15.9012,15.743,15.5505,15.3543,15.1309,14.9149,14.8476,14.103,13.4161,13.2146,13.1509,13.1491,13.1813,13.3423,13.5226,11.1478,0.0,0.0,0.0,0.0,9.8362,10.1436,10.52,10.7345,10.717,10.5264,10.4629,0.0,0.0,0.0,0.0,0.0,0.0,10.8844,11.4705,12.3332,12.9216,13.2625,13.43,13.5031,13.4961,13.3201,13.2356,13.2215,12.9144,11.7677,9.888,0.0,0.0,0.0,0.0,12.758,13.686,14.845,15.6029,15.8961,16.2753,16.5648,16.7752,16.7822,16.6364,16.3535,15.75,14.957,13.9824,12.7569,0.0,0.0,0.0,0.0,0.0,0.0,0.0,0.0,0.0,0.0,0.0,0.0,0.0,0.0,0.0,0.0,0.0,0.0,0.0,9.0786,9.8583,10.1154,0.0,0.0,0.0,0.0,0.0,0.0,0.0,0.0,0.0,11.3039,11.5754,11.8487,0.0,0.0,13.5947,13.6808,14.1917,14.6839,14.9971,14.9416,0.0,15.1705,15.1497,15.115,15.1635,15.2607,15.2561,15.0234,14.7344,14.5034,14.4006,14.2266,13.9527,13.6395,12.8004,12.2486,12.232,12.2127,12.2449,12.419,12.5416,12.677,0.0,0.0,0.0,0.0,0.0,0.0,0.0,0.0,9.1425,9.1505,0.0,8.9961,0.0,0.0,0.0,0.0,0.0,8.9812,0.0,0.0,11.4757,12.094,12.2605,12.4598,12.5598,12.5175,11.9543,11.6656,11.5709,10.5482,0.0,0.0,0.0,0.0,0.0,0.0,11.8039,12.963,14.1367,14.9918,15.5381,15.8503,16.1642,16.5101,16.5171,16.3863,16.1038,15.0265,14.0881,13.3544,11.7039,0.0,0.0,0.0,0.0,0.0,0.0,0.0,0.0,0.0,0.0,0.0,0.0,0.0,0.0,0.0,0.0,0.0,0.0,0.0,0.0,8.766,0.0,0.0,0.0,0.0,0.0,0.0,0.0,0.0,0.0,0.0,9.5593,10.396,11.1385,11.4926,0.0,0.0,0.0,0.0,14.567,14.4421,14.4144,14.4144,14.4283,14.5462,14.6849,14.8237,0.0,0.0,14.5125,13.815,13.3033,13.3818,13.1095,12.541,11.4589,11.1069,10.9932,11.1328,11.0532,11.0385,11.3016,11.3816,11.4957,0.0,0.0,0.0,0.0,0.0,0.0,0.0,0.0,0.0,7.9962,7.833,7.7703,0.0,0.0,0.0,0.0,0.0,0.0,0.0,0.0,9.9699,10.5912,11.1086,11.1973,11.2388,0.0,10.9337,10.1955,0.0,0.0,0.0,0.0,0.0,0.0,0.0,0.0,11.1897,12.3126,13.9362,15.0324,15.5243,15.9196,16.1989,16.343,16.3499,15.9739,15.2018,14.1782,13.0675,0.0,0.0,0.0,0.0,0.0,0.0,0.0,0.0,0.0,0.0,0.0,0.0,0.0,0.0,0.0,0.0,0.0,0.0,0.0,0.0,0.0,0.0,0.0,8.434,0.0,0.0,0.0,0.0,0.0,0.0,0.0,0.0,0.0,8.5395,9.5416,10.5278,11.2305,12.1634,12.9248,13.3094,0.0,0.0,0.0,0.0,0.0,0.0,0.0,13.7978,13.6455,13.5706,13.4056,13.055,12.4148,11.9408,11.9041,0.0,0.0,10.3561,10.0942,10.0221,10.0098,10.0225,10.0933,10.3149,10.4114,10.5517,0.0,0.0,0.0,0.0,0.0,0.0,0.0,0.0,0.0,6.8383,6.7128,0.0,0.0,0.0,0.0,0.0,0.0,0.0,0.0,0.0,0.0,0.0,9.8084,9.8666,0.0,0.0,0.0,0.0,0.0,0.0,0.0,0.0,0.0,0.0,0.0,0.0,10.6734,11.803,13.6047,14.789,15.2953,15.7615,16.0492,16.1354,16.1506,15.718,14.8041,0.0,0.0,0.0,0.0,0.0,0.0,0.0,0.0,0.0,0.0,0.0,0.0,0.0,0.0,0.0,0.0,0.0,0.0,0.0,0.0,0.0,0.0,0.0,0.0,0.0,7.6982,0.0,0.0,0.0,0.0,0.0,0.0,0.0,0.0,0.0,0.0,0.0,9.8137,10.6527,11.598,12.4129,13.0004,13.3363,13.6045,0.0,0.0,0.0,0.0,0.0,0.0,0.0,0.0,0.0,0.0,0.0,0.0,0.0,0.0,9.6632,9.1398,8.9558,8.875,8.853,0.0,0.0,0.0,0.0,0.0,0.0,0.0,0.0,0.0,0.0,0.0,0.0,0.0,0.0,0.0,5.7844,0.0,0.0,5.4121,0.0,0.0,0.0,0.0,0.0,0.0,0.0,0.0,0.0,0.0,0.0,0.0,0.0,0.0,0.0,0.0,0.0,0.0,0.0,0.0,0.0,0.0,10.237,11.4381,13.1011,14.241,14.8375,15.3319,15.6824,15.8592,15.9099,15.6156,14.9296,0.0,0.0,0.0,0.0,0.0,0.0,0.0,0.0,0.0,0.0,0.0,0.0,0.0,0.0,0.0,0.0,0.0,0.0,0.0,0.0,0.0,0.0,0.0,0.0,0.0,0.0,7.2433,7.8247,8.0492,0.0,0.0,0.0,0.0,0.0,0.0,0.0,0.0,0.0,0.0,11.1864,12.2231,12.3953,12.9176,13.2833,13.238,13.2713,13.3025,13.2471,13.3641,13.3339,0.0,0.0,0.0,0.0,0.0,0.0,0.0,0.0,0.0,0.0,0.0,0.0,0.0,0.0,0.0,0.0,0.0,0.0,0.0,0.0,0.0,0.0,0.0,0.0,0.0,0.0,0.0,0.0,0.0,0.0,0.0,0.0,0.0,0.0,0.0,0.0,0.0,0.0,0.0,0.0,0.0,0.0,0.0,0.0,0.0,0.0,0.0,0.0,0.0,0.0,0.0,0.0,0.0,0.0,9.8985,11.0936,12.8708,14.0667,14.678,15.2546,15.5483,15.5517,15.4611,15.0133,0.0,0.0,0.0,0.0,0.0,0.0,0.0,0.0,0.0,0.0,0.0,0.0,0.0,0.0,0.0,0.0,0.0,0.0,0.0,0.0,0.0,0.0,0.0,0.0,0.0,0.0,0.0,0.0,7.7777,7.8277,7.5061,0.0,0.0,0.0,0.0,0.0,0.0,0.0,0.0,0.0,0.0,11.8269,12.4343,12.9771,13.2177,13.0002,13.1707,13.2409,13.0147,13.1505,13.0105,12.2163,0.0,0.0,0.0,0.0,0.0,0.0,0.0,0.0,0.0,0.0,0.0,0.0,0.0,0.0,0.0,0.0,0.0,0.0,0.0,0.0,0.0,0.0,0.0,0.0,0.0,0.0,0.0,0.0,0.0,0.0,0.0,0.0,0.0,0.0,0.0,0.0,0.0,0.0,0.0,0.0,0.0,0.0,0.0,0.0,0.0,0.0,0.0,0.0,0.0,0.0,0.0,0.0,0.0,9.8037,10.9473,12.7689,13.9688,14.5112,15.0956,15.3681,15.328,15.1323,14.5936,0.0,0.0,0.0,0.0,0.0,0.0,0.0,0.0,0.0,0.0,0.0,0.0,0.0,0.0,0.0,0.0,0.0,0.0,0.0,0.0,0.0,0.0,0.0,0.0,0.0,0.0,0.0,0.0,7.212,7.4164,7.3225,0.0,0.0,0.0,0.0,0.0,0.0,0.0,0.0,0.0,0.0,11.2173,11.9727,12.4556,0.0,0.0,12.6773,12.7621,12.6258,12.8488,12.7065,11.7231,10.9945,0.0,0.0,0.0,0.0,0.0,0.0,0.0,0.0,0.0,0.0,0.0,0.0,0.0,0.0,0.0,0.0,0.0,0.0,0.0,0.0,0.0,0.0,0.0,0.0,0.0,0.0,0.0,0.0,0.0,0.0,0.0,0.0,0.0,0.0,0.0,0.0,0.0,0.0,0.0,0.0,0.0,0.0,0.0,0.0,0.0,0.0,0.0,0.0,0.0,0.0,0.0,0.0,9.8243,10.9181,12.7007,13.8714,14.3586,14.8808,15.1533,15.1602,14.8937,14.2979,0.0,0.0,0.0,0.0,0.0,0.0,0.0,0.0,0.0,0.0,0.0,0.0,0.0,0.0,0.0,0.0,0.0,0.0,0.0,0.0,0.0,0.0,0.0,0.0,0.0,0.0,0.0,0.0,0.0,0.0,0.0,0.0,0.0,0.0,0.0,0.0,0.0,0.0,0.0,0.0,0.0,10.4957,11.168,11.5571,11.8001,0.0,11.9341,12.0223,12.0627,12.4459,12.3802,11.3728,0.0,0.0,0.0,0.0,0.0,0.0,0.0,0.0,0.0,0.0,0.0,0.0,0.0,0.0,0.0,0.0,0.0,0.0,0.0,0.0,0.0,0.0,0.0,0.0,0.0,0.0,0.0,0.0,0.0,0.0,0.0,0.0,0.0,0.0,0.0,0.0,0.0,0.0,0.0,0.0,0.0,0.0,0.0,0.0,0.0,0.0,0.0,0.0,0.0,0.0,0.0,0.0,0.0,0.0,10.5833,12.3046,13.5135,14.1866,14.5588,14.8389,14.9925,14.4688,0.0,0.0,0.0,0.0,0.0,0.0,0.0,0.0,0.0,0.0,0.0,0.0,0.0,0.0,0.0,0.0,0.0,0.0,0.0,0.0,0.0,0.0,0.0,0.0,0.0,0.0,0.0,4.9072,0.0,0.0,0.0,0.0,0.0,0.0,0.0,0.0,0.0,0.0,0.0,0.0,0.0,0.0,10.5207,10.8798,11.3169,11.5143,0.0,0.0,11.5629,11.2148,11.6552,11.6626,0.0,0.0,0.0,0.0,0.0,0.0,0.0,0.0,0.0,0.0,0.0,0.0,0.0,0.0,0.0,0.0,0.0,0.0,0.0,0.0,0.0,0.0,0.0,0.0,0.0,0.0,0.0,0.0,0.0,0.0,0.0,0.0,0.0,0.0,0.0,0.0,0.0,0.0,0.0,0.0,0.0,0.0,0.0,0.0,0.0,0.0,0.0,0.0,0.0,0.0,0.0,0.0,0.0,0.0,9.2031,10.4542,12.0798,13.293,14.0178,14.4482,14.6926,14.7479,14.2104,13.6378,0.0,0.0,0.0,0.0,0.0,0.0,0.0,0.0,0.0,0.0,0.0,0.0,0.0,0.0,0.0,0.0,0.0,0.0,0.0,0.0,0.0,0.0,0.0,0.0,0.0,0.0,0.0,0.0,0.0,0.0,0.0,0.0,0.0,0.0,0.0,0.0,0.0,0.0,0.0,0.0,0.0,0.0,10.3943,10.6033,0.0,0.0,0.0,10.6252,10.3462,0.0,0.0,0.0,0.0,0.0,0.0,0.0,0.0,0.0,0.0,0.0,0.0,0.0,0.0,0.0,0.0,0.0,0.0,0.0,0.0,0.0,0.0,0.0,0.0,0.0,0.0,0.0,0.0,0.0,0.0,0.0,0.0,0.0,0.0,0.0,0.0,0.0,0.0,0.0,0.0,0.0,0.0,0.0,0.0,0.0,0.0,0.0,0.0,0.0,0.0,0.0,0.0,0.0,0.0,0.0,0.0,0.0,10.3434,11.926,13.0891,13.8244,14.3865,14.629,14.5242,14.0899,13.5512,0.0,0.0,0.0,0.0,0.0,0.0,0.0,0.0,0.0,0.0,0.0,0.0,0.0,0.0,0.0,0.0,0.0,0.0,0.0,0.0,0.0,0.0,0.0,0.0,0.0,0.0,0.0,0.0,0.0,0.0,0.0,0.0,0.0,0.0,0.0,0.0,0.0,0.0,0.0,0.0,0.0,9.2598,9.7942,9.653,9.4455,0.0,0.0,9.472,9.4768,9.6855,0.0,0.0,0.0,0.0,0.0,0.0,0.0,0.0,0.0,0.0,0.0,0.0,0.0,0.0,0.0,0.0,0.0,0.0,0.0,0.0,0.0,0.0,0.0,0.0,0.0,0.0,0.0,0.0,0.0,0.0,0.0,0.0,0.0,0.0,0.0,0.0,0.0,0.0,0.0,0.0,0.0,0.0,0.0,0.0,0.0,0.0,0.0,0.0,0.0,0.0,0.0,0.0,0.0,0.0,0.0,0.0,9.8863,11.4702,12.6814,13.4973,14.0392,14.4344,14.664,14.2306,13.6491,0.0,0.0,0.0,0.0,0.0,0.0,0.0,0.0,0.0,0.0,0.0,0.0,0.0,0.0,0.0,0.0,0.0,0.0,0.0,0.0,0.0,0.0,0.0,0.0,0.0,0.0,0.0,0.0,0.0,0.0,0.0,0.0,0.0,0.0,0.0,0.0,0.0,0.0,0.0,0.0,0.0,8.8748,9.234,9.0531,0.0,0.0,0.0,0.0,8.6647,8.7635,0.0,0.0,0.0,0.0,0.0,0.0,0.0,0.0,0.0,0.0,0.0,0.0,0.0,0.0,0.0,0.0,0.0,0.0,0.0,0.0,0.0,0.0,0.0,0.0,0.0,0.0,0.0,0.0,0.0,0.0,0.0,0.0,0.0,0.0,0.0,0.0,0.0,0.0,0.0,0.0,0.0,0.0,0.0,0.0,0.0,0.0,0.0,0.0,0.0,0.0,0.0,0.0,0.0,0.0,0.0,0.0,9.7431,11.1285,12.3195,13.3034,13.844,14.2339,14.4893,14.0689,13.4726,0.0,0.0,0.0,0.0,0.0,0.0,0.0,0.0,0.0,0.0,0.0,0.0,0.0,0.0,0.0,0.0,0.0,0.0,0.0,0.0,0.0,0.0,0.0,0.0,0.0,0.0,0.0,0.0,0.0,0.0,0.0,0.0,0.0,0.0,0.0,0.0,0.0,0.0,0.0,0.0,7.7403,8.2697,8.5643,0.0,0.0,0.0,0.0,0.0,0.0,8.0285,7.8482,0.0,0.0,0.0,0.0,0.0,0.0,0.0,0.0,0.0,0.0,0.0,0.0,0.0,0.0,0.0,0.0,0.0,0.0,0.0,0.0,0.0,0.0,0.0,0.0,0.0,0.0,0.0,0.0,0.0,0.0,0.0,0.0,0.0,0.0,0.0,0.0,0.0,0.0,0.0,0.0,0.0,0.0,0.0,0.0,0.0,0.0,0.0,0.0,0.0,0.0,0.0,0.0,0.0,0.0,0.0,9.5432,10.763,11.9407,13.055,13.6834,14.0885,14.2516,13.8564,13.1955,12.2542,0.0,0.0,0.0,0.0,0.0,0.0,0.0,0.0,0.0,0.0,0.0,0.0,0.0,0.0,0.0,0.0,0.0,0.0,0.0,0.0,0.0,0.0,0.0,0.0,0.0,0.0,0.0,0.0,0.0,0.0,0.0,0.0,0.0,0.0,0.0,0.0,0.0,0.0,0.0,7.1503,7.5855,0.0,0.0,0.0,0.0,0.0,0.0,0.0,0.0,7.1671,0.0,0.0,0.0,0.0,0.0,0.0,0.0,0.0,0.0,0.0,0.0,0.0,0.0,0.0,0.0,0.0,0.0,0.0,0.0,0.0,0.0,0.0,0.0,0.0,0.0,0.0,0.0,0.0,0.0,0.0,0.0,0.0,0.0,0.0,0.0,0.0,0.0,0.0,0.0,0.0,0.0,0.0,0.0,0.0,0.0,0.0,0.0,0.0,0.0,0.0,0.0,0.0,0.0,0.0,0.0,0.0,10.1928,11.4702,12.5288,13.5004,14.0885,14.2586,13.8493,12.9499,11.5189,0.0,0.0,0.0,0.0,0.0,0.0,0.0,0.0,0.0,0.0,0.0,0.0,0.0,0.0,0.0,0.0,0.0,0.0,0.0,0.0,0.0,0.0,0.0,0.0,0.0,0.0,0.0,0.0,0.0,0.0,0.0,0.0,0.0,0.0,0.0,0.0,0.0,0.0,5.604,6.3695,0.0,0.0,0.0,0.0,0.0,0.0,0.0,0.0,6.7189,0.0,0.0,0.0,0.0,0.0,0.0,0.0,0.0,0.0,0.0,0.0,0.0,0.0,0.0,0.0,0.0,0.0,0.0,0.0,0.0,0.0,0.0,0.0,0.0,0.0,0.0,0.0,0.0,0.0,0.0,0.0,0.0,0.0,0.0,0.0,0.0,0.0,0.0,0.0,0.0,0.0,0.0,0.0,0.0,0.0,0.0,0.0,0.0,0.0,0.0,0.0,0.0,0.0,0.0,0.0,0.0,0.0,0.0,11.1639,12.279,13.261,13.8464,13.973,13.1925,12.1701,0.0,0.0,0.0,0.0,0.0,0.0,0.0,0.0,0.0,0.0,0.0,0.0,0.0,0.0,0.0,0.0,0.0,0.0,0.0,0.0,0.0,0.0,0.0,0.0,0.0,0.0,0.0,0.0,0.0,0.0,0.0,0.0,0.0,0.0,0.0,0.0,0.0,0.0,0.0,0.0,0.0,0.0,0.0,0.0,0.0,0.0,0.0,0.0,0.0,0.0,0.0,0.0,0.0,0.0,0.0,0.0,0.0,0.0,0.0,0.0,0.0,0.0,0.0,0.0,0.0,0.0,0.0,0.0,0.0,0.0,0.0,0.0,0.0,0.0,0.0,0.0,0.0,0.0,0.0,0.0,0.0,0.0,0.0,0.0,0.0,0.0,0.0,0.0,0.0,0.0,0.0,0.0,0.0,0.0,0.0,0.0,0.0,0.0,0.0,0.0,0.0,0.0,0.0,0.0,0.0,0.0,0.0,0.0,10.7912,11.9616,12.9464,13.5421,13.6924,12.4134,11.2531,0.0,0.0,0.0,0.0,0.0,0.0,0.0,0.0,0.0,0.0,0.0,0.0,0.0,0.0,0.0,0.0,0.0,0.0,0.0,0.0,0.0,0.0,0.0,0.0,0.0,0.0,0.0,0.0,0.0,0.0,0.0,0.0,0.0,0.0,0.0,0.0,0.0,0.0,0.0,0.0,0.0,0.0,0.0,0.0,0.0,0.0,0.0,0.0,6.4007,0.0,0.0,0.0,0.0,0.0,0.0,0.0,0.0,0.0,0.0,0.0,0.0,0.0,0.0,0.0,0.0,0.0,0.0,0.0,0.0,0.0,0.0,0.0,0.0,0.0,0.0,0.0,0.0,0.0,0.0,0.0,0.0,0.0,0.0,0.0,0.0,0.0,0.0,0.0,0.0,0.0,0.0,0.0,0.0,0.0,0.0,0.0,0.0,0.0,0.0,0.0,0.0,0.0,0.0,0.0,0.0,0.0,0.0,0.0,10.1696,11.2612,12.5075,13.224,13.3306,11.7763,10.3504,0.0,0.0,0.0,0.0,0.0,0.0,0.0,0.0,0.0,0.0,0.0,0.0,0.0,0.0,0.0,0.0,0.0,0.0,0.0,0.0,0.0,0.0,0.0,0.0,0.0,0.0,0.0,0.0,0.0,0.0,0.0,0.0,0.0,0.0,0.0,0.0,0.0,0.0,0.0,0.0,0.0,0.0,0.0,0.0,0.0,0.0,0.0,0.0,0.0,0.0,0.0,0.0,0.0,0.0,0.0,0.0,0.0,0.0,0.0,0.0,0.0,0.0,0.0,0.0,0.0,0.0,0.0,0.0,0.0,0.0,0.0,0.0,0.0,0.0,0.0,0.0,0.0,0.0,0.0,0.0,0.0,0.0,0.0,0.0,0.0,0.0,0.0,0.0,0.0,0.0,0.0,0.0,0.0,0.0,0.0,0.0,0.0,0.0,0.0,0.0,0.0,0.0,0.0,0.0,0.0,0.0,0.0,0.0,9.4976,10.7706,11.8382,12.2174,11.86,10.6361,9.5168,0.0,0.0,0.0,0.0,0.0,0.0,0.0,0.0,0.0,0.0,0.0,0.0,0.0,0.0,0.0,0.0,0.0,0.0,0.0,0.0,0.0,0.0,0.0,0.0,0.0,0.0,0.0,0.0,0.0,0.0,0.0,0.0,0.0,0.0,0.0,0.0,0.0,0.0,0.0,0.0,0.0,0.0,0.0,0.0,0.0,0.0,0.0,0.0,0.0,0.0,0.0,0.0,0.0,0.0,0.0,0.0,0.0,0.0,0.0,0.0,0.0,0.0,0.0,0.0,0.0,0.0,0.0,0.0,0.0,0.0,0.0,0.0,0.0,0.0,0.0,0.0,0.0,0.0,0.0,0.0,0.0,0.0,0.0,0.0,0.0,0.0,0.0,0.0,0.0,0.0,0.0,0.0,0.0,0.0,0.0,0.0,0.0,0.0,0.0,0.0,0.0,0.0,0.0,0.0,0.0,0.0,0.0,0.0,0.0,10.1225,10.7039,10.7447,10.2264,9.4382,8.6084,0.0,0.0,0.0,0.0,0.0,0.0,0.0,0.0,0.0,0.0,0.0,0.0,0.0,0.0,0.0,0.0,0.0,0.0,0.0,0.0,0.0,0.0,0.0,0.0,0.0,0.0,0.0,0.0,0.0,0.0,0.0,0.0,0.0,0.0,0.0,0.0,0.0,0.0,0.0,0.0,0.0,0.0,0.0,0.0,0.0,0.0,0.0,0.0,0.0,0.0,0.0,0.0,0.0,0.0,0.0,0.0,0.0,0.0,0.0,0.0,0.0,0.0,0.0,0.0,0.0,0.0,0.0,0.0,0.0,0.0,0.0,0.0,0.0,0.0,0.0,0.0,0.0,0.0,0.0,0.0,0.0,0.0,0.0,0.0,0.0,0.0,0.0,0.0,0.0,0.0,0.0,0.0,0.0,0.0,0.0,0.0,0.0,0.0,0.0,0.0,0.0,0.0,0.0,0.0,0.0,0.0,0.0,0.0,0.0,9.2313,8.9156,8.7631,8.7768,8.3065,7.5376,0.0,0.0,0.0,0.0,0.0,0.0,0.0,0.0,0.0,0.0,0.0,0.0,0.0,0.0,0.0,0.0,0.0,0.0,0.0,0.0,0.0,0.0,0.0,0.0,0.0,0.0,0.0,0.0,0.0,0.0,0.0,0.0,0.0,0.0,0.0,0.0,0.0,0.0,0.0,0.0,0.0,0.0,0.0,0.0,0.0,0.0,0.0,0.0,0.0,0.0,0.0,0.0,0.0,0.0,0.0,0.0,0.0,0.0,0.0,0.0,0.0,0.0,0.0,0.0,0.0,0.0,0.0,0.0,0.0,0.0,0.0,0.0,0.0,0.0,0.0,0.0,0.0,0.0,0.0,0.0,0.0,0.0,0.0,0.0,0.0,0.0,0.0,0.0,0.0,0.0,0.0,0.0,0.0,0.0,0.0,0.0,0.0,0.0,0.0,0.0,0.0,0.0,0.0,0.0,0.0,0.0,0.0,0.0,0.0,7.8345,7.835,7.9318,8.1838,7.5415,6.8603,6.1629,0.0,0.0,0.0,0.0,0.0,0.0,0.0,0.0,0.0,0.0,0.0,0.0,0.0,0.0,0.0,0.0,0.0,0.0,0.0,0.0,0.0,0.0,0.0,0.0,0.0,0.0,0.0,0.0,0.0,0.0,0.0,0.0,0.0,0.0,0.0,0.0,0.0,0.0,0.0,0.0,0.0,0.0,0.0,0.0,0.0,0.0,0.0,0.0,0.0,0.0,0.0,0.0,0.0,0.0,0.0,0.0,0.0,0.0,0.0,0.0,0.0,0.0,0.0,0.0,0.0,0.0,0.0,0.0,0.0,0.0,0.0,0.0,0.0,0.0,0.0,0.0,0.0,0.0,0.0,0.0,0.0,0.0,0.0,0.0,0.0,0.0,0.0,0.0,0.0,0.0,0.0,0.0,0.0,0.0,0.0,0.0,0.0,0.0,0.0,0.0,0.0,0.0,0.0,0.0,0.0,0.0,0.0,0.0,6.7948,6.9482,7.1633,7.4428,6.86,6.306,0.0,0.0,0.0,0.0,0.0,0.0,0.0,0.0,0.0,0.0,0.0,0.0,0.0,0.0,0.0,0.0,0.0,0.0,0.0,0.0,0.0,0.0,0.0,0.0,0.0,0.0,0.0,0.0,0.0,0.0,0.0,0.0,0.0,0.0,0.0,0.0,0.0,0.0,0.0,0.0,0.0,0.0,0.0,0.0,0.0,0.0,0.0,0.0,0.0,0.0,0.0,0.0,0.0,0.0,0.0,0.0,0.0,0.0,0.0,0.0,0.0,0.0,0.0,0.0,0.0,0.0,0.0,0.0,0.0,0.0,0.0,0.0,0.0,0.0,0.0,0.0,0.0,0.0,0.0,0.0,0.0,0.0,0.0,0.0,0.0,0.0,0.0,0.0,0.0,0.0,0.0,0.0,0.0,0.0,0.0,0.0,0.0,0.0,0.0,0.0,0.0,0.0,0.0,0.0,0.0,0.0,0.0,0.0,5.6421,6.1464,6.2371,6.3876,6.5175,6.2512,5.8498,0.0,0.0,0.0,0.0,0.0,0.0,0.0,0.0,0.0,0.0,0.0,0.0,0.0,0.0,0.0,0.0,0.0,0.0,0.0,0.0,0.0,0.0,0.0,0.0,0.0,0.0,0.0,0.0,0.0,0.0,0.0,0.0,0.0,0.0,0.0,0.0,0.0,0.0,0.0,0.0,0.0,0.0,0.0,0.0,0.0,0.0,0.0,0.0,0.0,0.0,0.0,0.0,0.0,0.0,0.0,0.0,0.0,0.0,0.0,0.0,0.0,0.0,0.0,0.0,0.0,0.0,0.0,0.0,0.0,0.0,0.0,0.0,0.0,0.0,0.0,0.0,0.0,0.0,0.0,0.0,0.0,0.0,0.0,0.0,0.0,0.0,0.0,0.0,0.0,0.0,0.0,0.0,0.0,0.0,0.0,0.0,0.0,0.0,0.0,0.0,0.0,0.0,0.0,0.0,0.0,0.0,0.0,0.0,0.0,5.7604,0.0,6.2633,6.434,6.0754,5.7375,0.0,0.0,0.0,0.0,0.0,0.0,0.0,0.0,0.0,0.0,0.0,0.0,0.0,0.0,0.0,0.0,0.0,0.0,0.0,0.0,0.0,0.0,0.0,0.0,0.0,0.0,0.0,0.0,0.0,0.0,0.0,0.0,0.0,0.0,0.0,0.0,0.0,0.0,0.0,0.0,0.0,0.0,0.0,0.0,0.0,0.0,0.0,0.0,0.0,0.0,0.0,0.0,0.0,0.0,0.0,0.0,0.0,0.0,0.0,0.0,0.0,0.0,0.0,0.0,0.0,0.0,0.0,0.0,0.0,0.0,0.0,0.0,0.0,0.0,0.0,0.0,0.0,0.0,0.0,0.0,0.0,0.0,0.0,0.0,0.0,0.0,0.0,0.0,0.0,0.0,0.0,0.0,0.0,0.0,0.0,0.0,0.0,0.0,0.0,0.0,0.0,0.0,0.0,0.0,0.0,0.0,0.0,0.0,0.0,5.4287,5.7364,5.9857,6.1621,5.853,5.6043,0.0,0.0,0.0,0.0,0.0,0.0,0.0,0.0,0.0,0.0,0.0,0.0,0.0,0.0,0.0,0.0,0.0,0.0,0.0,0.0,0.0,0.0,0.0,0.0,0.0,0.0,0.0,0.0,0.0,0.0,0.0,0.0,0.0,0.0,0.0,0.0,0.0,0.0,0.0,0.0,0.0,0.0,0.0,0.0,0.0,0.0,0.0,0.0,0.0,0.0,0.0,0.0,0.0,0.0,0.0,0.0,0.0,0.0,0.0,0.0,0.0,0.0,0.0,0.0,0.0,0.0,0.0,0.0,0.0,0.0,0.0,0.0,0.0,0.0,0.0,0.0,0.0,0.0,0.0,0.0,0.0,0.0,0.0,0.0,0.0,0.0,0.0,0.0,0.0,0.0,0.0,0.0,0.0,0.0,0.0,0.0,0.0,0.0,0.0,0.0,0.0,0.0,0.0,0.0,0.0,0.0,0.0,0.0,0.0,5.1678,5.3527,5.5387,5.7322,5.5785,5.4382,0.0,0.0,0.0,0.0,0.0,0.0,0.0,0.0,0.0,0.0,0.0,0.0,0.0,0.0,0.0,0.0,0.0,0.0,0.0,0.0,0.0,0.0,0.0,0.0,0.0,0.0,0.0,0.0,0.0,0.0,0.0,0.0,0.0,0.0,0.0,0.0,0.0,0.0,0.0,0.0,0.0,0.0,0.0,0.0,0.0,0.0,0.0,0.0,0.0,0.0,0.0,0.0,0.0,0.0,0.0,0.0,0.0,0.0,0.0,0.0,0.0,0.0,0.0,0.0,0.0,0.0,0.0,0.0,0.0,0.0,0.0,0.0,0.0,0.0,0.0,0.0,0.0,0.0,0.0,0.0,0.0,0.0,0.0,0.0,0.0,0.0,0.0,0.0,0.0,0.0,0.0,0.0,0.0,0.0,0.0,0.0,0.0,0.0,0.0,0.0,0.0,0.0,0.0,0.0,0.0,0.0,0.0,0.0,0.0,0.0,5.351,5.4773,5.6508,5.5453,5.4523,5.4122,0.0,0.0,0.0,0.0,0.0,0.0,0.0,0.0,0.0,0.0,0.0,0.0,0.0,0.0,0.0,0.0,0.0,0.0,0.0,0.0,0.0,0.0,0.0,0.0,0.0,0.0,0.0,0.0,0.0,0.0,0.0,0.0,0.0,0.0,0.0,0.0,0.0,0.0,0.0,0.0,0.0,0.0,0.0,0.0,0.0,0.0,0.0,0.0,0.0,0.0,0.0,0.0,0.0,0.0,0.0,0.0,0.0,0.0,0.0,0.0,0.0,0.0,0.0,0.0,0.0,0.0,0.0,0.0,0.0,0.0,0.0,0.0,0.0,0.0,0.0,0.0,0.0,0.0,0.0,0.0,0.0,0.0,0.0,0.0,0.0,0.0,0.0,0.0,0.0,0.0,0.0,0.0,0.0,0.0,0.0,0.0,0.0,0.0,0.0,0.0,0.0,0.0,0.0,0.0,0.0,0.0,0.0,0.0,0.0,0.0,5.3314,5.4372,5.3794,5.3266,0.0,0.0,0.0,0.0,0.0,0.0,0.0,0.0,0.0,0.0,0.0,0.0,0.0,0.0,0.0,0.0,0.0,0.0,0.0,0.0,0.0,0.0,0.0,0.0,0.0,0.0,0.0,0.0,0.0,0.0,0.0,0.0,0.0,0.0,0.0,0.0,0.0,0.0,0.0,0.0,0.0,0.0,0.0,0.0,0.0,0.0,0.0,0.0,0.0,0.0,0.0,0.0,0.0,0.0,0.0,0.0,0.0,0.0,0.0,0.0,0.0,0.0,0.0,0.0,0.0,0.0,0.0,0.0,0.0,0.0,0.0,0.0,0.0,0.0,0.0,0.0,0.0,0.0,0.0,0.0,0.0,0.0,0.0,0.0,0.0,0.0,0.0,0.0,0.0,0.0,0.0,0.0,0.0,0.0,0.0,0.0,0.0,0.0,0.0,0.0,0.0,0.0,0.0,0.0,0.0,0.0,0.0,0.0,0.0,0.0,0.0,5.1483,5.1483,5.1621,0.0,5.0102,0.0,0.0,0.0,0.0,0.0,0.0,0.0,0.0,0.0,0.0,0.0,0.0,0.0,0.0,0.0,0.0,0.0,0.0,0.0,0.0,0.0,0.0,0.0,0.0,0.0,0.0,0.0,0.0,0.0,0.0,0.0,0.0,0.0,0.0,0.0,0.0,0.0,0.0,0.0,0.0,0.0,0.0,0.0,0.0,0.0,0.0,0.0,0.0,0.0,0.0,0.0,0.0,0.0,0.0,0.0,0.0,0.0,0.0,0.0,0.0,0.0,0.0,0.0,0.0,0.0,0.0,0.0,0.0,0.0,0.0,0.0,0.0,0.0,0.0,0.0,0.0,0.0,0.0,0.0,0.0,0.0,0.0,0.0,0.0,0.0,0.0,0.0,0.0,0.0,0.0,0.0,0.0,0.0,0.0,0.0,0.0,0.0,0.0,0.0,0.0,0.0,0.0,0.0,0.0,0.0,0.0,0.0,0.0,0.0,0.0,0.0,0.0,5.0311,4.9725,4.959,0.0,0.0,0.0,0.0,0.0,0.0,0.0,0.0,0.0,0.0,0.0,0.0,0.0,0.0,0.0,0.0,0.0,0.0,0.0,0.0,0.0,0.0,0.0,0.0,0.0,0.0,0.0,0.0,0.0,0.0,0.0,0.0,0.0,0.0,0.0,0.0,0.0,0.0,0.0,0.0,0.0,0.0,0.0,0.0,0.0,0.0,0.0,0.0,0.0,0.0,0.0,0.0,0.0,0.0,0.0,0.0,0.0,0.0,0.0,0.0,0.0,0.0,0.0,0.0,0.0,0.0,0.0,0.0,0.0,0.0,0.0,0.0,0.0,0.0,0.0,0.0,0.0,0.0,0.0,0.0,0.0,0.0,0.0,0.0,0.0,0.0,0.0,0.0,0.0,0.0,0.0,0.0,0.0,0.0,0.0,0.0,0.0,0.0,0.0,0.0,0.0,0.0,0.0,0.0,0.0,0.0,0.0,0.0,0.0,0.0,5.0935,5.1009,4.9722,4.914,4.9269,0.0,0.0,0.0,0.0,0.0,0.0,0.0,0.0,0.0,0.0,0.0,0.0,0.0,0.0,0.0,0.0,0.0,0.0,0.0,0.0,0.0,0.0,0.0,0.0,0.0,0.0,0.0,0.0,0.0,0.0,0.0,0.0,0.0,0.0,0.0,0.0,0.0,0.0,0.0,0.0,0.0,0.0,0.0,0.0,0.0,0.0,0.0,0.0,0.0,0.0,0.0,0.0,0.0,0.0,0.0,0.0,0.0,0.0,0.0,0.0,0.0,0.0,0.0,0.0,0.0,0.0,0.0,0.0,0.0,0.0,0.0,0.0,0.0,0.0,0.0,0.0,0.0,0.0,0.0,0.0,0.0,0.0,0.0,0.0,0.0,0.0,0.0,0.0,0.0,0.0,0.0,0.0,0.0,0.0,0.0,0.0,0.0,0.0,0.0,0.0,0.0,0.0,0.0,0.0,0.0,0.0,0.0,0.0,0.0,0.0,0.0,0.0,0.0,0.0,4.8621,0.0,0.0,0.0,0.0,0.0,0.0,0.0,0.0,0.0,0.0,0.0,0.0,0.0,0.0,0.0,0.0,0.0,0.0,0.0,0.0,0.0,0.0,0.0,0.0,0.0,0.0,0.0,0.0,0.0,0.0,0.0,0.0,0.0,0.0,0.0,0.0,0.0,0.0,0.0,0.0,0.0,0.0,0.0,0.0,0.0,0.0,0.0,0.0,0.0,0.0,0.0,0.0,0.0,0.0,0.0,0.0,0.0,0.0,0.0,0.0,0.0,0.0,0.0,0.0,0.0,0.0,0.0,0.0,0.0,0.0,0.0,0.0,0.0,0.0,0.0,0.0,0.0,0.0,0.0,0.0,0.0,0.0,0.0,0.0,0.0,0.0,0.0,0.0,0.0,0.0,0.0,0.0,0.0,0.0,0.0,0.0,0.0,0.0,0.0,0.0,0.0,0.0,0.0,0.0,0.0,0.0,0.0,0.0,0.0,0.0,0.0,0.0,0.0,0.0,0.0,0.0,0.0,0.0,0.0,0.0,0.0,0.0,0.0,0.0,0.0,0.0,0.0,0.0,0.0,0.0,0.0,0.0,0.0,0.0,0.0,0.0,0.0,0.0,0.0,0.0,0.0,0.0,0.0,0.0,0.0,0.0,0.0,0.0,0.0,0.0,0.0,0.0,0.0,0.0,0.0,0.0,0.0,0.0,0.0,0.0,0.0,0.0,0.0,0.0,0.0,0.0,0.0,0.0,0.0,0.0,0.0,0.0,0.0,0.0,0.0,0.0,0.0,0.0,0.0,0.0,0.0,0.0,0.0,0.0,0.0,0.0,0.0,0.0,0.0,0.0,0.0,0.0,0.0,0.0,0.0,0.0,0.0,0.0,0.0,0.0,0.0,0.0,0.0,0.0,0.0,0.0,0.0,0.0,0.0,0.0,0.0,0.0,0.0,0.0,0.0,0.0,0.0,0.0,0.0,0.0,0.0,0.0,0.0,0.0,0.0,0.0,0.0,0.0,0.0,0.0,0.0,0.0,0.0,0.0,0.0,0.0,0.0,0.0,0.0,0.0,0.0,0.0,0.0,0.0,0.0,0.0,0.0,0.0,0.0,0.0,0.0,0.0,0.0,0.0,0.0,0.0,0.0,0.0,0.0,0.0,0.0,0.0,0.0,0.0,0.0,0.0,0.0,0.0,0.0,0.0,0.0,0.0,0.0,0.0,0.0,0.0,0.0,0.0,0.0,0.0,0.0,0.0,0.0,0.0,0.0,0.0,0.0,0.0,0.0,0.0,0.0,0.0,0.0,0.0,0.0,0.0,0.0,0.0,0.0,0.0,0.0,0.0,0.0,0.0,0.0,0.0,0.0,0.0,0.0,0.0,0.0,0.0,0.0,0.0,0.0,0.0,0.0,0.0,0.0,0.0,0.0,0.0,0.0,0.0,0.0,0.0,0.0,0.0,0.0,0.0,0.0,0.0,0.0,0.0,0.0,0.0,0.0,0.0,0.0,0.0,0.0,0.0,0.0,0.0,0.0,0.0,0.0,0.0,0.0,0.0,0.0,0.0,0.0,0.0,0.0,0.0,0.0,0.0,0.0,0.0,0.0,0.0,0.0,0.0,0.0,0.0,0.0,0.0,0.0,0.0,0.0,0.0,0.0,0.0,0.0,0.0,0.0,0.0,0.0,0.0,0.0,0.0,0.0,0.0,0.0,0.0,0.0,0.0,0.0,0.0,0.0,0.0,0.0,0.0,0.0,0.0,0.0,0.0,0.0,0.0,0.0,0.0,0.0,0.0,0.0,0.0,0.0,0.0,0.0,0.0,0.0,0.0,0.0,0.0,0.0,0.0,0.0,0.0,0.0,0.0,0.0,0.0,0.0,0.0,0.0,0.0,0.0,0.0,0.0,0.0,0.0,0.0,0.0,0.0,0.0,0.0,0.0,0.0,0.0,0.0,0.0,0.0,0.0,0.0,0.0,0.0,0.0,0.0,0.0,0.0,0.0,0.0,0.0,0.0,0.0,0.0,0.0,0.0,0.0,0.0,0.0,0.0,0.0,0.0,0.0,0.0,0.0,0.0,0.0,0.0,0.0,0.0,0.0,0.0,0.0,0.0,0.0,0.0,0.0,0.0,0.0,0.0,0.0,0.0,0.0,0.0,0.0,0.0,0.0,0.0,0.0,0.0,0.0,0.0,0.0,0.0,0.0,0.0,0.0,0.0,0.0,0.0,0.0,0.0,0.0,0.0,0.0,0.0,0.0,0.0,0.0,0.0,0.0,0.0,0.0,0.0,0.0,0.0,0.0,0.0,0.0,0.0,0.0,0.0,0.0,0.0,0.0,0.0,0.0,0.0,0.0,0.0,0.0,0.0,0.0,0.0,0.0,0.0,0.0,0.0,0.0,0.0,0.0,0.0,0.0,0.0,0.0,0.0,0.0,0.0,0.0,0.0,0.0,0.0,0.0,0.0,0.0,0.0,0.0,0.0,0.0,0.0,0.0,0.0,0.0,0.0,0.0,0.0,0.0,0.0,0.0,0.0,0.0,0.0,0.0,0.0,0.0,0.0,0.0,0.0,0.0,0.0,0.0,0.0,0.0,0.0,0.0,0.0,0.0,0.0,0.0,0.0,0.0,0.0,0.0,0.0,0.0,0.0,0.0,0.0,0.0,0.0,0.0,0.0,0.0,0.0,0.0,0.0,0.0,0.0,0.0,0.0,0.0,0.0,0.0,0.0,0.0,0.0,0.0,0.0,0.0,0.0,0.0,0.0,0.0,0.0,0.0,0.0,0.0,0.0,0.0,0.0,0.0,0.0,0.0,0.0,0.0,0.0,0.0,0.0,0.0,0.0,0.0,0.0,0.0,0.0,0.0,0.0,0.0,0.0,0.0,0.0,0.0,0.0,0.0,0.0,0.0,0.0,0.0,0.0,0.0,0.0,0.0,0.0,0.0,0.0,0.0,0.0,0.0,0.0,0.0,0.0,0.0,0.0,0.0,0.0,0.0,0.0,0.0,0.0,0.0,0.0,0.0,0.0,0.0,0.0,0.0,0.0,0.0,0.0,0.0,0.0,0.0,0.0,0.0,0.0,0.0,0.0,0.0,0.0,0.0,0.0,0.0,0.0,0.0,0.0,0.0,0.0,0.0,0.0,0.0,0.0,0.0,0.0,0.0,0.0,0.0,0.0,0.0,0.0,0.0,0.0,0.0,0.0,0.0,0.0,0.0,0.0,0.0,0.0,0.0,0.0,0.0,0.0,0.0,0.0,0.0,0.0,0.0,0.0,0.0,0.0,0.0,0.0,0.0,0.0,0.0,0.0,0.0,0.0,0.0,0.0,0.0,0.0,0.0,0.0,0.0,0.0,0.0,0.0,0.0,0.0,0.0,0.0,0.0,0.0,0.0,0.0,0.0,0.0,0.0,0.0,0.0,0.0,0.0,0.0,0.0,0.0,0.0,0.0,0.0,0.0,0.0,0.0,0.0,0.0,0.0,0.0,0.0,0.0,0.0,0.0,0.0,0.0,0.0,0.0,0.0,0.0,0.0,0.0,0.0,0.0,0.0,0.0,0.0,0.0,0.0,0.0,0.0,0.0,0.0,0.0,0.0,0.0,0.0,0.0,0.0,0.0,0.0,0.0,0.0,0.0,0.0,0.0,0.0,0.0,0.0,0.0,0.0,0.0,0.0,0.0,0.0,0.0,0.0,0.0,0.0,0.0,0.0,0.0,0.0,0.0,0.0,0.0,0.0,0.0,0.0,0.0,0.0,0.0,0.0,0.0,0.0,0.0,0.0,0.0,0.0,0.0,0.0,0.0,0.0,0.0,0.0,0.0,0.0,0.0,0.0,0.0,0.0,0.0,0.0,0.0,0.0,0.0,0.0,0.0,0.0,0.0,0.0,0.0,0.0,0.0,0.0,0.0,0.0,0.0,0.0,0.0,0.0,0.0,0.0,0.0,0.0,0.0,0.0,0.0,0.0,0.0,0.0,0.0,0.0,0.0,0.0,0.0,0.0,0.0,0.0,0.0,0.0,0.0,0.0,0.0,0.0,0.0,0.0,0.0,0.0,0.0,0.0,0.0,0.0,0.0,0.0,0.0,0.0,0.0,0.0,0.0,0.0,0.0,0.0,0.0,0.0,0.0,0.0,0.0,0.0,0.0,0.0,0.0,0.0,0.0,0.0,0.0,0.0,0.0,0.0,0.0,0.0,0.0,0.0,0.0,0.0,0.0,0.0,0.0,0.0,0.0,0.0,0.0,0.0,0.0,0.0,0.0,0.0,0.0,0.0,0.0,0.0,0.0,0.0,0.0,0.0,0.0,0.0,0.0,0.0,0.0,0.0,0.0,0.0,0.0,0.0,0.0,0.0,0.0,0.0,0.0]}],[{"header":{"parameterUnit":"kt","parameterCategory":2,"dx":1,"dy":1,"la1":29.587661999999998,"la2":31.0,"lo1":-88.76705300000003,"lo2":-86.6583820000003,"nx":115,"ny":88,"refTime":"2022-10-25T00:00:00:Z","depth":0,"parameterNumber":2,"parameterNumberName":"V-component_of_WINDS"},"data":[-6.9632,-6.9632,-6.9518,-6.9091,-6.8636,-6.9034,-6.9006,-6.8665,-6.9034,-6.9006,-6.8778,-6.9262,-6.9774,-7.0144,-6.9717,-6.9518,-6.9433,-6.8864,-6.8238,-6.7612,-6.7527,-6.7498,-6.747,-6.747,-6.747,-6.747,-6.747,-6.747,-6.747,-6.7498,-6.8092,-6.9313,-7.0502,-7.1531,-7.2805,-7.4065,-7.4588,-7.4711,-7.4988,-7.5697,-7.6098,-7.6345,-7.6407,-7.6438,-7.6438,-7.6006,-7.5604,-7.5419,-7.5326,-7.545,-7.5882,-7.6592,-7.6623,-7.6314,-7.5697,-7.5079,-7.4276,-7.3689,-7.338,-7.3257,-7.3226,-7.3226,-7.3226,-7.3226,-7.3226,-7.3226,-7.3226,-7.3226,-7.3226,-7.3226,-7.3226,-7.3226,-7.3226,-7.3943,-7.4301,-7.5341,-7.6377,-7.8866,-8.1464,-8.2733,-8.3614,-8.5168,-8.5947,-8.5842,-8.4386,-8.3451,-8.256,-8.1847,-8.1526,-8.1455,-8.149,-8.1954,-8.2453,-8.2952,-8.3415,-8.42,-8.4449,-8.4627,-8.6049,-8.9903,-9.3789,-9.7106,-10.1993,-10.7896,-10.9862,-11.0623,-11.0839,-11.0839,-11.0839,-11.0839,-11.0839,-11.0839,-11.0839,-11.0839,-11.0839,-7.0883,-7.0826,-7.0314,-6.9746,-6.9234,-6.929,-6.9262,-6.9205,-6.929,-6.9262,-6.9347,-7.0371,-7.0514,-7.057,-7.057,-7.04,-7.003,-6.9404,-6.8778,-6.821,-6.7726,-6.7584,-6.7527,-6.747,-6.747,-6.747,-6.747,-6.747,-6.747,-6.7612,-6.784,-6.8606,-6.9573,-7.0514,-7.15,-7.2972,-7.4552,-7.4461,-7.5015,-7.5725,-7.6469,-7.6809,-7.6994,-7.7117,-7.7117,-7.6778,-7.6345,-7.6006,-7.5697,-7.5759,-7.5882,-7.6561,-7.6747,-7.6284,-7.5635,-7.5048,-7.4276,-7.3628,-7.3288,-7.3226,-7.3226,-7.3226,-7.3226,-7.3226,-7.3226,-7.3226,-7.3226,-7.3226,-7.3226,-7.3226,-7.3226,-7.3226,-7.3226,-7.3585,-7.3585,-7.427,-7.5341,-7.6473,-7.8709,-8.0244,-8.2077,-8.3698,-8.519,-8.676,-8.6019,-8.4913,-8.3914,-8.3166,-8.256,-8.2417,-8.2453,-8.2881,-8.3273,-8.37,-8.42,-8.4556,-8.4699,-8.4877,-8.568,-8.9373,-9.3199,-9.6603,-10.1055,-10.6997,-10.9736,-11.0498,-11.0763,-11.112,-11.0933,-11.0839,-11.0839,-11.0839,-11.0839,-11.0839,-11.0839,-7.1168,-7.1111,-7.0826,-7.0371,-6.9916,-7.0172,-7.0115,-6.9916,-7.0172,-7.0314,-7.0457,-7.0826,-7.1026,-7.0883,-7.0997,-7.077,-7.0201,-6.9888,-6.9262,-6.8579,-6.8039,-6.7811,-6.7555,-6.747,-6.7498,-6.747,-6.747,-6.7498,-6.7527,-6.7726,-6.8238,-6.9207,-7.044,-7.1075,-7.1654,-7.3044,-7.3824,-7.4362,-7.4948,-7.5313,-7.6147,-7.63,-7.6483,-7.7303,-7.7272,-7.7148,-7.6778,-7.6376,-7.5913,-7.5604,-7.5913,-7.6561,-7.6716,-7.616,-7.5604,-7.5048,-7.4369,-7.3628,-7.335,-7.3226,-7.3226,-7.3226,-7.3226,-7.3226,-7.3226,-7.3226,-7.3226,-7.3226,-7.3226,-7.3226,-7.3226,-7.3226,-7.3226,-7.3226,-7.3585,-7.3585,-7.427,-7.5373,-7.6699,-7.8258,-8.0186,-8.1766,-8.3064,-8.456,-8.4981,-8.3901,-8.4663,-8.3879,-8.3487,-8.3237,-8.3451,-8.3772,-8.3986,-8.4378,-8.452,-8.4663,-8.4877,-8.5162,-8.5412,-8.8018,-9.0089,-9.4681,-9.9835,-10.5001,-10.8445,-10.98,-11.1229,-11.1681,-11.1494,-11.0933,-11.0839,-11.0839,-11.0839,-11.0839,-11.0839,-7.1168,-7.1168,-7.1168,-7.0883,-7.0514,-7.094,-7.0855,-7.0485,-7.0969,-7.1111,-7.1139,-7.1139,-7.1111,-7.1082,-7.1139,-7.0969,-7.0457,-7.0201,-6.9603,-6.912,-6.8636,-6.8323,-6.7811,-6.7783,-6.7612,-6.7527,-6.747,-6.747,-6.7584,-6.8067,-6.8665,-6.9461,-7.0179,-7.1134,-7.1279,-7.2355,-7.343,-7.3569,-7.4184,-7.4574,-7.5603,-7.6104,-7.6134,-7.6893,-7.7303,-7.7241,-7.7056,-7.6623,-7.6006,-7.5604,-7.6036,-7.6345,-7.6747,-7.6098,-7.5573,-7.5141,-7.4369,-7.372,-7.335,-7.3226,-7.3226,-7.3226,-7.3226,-7.3226,-7.3226,-7.3226,-7.3226,-7.3226,-7.3226,-7.3226,-7.3226,-7.3226,-7.3226,-7.3226,-7.3226,-7.3226,-7.3226,-7.4332,-7.5111,-7.6599,-7.816,-7.9437,-8.0755,-8.1877,-8.2485,-8.3502,-8.4077,-8.467,-8.4003,-8.3791,-8.3725,-8.4244,-8.4457,-8.452,-8.452,-8.4663,-8.4948,-8.5269,-8.5554,-8.5946,-8.6621,-9.1725,-9.6754,-10.2414,-10.7238,-10.8672,-10.9984,-11.1335,-11.1634,-11.1073,-11.0839,-11.0839,-11.0839,-11.0839,-11.0839,-7.1168,-7.1168,-7.1168,-7.1082,-7.1082,-7.1111,-7.1111,-7.1082,-7.1111,-7.1168,-7.1168,-7.1168,-7.1168,-7.1168,-7.1168,-7.1054,-7.0855,-7.0514,-7.0115,-7.0058,-6.9433,-6.8778,-6.8352,-6.821,-6.784,-6.7584,-6.747,-6.747,-6.7641,-6.821,-6.9063,-7.0087,-7.0258,-7.0723,-7.0808,-7.1886,-7.2266,-7.2442,-7.3027,-7.3672,-7.4963,-7.5754,-7.6134,-7.7303,-7.7303,-7.7272,-7.7117,-7.6716,-7.6222,-7.6191,-7.616,-7.5882,-7.5697,-7.5203,-7.5172,-7.4739,-7.406,-7.3535,-7.3288,-7.3226,-7.3226,-7.3226,-7.3226,-7.3288,-7.3319,-7.3319,-7.3257,-7.3226,-7.3226,-7.3226,-7.3226,-7.3226,-7.3226,-7.3226,-7.3226,-7.3226,-7.3226,-7.3585,-7.452,-7.5446,-7.6708,-7.8171,-7.9452,-8.0717,-8.1849,-8.354,-8.468,-8.4806,-8.4492,-8.3893,-8.4427,-8.4745,-8.4356,-8.3826,-8.4173,-8.4663,-8.4984,-8.534,-8.5661,-8.6018,-8.641,-9.0046,-9.3955,-9.9232,-10.4079,-10.6502,-10.9352,-11.0743,-11.14,-11.098,-11.0839,-11.0839,-11.0839,-11.0839,-11.0839,-7.1168,-7.1168,-7.1168,-7.1168,-7.1168,-7.1168,-7.1168,-7.1168,-7.1168,-7.1168,-7.1168,-7.1168,-7.1168,-7.1168,-7.1168,-7.1139,-7.1139,-7.0798,-7.0542,-7.0343,-6.9916,-6.9234,-6.8636,-6.8266,-6.7982,-6.7669,-6.747,-6.747,-6.7726,-6.838,-6.9262,-7.0172,-7.0684,-7.0741,-7.0826,-7.1323,-7.1734,-7.1706,-7.1734,-7.3027,-7.3849,-7.5023,-7.6134,-7.6924,-7.7303,-7.7303,-7.721,-7.6623,-7.6284,-7.6222,-7.6253,-7.6067,-7.5882,-7.6006,-7.6129,-7.4894,-7.4029,-7.3442,-7.3288,-7.3257,-7.3226,-7.3226,-7.3226,-7.3411,-7.3535,-7.338,-7.3288,-7.3226,-7.3226,-7.3226,-7.3226,-7.3226,-7.3226,-7.3226,-7.3226,-7.3226,-7.3226,-7.3226,-7.3689,-7.4276,-7.5323,-7.6808,-7.8021,-7.9729,-8.0971,-8.1948,-8.275,-8.3472,-8.363,-8.2893,-8.3134,-8.3614,-8.3305,-8.3302,-8.4173,-8.4592,-8.4948,-8.5305,-8.5697,-8.6125,-8.6871,-8.8895,-9.1419,-9.5769,-10.0913,-10.4743,-10.8263,-10.97,-11.1307,-11.1026,-11.0839,-11.0839,-11.0839,-11.0839,-11.0839,-7.1168,-7.1168,-7.1168,-7.1168,-7.1168,-7.1168,-7.1168,-7.1168,-7.1168,-7.1168,-7.1168,-7.1168,-7.1168,-7.1168,-7.1168,-7.1168,-7.1168,-7.1082,-7.0798,-7.0656,-7.0485,-6.966,-6.9063,-6.8608,-6.8096,-6.7726,-6.747,-6.7498,-6.7698,-6.838,-6.9262,-7.0172,-7.077,-7.1026,-7.1111,-7.1139,-7.1139,-7.1111,-7.1111,-7.2702,-7.3849,-7.3994,-7.5391,-7.6524,-7.6901,-7.6901,-7.6839,-7.6438,-7.6531,-7.6407,-7.6376,-7.6253,-7.6253,-7.6623,-7.6561,-7.5233,-7.4307,-7.3504,-7.3473,-7.335,-7.3473,-7.3813,-7.3689,-7.3905,-7.3689,-7.3504,-7.3226,-7.3226,-7.3226,-7.3226,-7.3226,-7.3226,-7.3226,-7.3226,-7.3226,-7.3226,-7.3226,-7.3288,-7.3597,-7.4214,-7.4986,-7.6469,-7.7311,-7.8654,-7.937,-7.9955,-8.0536,-8.148,-8.1917,-8.0987,-8.0785,-8.1771,-8.1726,-8.1702,-8.2464,-8.3818,-8.4351,-8.5233,-8.5768,-8.6231,-8.6588,-8.7444,-8.8771,-9.2018,-9.5852,-10.0415,-10.5805,-10.9203,-11.1167,-11.098,-11.0839,-11.0839,-11.0839,-11.0839,-11.0839,-7.1168,-7.1168,-7.1168,-7.1168,-7.1168,-7.1168,-7.1168,-7.1168,-7.1168,-7.1168,-7.1168,-7.1168,-7.1168,-7.1168,-7.1168,-7.1168,-7.1168,-7.1168,-7.1082,-7.1054,-7.094,-7.0115,-6.9518,-6.9091,-6.8409,-6.7811,-6.747,-6.747,-6.7527,-6.8238,-6.9063,-6.9945,-7.0599,-7.0997,-7.1139,-7.1168,-7.1168,-7.1168,-7.1168,-7.2319,-7.382,-7.3816,-7.4832,-7.5933,-7.6654,-7.6654,-7.6592,-7.65,-7.6716,-7.6778,-7.6654,-7.6407,-7.6284,-7.6284,-7.5851,-7.5295,-7.4678,-7.4245,-7.406,-7.3566,-7.3844,-7.4739,-7.4492,-7.3905,-7.3658,-7.3597,-7.338,-7.3288,-7.3226,-7.3226,-7.3226,-7.3226,-7.3226,-7.3226,-7.3226,-7.3226,-7.3226,-7.335,-7.3628,-7.4307,-7.5079,-7.5882,-7.6716,-7.7433,-7.8594,-7.8844,-7.9498,-8.0392,-7.9568,-7.8652,-7.8974,-7.9595,-7.9979,-7.9905,-8.1111,-8.2457,-8.326,-8.4449,-8.5162,-8.5911,-8.6659,-8.7516,-8.8196,-8.9487,-9.1737,-9.5387,-10.1418,-10.5838,-10.9432,-11.098,-11.0839,-11.0839,-11.0839,-11.0839,-11.0839,-7.1168,-7.1168,-7.1168,-7.1168,-7.1168,-7.1168,-7.1168,-7.1168,-7.1168,-7.1168,-7.1168,-7.1168,-7.1168,-7.1168,-7.1168,-7.1168,-7.1168,-7.1168,-7.1168,-7.1168,-7.1139,-7.0343,-6.9632,-6.9177,-6.8494,-6.7783,-6.747,-6.747,-6.7498,-6.8067,-6.8608,-6.9234,-6.9973,-7.0684,-7.1082,-7.1168,-7.1168,-7.1168,-7.1168,-7.2319,-7.3409,-7.4404,-7.4982,-7.6086,-7.6839,-7.687,-7.6901,-7.6963,-7.7056,-7.7148,-7.7117,-7.6963,-7.6963,-7.687,-7.6592,-7.5913,-7.5264,-7.4708,-7.443,-7.3967,-7.4523,-7.5542,-7.477,-7.44,-7.4492,-7.3936,-7.3658,-7.335,-7.3257,-7.3226,-7.3226,-7.3226,-7.3226,-7.3226,-7.3226,-7.3226,-7.3226,-7.3257,-7.3535,-7.4492,-7.5326,-7.6129,-7.6901,-7.7495,-7.7681,-7.8028,-7.8375,-7.7999,-7.7591,-7.6839,-7.6787,-7.7312,-7.7375,-7.8371,-7.9802,-8.1181,-8.2387,-8.37,-8.4413,-8.5198,-8.5946,-8.6873,-8.7158,-8.7766,-9.0448,-9.3168,-9.7777,-10.1956,-10.5894,-10.8215,-10.9331,-11.0219,-11.0839,-11.0839,-11.0839,-7.1168,-7.1168,-7.1168,-7.1168,-7.1168,-7.1168,-7.1168,-7.1168,-7.1168,-7.1168,-7.1168,-7.1168,-7.1168,-7.1168,-7.1168,-7.1168,-7.1168,-7.1168,-7.1168,-7.1111,-7.0855,-7.0144,-6.949,-6.8978,-6.838,-6.7698,-6.747,-6.747,-6.7498,-6.8096,-6.8323,-6.8665,-6.9689,-7.0485,-7.0997,-7.1168,-7.1168,-7.1168,-7.1168,-7.1936,-7.3849,-7.4023,-7.4604,-7.6839,-7.6809,-7.6809,-7.6778,-7.7117,-7.7025,-7.6839,-7.6839,-7.6623,-7.6407,-7.6376,-7.6345,-7.6191,-7.5573,-7.5079,-7.5017,-7.4678,-7.5048,-7.5172,-7.4894,-7.4461,-7.4678,-7.4276,-7.3782,-7.335,-7.3226,-7.3226,-7.3226,-7.3226,-7.3226,-7.3226,-7.3226,-7.3226,-7.3226,-7.3257,-7.3689,-7.4678,-7.5295,-7.5975,-7.6839,-7.7241,-7.7681,-7.765,-7.8028,-7.734,-7.6347,-7.5633,-7.4888,-7.5427,-7.5572,-7.6908,-7.8832,-8.0147,-8.1664,-8.319,-8.4449,-8.4806,-8.5554,-8.6481,-8.6873,-8.7123,-8.9159,-9.1122,-9.4071,-9.7311,-10.1765,-10.545,-10.7088,-10.8255,-10.9862,-11.0839,-11.0839,-7.1168,-7.1168,-7.1168,-7.1168,-7.1168,-7.1168,-7.1168,-7.1168,-7.1168,-7.1168,-7.1168,-7.1168,-7.1168,-7.1168,-7.1168,-7.1168,-7.1168,-7.1168,-7.1082,-7.0912,-7.057,-6.9888,-6.9234,-6.8665,-6.8153,-6.7612,-6.7584,-6.7641,-6.7555,-6.8266,-6.8551,-6.8921,-6.9802,-7.0627,-7.1111,-7.1168,-7.1196,-7.1196,-7.1253,-7.2435,-7.3526,-7.3964,-7.4952,-7.6025,-7.6716,-7.6685,-7.6716,-7.6963,-7.6809,-7.6469,-7.6345,-7.6006,-7.5604,-7.5542,-7.5697,-7.6006,-7.545,-7.5481,-7.5975,-7.545,-7.5203,-7.5172,-7.477,-7.443,-7.4245,-7.3813,-7.3411,-7.3288,-7.3226,-7.3226,-7.3226,-7.3226,-7.3226,-7.3226,-7.3226,-7.3226,-7.3226,-7.3257,-7.3998,-7.4894,-7.5264,-7.5666,-7.6623,-7.7303,-7.7303,-7.7303,-7.7303,-7.6531,-7.5295,-7.4461,-7.3689,-7.3799,-7.3021,-7.495,-7.6631,-7.8873,-8.101,-8.3056,-8.452,-8.4663,-8.5198,-8.6231,-8.6695,-8.6837,-8.8265,-8.9808,-9.1509,-9.2954,-9.5516,-9.8632,-10.1819,-10.5959,-10.9193,-11.053,-11.0839,-7.1168,-7.1168,-7.1168,-7.1168,-7.1168,-7.1168,-7.1168,-7.1168,-7.1168,-7.1168,-7.1168,-7.1168,-7.1168,-7.1168,-7.1168,-7.1168,-7.1168,-7.1111,-7.0883,-7.057,-7.0201,-6.9575,-6.8892,-6.838,-6.8096,-6.7698,-6.7783,-6.8096,-6.8124,-6.8722,-6.9205,-6.9774,-7.0457,-7.0883,-7.131,-7.1538,-7.1822,-7.1822,-7.1822,-7.2597,-7.3728,-7.4292,-7.5353,-7.6408,-7.6832,-7.7056,-7.7087,-7.6778,-7.6592,-7.6222,-7.582,-7.545,-7.5264,-7.5233,-7.5326,-7.5233,-7.5017,-7.4863,-7.5141,-7.5017,-7.477,-7.4986,-7.4554,-7.4523,-7.4647,-7.4369,-7.3628,-7.335,-7.3257,-7.3226,-7.3226,-7.3319,-7.3319,-7.3226,-7.3226,-7.3226,-7.3226,-7.3442,-7.4245,-7.5017,-7.5388,-7.5759,-7.6654,-7.7303,-7.7303,-7.7303,-7.7117,-7.6345,-7.4832,-7.3535,-7.2763,-7.2033,-7.1542,-7.3179,-7.4821,-7.7224,-7.9734,-8.1737,-8.3578,-8.4067,-8.4948,-8.6125,-8.6802,-8.6731,-8.7373,-8.834,-8.9578,-9.088,-9.15,-9.2299,-9.6433,-10.1348,-10.46,-10.9193,-10.9551,-7.1168,-7.1168,-7.1168,-7.1168,-7.1168,-7.1168,-7.1168,-7.1168,-7.1168,-7.1168,-7.1168,-7.1168,-7.1168,-7.1168,-7.1168,-7.1168,-7.1168,-7.1168,-7.0741,-7.0343,-6.9916,-6.9404,-6.8949,-6.8522,-6.8323,-6.8352,-6.8494,-6.8722,-6.8778,-6.9347,-7.003,-7.0883,-7.1594,-7.168,-7.1907,-7.2391,-7.2391,-7.2277,-7.185,-7.2124,-7.3341,-7.4617,-7.5597,-7.6784,-7.7538,-7.8075,-7.7859,-7.7117,-7.6592,-7.616,-7.5604,-7.4956,-7.4461,-7.4986,-7.5048,-7.4832,-7.4863,-7.4925,-7.511,-7.4461,-7.4214,-7.4523,-7.4338,-7.4214,-7.5017,-7.4307,-7.3751,-7.372,-7.3658,-7.372,-7.3628,-7.3597,-7.3442,-7.3288,-7.3226,-7.3226,-7.335,-7.3658,-7.4276,-7.5048,-7.5511,-7.5975,-7.6654,-7.7272,-7.7303,-7.721,-7.6809,-7.6067,-7.4122,-7.2577,-7.162,-7.0885,-7.1102,-7.2423,-7.441,-7.6054,-7.8115,-8.0665,-8.2915,-8.3472,-8.4485,-8.5697,-8.6481,-8.6517,-8.6659,-8.7337,-8.7868,-8.8681,-8.9475,-8.9825,-9.2763,-9.6735,-10.1671,-10.6592,-10.8568,-7.1082,-7.1082,-7.1082,-7.1082,-7.1168,-7.1168,-7.1168,-7.1168,-7.1168,-7.1168,-7.1168,-7.1168,-7.1168,-7.1168,-7.1168,-7.1168,-7.1139,-7.1111,-7.0684,-7.0144,-6.9546,-6.9177,-6.8921,-6.8636,-6.8551,-6.8921,-6.929,-6.9319,-6.949,-6.9973,-7.0912,-7.1907,-7.1993,-7.2249,-7.2505,-7.2874,-7.296,-7.2391,-7.1936,-7.2038,-7.2897,-7.4172,-7.5597,-7.6875,-7.7982,-7.9125,-7.9032,-7.7673,-7.6716,-7.6006,-7.5357,-7.4647,-7.3936,-7.4338,-7.4492,-7.4338,-7.44,-7.4585,-7.4585,-7.3936,-7.3689,-7.3813,-7.3967,-7.4214,-7.5048,-7.4029,-7.3658,-7.3905,-7.3782,-7.3905,-7.3998,-7.4091,-7.3628,-7.3411,-7.3226,-7.3226,-7.335,-7.372,-7.44,-7.511,-7.5759,-7.6345,-7.6994,-7.7241,-7.7303,-7.6839,-7.6407,-7.545,-7.3473,-7.2176,-7.1002,-7.0323,-7.0663,-7.1666,-7.3653,-7.5525,-7.7375,-7.9585,-8.198,-8.3161,-8.4342,-8.4948,-8.5911,-8.5982,-8.616,-8.6338,-8.6692,-8.6955,-8.6996,-8.7699,-8.9525,-9.3789,-9.8378,-10.268,-10.5959,-7.0428,-7.0457,-7.0428,-7.0713,-7.1139,-7.1168,-7.1139,-7.1168,-7.1168,-7.1168,-7.1168,-7.1168,-7.1168,-7.1168,-7.1168,-7.1139,-7.1111,-7.0656,-7.0371,-6.9888,-6.9234,-6.8778,-6.875,-6.8608,-6.8522,-6.8551,-6.9575,-6.9945,-7.0172,-7.0542,-7.0997,-7.1367,-7.1794,-7.1822,-7.2192,-7.2818,-7.313,-7.259,-7.2419,-7.2362,-7.3114,-7.4524,-7.524,-7.5893,-7.6865,-7.7797,-7.7673,-7.6963,-7.6284,-7.5635,-7.5048,-7.44,-7.3597,-7.3875,-7.3905,-7.3844,-7.3751,-7.3936,-7.3751,-7.3597,-7.338,-7.3689,-7.4029,-7.4585,-7.5048,-7.4523,-7.4029,-7.3628,-7.3658,-7.3597,-7.3504,-7.3566,-7.3442,-7.338,-7.3226,-7.3226,-7.335,-7.3936,-7.4585,-7.5264,-7.5913,-7.6592,-7.687,-7.7148,-7.6932,-7.6438,-7.5604,-7.4616,-7.3411,-7.2238,-7.1157,-7.023,-7.0601,-7.135,-7.2864,-7.4483,-7.6689,-7.8839,-8.0759,-8.2328,-8.4209,-8.5019,-8.5412,-8.559,-8.5768,-8.5875,-8.5839,-8.5162,-8.4903,-8.6557,-8.854,-9.1817,-9.4829,-9.8133,-10.208,-6.9575,-6.9802,-6.9802,-7.0172,-7.0713,-7.0741,-7.0883,-7.1111,-7.1168,-7.1168,-7.1168,-7.1168,-7.1168,-7.1168,-7.1168,-7.1168,-7.1082,-7.0826,-7.0514,-7.003,-6.9603,-6.9234,-6.9148,-6.9148,-6.9376,-6.9802,-7.0258,-7.0542,-7.0684,-7.0969,-7.1168,-7.1225,-7.1452,-7.168,-7.168,-7.259,-7.2647,-7.2476,-7.2505,-7.2505,-7.2667,-7.4078,-7.521,-7.521,-7.7138,-7.8291,-7.8044,-7.7272,-7.65,-7.6129,-7.5481,-7.4801,-7.4276,-7.406,-7.3905,-7.372,-7.3442,-7.3257,-7.3226,-7.3226,-7.3442,-7.3813,-7.4276,-7.4801,-7.4647,-7.4183,-7.3628,-7.3628,-7.3658,-7.372,-7.3751,-7.3658,-7.3535,-7.3319,-7.3226,-7.3226,-7.3411,-7.406,-7.4832,-7.5419,-7.6036,-7.6345,-7.6654,-7.6654,-7.6345,-7.5573,-7.4523,-7.3535,-7.2547,-7.1651,-7.0817,-7.0199,-7.0632,-7.1157,-7.2571,-7.3808,-7.6022,-7.8788,-8.0716,-8.1979,-8.3549,-8.477,-8.4913,-8.5126,-8.5233,-8.5233,-8.5162,-8.4841,-8.4592,-8.5868,-8.7551,-9.0543,-9.3534,-9.6528,-10.0461,-6.8608,-6.9177,-6.9177,-6.9575,-7.0172,-7.0229,-7.057,-7.1111,-7.1168,-7.1168,-7.1168,-7.1168,-7.1168,-7.1168,-7.1168,-7.1168,-7.1111,-7.094,-7.0656,-7.04,-7.0002,-6.9831,-7.0115,-7.0172,-7.0058,-7.0514,-7.0798,-7.1054,-7.1082,-7.1082,-7.1168,-7.1225,-7.1538,-7.1737,-7.1424,-7.2277,-7.2306,-7.1651,-7.1964,-7.1993,-7.1952,-7.3698,-7.4587,-7.5537,-7.6935,-7.8307,-7.8384,-7.7323,-7.7056,-7.6932,-7.6438,-7.5882,-7.5326,-7.5172,-7.477,-7.4338,-7.3782,-7.3319,-7.3257,-7.3226,-7.3411,-7.3782,-7.4214,-7.4245,-7.4245,-7.3905,-7.372,-7.4153,-7.4029,-7.3936,-7.3875,-7.3998,-7.3782,-7.3473,-7.338,-7.3473,-7.3628,-7.4492,-7.5233,-7.5851,-7.6098,-7.6345,-7.6222,-7.6006,-7.5666,-7.4554,-7.3473,-7.2423,-7.1466,-7.0694,-6.9891,-7.0354,-7.0817,-7.1682,-7.2778,-7.3831,-7.5957,-7.8734,-8.033,-8.1492,-8.3165,-8.4841,-8.4806,-8.4699,-8.4663,-8.4699,-8.477,-8.477,-8.4592,-8.5213,-8.6557,-8.8919,-9.1933,-9.5574,-9.9199,-6.7982,-6.8551,-6.8522,-6.9177,-7.0115,-7.0201,-7.0542,-7.1082,-7.1168,-7.1168,-7.1168,-7.1168,-7.1168,-7.1168,-7.1168,-7.1139,-7.1111,-7.0627,-7.0713,-7.0656,-7.0115,-6.9831,-6.9945,-6.9859,-6.9916,-7.057,-7.0542,-7.0656,-7.1054,-7.1168,-7.1168,-7.1225,-7.1225,-7.1253,-7.1282,-7.1907,-7.2106,-7.2135,-7.2505,-7.2505,-7.2324,-7.2724,-7.3673,-7.4498,-7.494,-7.6239,-7.7477,-7.6667,-7.633,-7.6309,-7.6345,-7.5975,-7.5295,-7.4739,-7.4647,-7.4832,-7.44,-7.3813,-7.3411,-7.3226,-7.338,-7.3751,-7.4029,-7.4183,-7.4183,-7.406,-7.3782,-7.3504,-7.3504,-7.3566,-7.3566,-7.3473,-7.3411,-7.3319,-7.3658,-7.4091,-7.4338,-7.4956,-7.5697,-7.5975,-7.6222,-7.6067,-7.5573,-7.5264,-7.4832,-7.3813,-7.2825,-7.1744,-7.0879,-7.0014,-6.986,-7.0416,-7.1064,-7.1991,-7.3057,-7.3725,-7.6374,-7.9198,-8.0485,-8.194,-8.3446,-8.4877,-8.4734,-8.4592,-8.452,-8.452,-8.452,-8.4556,-8.452,-8.4867,-8.5559,-8.7245,-8.9903,-9.3199,-9.5866,-6.7641,-6.7925,-6.7925,-6.8636,-6.9632,-6.9774,-7.0286,-7.1082,-7.1168,-7.1168,-7.1168,-7.1168,-7.1168,-7.1168,-7.1168,-7.1168,-7.1111,-7.077,-7.0855,-7.0969,-7.0542,-7.04,-7.057,-7.04,-7.0428,-7.0485,-7.0371,-7.0542,-7.1082,-7.1168,-7.1168,-7.1168,-7.1168,-7.1168,-7.1253,-7.1509,-7.1594,-7.1651,-7.1879,-7.1907,-7.1594,-7.1752,-7.2348,-7.3497,-7.429,-7.4642,-7.5785,-7.5374,-7.5193,-7.6055,-7.5963,-7.6155,-7.616,-7.5697,-7.5264,-7.5079,-7.4585,-7.3936,-7.338,-7.3226,-7.3597,-7.3998,-7.3813,-7.406,-7.44,-7.4122,-7.3566,-7.3411,-7.338,-7.3597,-7.3319,-7.3597,-7.3504,-7.3473,-7.3813,-7.4153,-7.4523,-7.5481,-7.5944,-7.6191,-7.6098,-7.5697,-7.5079,-7.4461,-7.3967,-7.3133,-7.2176,-7.128,-7.0416,-6.9983,-6.9736,-7.023,-7.0755,-7.1774,-7.2794,-7.4816,-7.7279,-7.9761,-8.1584,-8.3052,-8.4323,-8.4564,-8.4663,-8.4556,-8.452,-8.452,-8.452,-8.452,-8.452,-8.452,-8.5868,-8.7208,-8.854,-8.9903,-9.1557,-6.747,-6.747,-6.7555,-6.8238,-6.9234,-6.9404,-7.0144,-7.1054,-7.1168,-7.1168,-7.1168,-7.1168,-7.1168,-7.1168,-7.1168,-7.1168,-7.1168,-7.1054,-7.0969,-7.0656,-7.0997,-7.0826,-7.0826,-7.0656,-7.0798,-7.0855,-7.0713,-7.0684,-7.1054,-7.1168,-7.1168,-7.1168,-7.1168,-7.1168,-7.1168,-7.1168,-7.1253,-7.131,-7.1338,-7.1367,-7.1253,-7.1168,-7.1936,-7.2702,-7.3085,-7.3879,-7.4261,-7.4261,-7.4642,-7.5754,-7.6134,-7.6483,-7.7025,-7.6623,-7.6067,-7.5573,-7.5017,-7.4554,-7.3936,-7.3658,-7.4183,-7.4585,-7.4214,-7.4122,-7.44,-7.3998,-7.3535,-7.3504,-7.3875,-7.4091,-7.3597,-7.3905,-7.3936,-7.3905,-7.4153,-7.4523,-7.4832,-7.5419,-7.5913,-7.5882,-7.5697,-7.5388,-7.4616,-7.3905,-7.3411,-7.2701,-7.2052,-7.1435,-7.0508,-7.0014,-6.986,-7.0199,-7.057,-7.1682,-7.2855,-7.5068,-7.7497,-7.9996,-8.18,-8.3285,-8.471,-8.4777,-8.4663,-8.4556,-8.452,-8.452,-8.452,-8.452,-8.452,-8.4556,-8.5868,-8.7514,-8.8199,-8.8882,-8.9903,-6.747,-6.7498,-6.7982,-6.8636,-6.929,-6.9831,-7.0457,-7.1111,-7.1168,-7.1168,-7.1168,-7.1168,-7.1168,-7.1168,-7.1168,-7.1168,-7.1139,-7.1082,-7.0514,-7.0002,-7.057,-7.0656,-7.0428,-7.0371,-7.0371,-7.0428,-7.0656,-7.0883,-7.1054,-7.1168,-7.1168,-7.1168,-7.1168,-7.1168,-7.1168,-7.1168,-7.1168,-7.1168,-7.1168,-7.1168,-7.1168,-7.1168,-7.1552,-7.2319,-7.2319,-7.2702,-7.3497,-7.4261,-7.4642,-7.5754,-7.6514,-7.7303,-7.7272,-7.7117,-7.6839,-7.6098,-7.5882,-7.5388,-7.4801,-7.477,-7.4863,-7.5079,-7.4461,-7.4307,-7.4245,-7.3875,-7.3628,-7.3905,-7.4153,-7.4338,-7.4801,-7.4523,-7.4461,-7.4708,-7.4894,-7.5357,-7.5697,-7.5511,-7.5481,-7.5357,-7.5141,-7.4647,-7.3936,-7.3535,-7.2917,-7.2361,-7.2145,-7.1682,-7.0724,-7.0138,-7.0199,-7.0446,-7.0755,-7.1651,-7.2794,-7.4771,-7.7645,-7.9827,-8.1615,-8.3546,-8.5806,-8.5203,-8.4592,-8.4556,-8.452,-8.452,-8.452,-8.452,-8.4556,-8.4556,-8.5213,-8.5868,-8.6865,-8.7551,-8.6901,-6.747,-6.7527,-6.8096,-6.8722,-6.9319,-6.9945,-7.057,-7.1082,-7.1168,-7.1168,-7.1168,-7.1168,-7.1168,-7.1168,-7.1168,-7.1139,-7.1082,-7.0798,-7.0144,-6.9632,-6.9802,-7.0002,-6.9746,-6.9717,-6.9717,-6.9802,-7.0343,-7.0627,-7.077,-7.094,-7.1139,-7.1168,-7.1168,-7.1168,-7.1168,-7.1168,-7.1168,-7.1168,-7.1168,-7.1168,-7.1168,-7.1168,-7.1552,-7.1552,-7.1523,-7.1523,-7.2702,-7.3085,-7.3879,-7.5023,-7.6544,-7.7303,-7.7303,-7.7272,-7.6932,-7.6376,-7.6222,-7.5913,-7.5419,-7.5233,-7.5388,-7.5728,-7.4801,-7.4616,-7.4523,-7.4153,-7.3998,-7.4153,-7.4276,-7.4338,-7.4616,-7.4338,-7.4369,-7.4647,-7.4678,-7.4986,-7.545,-7.5419,-7.5203,-7.5079,-7.4616,-7.3967,-7.3535,-7.338,-7.2917,-7.2763,-7.2547,-7.2083,-7.1095,-7.0694,-7.0694,-7.0663,-7.0971,-7.1589,-7.2732,-7.466,-7.7104,-7.8859,-8.0888,-8.3546,-8.552,-8.5274,-8.4592,-8.452,-8.452,-8.452,-8.452,-8.452,-8.452,-8.4556,-8.4556,-8.452,-8.4867,-8.5868,-8.5559,-6.747,-6.7498,-6.8096,-6.8722,-6.9347,-6.9945,-7.057,-7.1111,-7.0997,-7.0883,-7.0883,-7.077,-7.0713,-7.0684,-7.0627,-7.0741,-7.057,-7.0002,-6.9689,-6.9262,-6.929,-6.9205,-6.8892,-6.9063,-6.9063,-6.9234,-6.9717,-7.0087,-7.0314,-7.0684,-7.0997,-7.1111,-7.1168,-7.1168,-7.1168,-7.1168,-7.1168,-7.1168,-7.1168,-7.1168,-7.1168,-7.1168,-7.1168,-7.1168,-7.1139,-7.1139,-7.1523,-7.2319,-7.3497,-7.4642,-7.6165,-7.7303,-7.7303,-7.7303,-7.6963,-7.6469,-7.6345,-7.6191,-7.5635,-7.5697,-7.5913,-7.6314,-7.5511,-7.4832,-7.5203,-7.4585,-7.4276,-7.4276,-7.44,-7.4523,-7.4585,-7.44,-7.44,-7.4492,-7.4461,-7.4554,-7.4986,-7.4925,-7.477,-7.477,-7.44,-7.3813,-7.3319,-7.3226,-7.3195,-7.3164,-7.2825,-7.2392,-7.1898,-7.1404,-7.1188,-7.0941,-7.1219,-7.1589,-7.267,-7.4112,-7.6264,-7.7869,-8.0128,-8.2776,-8.4422,-8.4816,-8.4948,-8.4699,-8.4592,-8.452,-8.452,-8.452,-8.452,-8.452,-8.452,-8.452,-8.452,-8.452,-8.452,-6.747,-6.7498,-6.8096,-6.8722,-6.9319,-6.9916,-7.0485,-7.0912,-7.0542,-7.0314,-7.0201,-6.9746,-6.966,-6.949,-6.9717,-6.9518,-6.9518,-6.9006,-6.8949,-6.912,-6.9063,-6.8665,-6.7982,-6.8266,-6.8437,-6.8551,-6.9091,-6.9603,-6.9973,-7.0229,-7.0599,-7.0969,-7.1111,-7.1139,-7.1168,-7.1168,-7.1168,-7.1168,-7.1168,-7.1139,-7.1054,-7.1054,-7.0969,-7.0969,-7.0969,-7.1054,-7.1466,-7.3085,-7.4201,-7.4261,-7.6165,-7.7272,-7.7241,-7.7272,-7.6901,-7.6407,-7.6531,-7.6623,-7.6253,-7.6407,-7.6932,-7.6747,-7.6222,-7.5882,-7.5141,-7.4616,-7.4245,-7.4245,-7.4801,-7.4956,-7.4956,-7.4585,-7.4585,-7.4832,-7.4523,-7.4616,-7.4832,-7.4153,-7.3689,-7.4183,-7.3751,-7.338,-7.3226,-7.3226,-7.3226,-7.3195,-7.3102,-7.2701,-7.2361,-7.1991,-7.1713,-7.1466,-7.1589,-7.1774,-7.2608,-7.3535,-7.5066,-7.6327,-7.8846,-8.1294,-8.294,-8.4394,-8.4706,-8.4841,-8.4627,-8.452,-8.452,-8.452,-8.452,-8.452,-8.452,-8.452,-8.452,-8.452,-8.452,-6.747,-6.7498,-6.8096,-6.8494,-6.8807,-6.9404,-6.9831,-6.9973,-6.9774,-6.966,-6.9632,-6.9376,-6.929,-6.929,-6.929,-6.929,-6.9205,-6.8636,-6.8522,-6.8722,-6.8437,-6.801,-6.7669,-6.7669,-6.784,-6.7897,-6.8437,-6.8864,-6.9205,-6.9888,-7.0314,-7.0599,-7.0969,-7.1139,-7.1111,-7.1168,-7.1168,-7.1139,-7.1139,-7.094,-7.0627,-7.0599,-7.0457,-7.0172,-7.0428,-7.0599,-7.1066,-7.291,-7.4434,-7.4982,-7.63,-7.7087,-7.6747,-7.6685,-7.6376,-7.5728,-7.5913,-7.6006,-7.5759,-7.5882,-7.6067,-7.5975,-7.5481,-7.4986,-7.4678,-7.443,-7.4245,-7.4276,-7.4863,-7.5141,-7.5172,-7.4986,-7.4956,-7.5079,-7.4647,-7.44,-7.4616,-7.3844,-7.3658,-7.3875,-7.3689,-7.3226,-7.3226,-7.3226,-7.3226,-7.3226,-7.3226,-7.301,-7.2794,-7.2608,-7.2361,-7.2207,-7.2207,-7.2207,-7.2763,-7.3257,-7.4629,-7.4723,-7.6695,-7.8714,-8.0653,-8.3165,-8.3654,-8.4663,-8.4592,-8.452,-8.452,-8.452,-8.452,-8.452,-8.452,-8.452,-8.452,-8.452,-8.452,-6.747,-6.7498,-6.7925,-6.821,-6.8409,-6.8807,-6.912,-6.9262,-6.9148,-6.9034,-6.8978,-6.8892,-6.875,-6.8807,-6.8778,-6.8807,-6.8636,-6.8266,-6.8124,-6.8067,-6.7641,-6.7555,-6.7669,-6.7555,-6.747,-6.7527,-6.7925,-6.8181,-6.8409,-6.9205,-6.9746,-6.9973,-7.0371,-7.0684,-7.0855,-7.0684,-7.0741,-7.0883,-7.077,-7.0371,-7.0002,-6.9973,-6.9717,-6.9347,-6.9746,-6.9945,-7.003,-7.2325,-7.3519,-7.444,-7.6401,-7.6716,-7.6036,-7.5975,-7.5666,-7.5141,-7.511,-7.5172,-7.5079,-7.5172,-7.5233,-7.5141,-7.4956,-7.443,-7.4276,-7.4245,-7.4153,-7.4091,-7.4585,-7.4925,-7.4956,-7.5079,-7.5172,-7.5141,-7.4647,-7.4338,-7.443,-7.3936,-7.3689,-7.4091,-7.3844,-7.3473,-7.3319,-7.3226,-7.3226,-7.3226,-7.3226,-7.3164,-7.3041,-7.2855,-7.2577,-7.2547,-7.2547,-7.2577,-7.2701,-7.301,-7.3226,-7.3678,-7.491,-7.6925,-7.8866,-8.1101,-8.2467,-8.4556,-8.4556,-8.452,-8.452,-8.452,-8.452,-8.452,-8.452,-8.452,-8.452,-8.452,-8.452,-6.747,-6.747,-6.7498,-6.784,-6.8266,-6.838,-6.8665,-6.9063,-6.8636,-6.838,-6.8266,-6.7925,-6.7669,-6.7612,-6.7783,-6.7754,-6.7584,-6.7584,-6.7612,-6.7584,-6.7527,-6.7669,-6.7982,-6.7641,-6.747,-6.747,-6.7527,-6.7811,-6.8238,-6.8522,-6.875,-6.929,-6.949,-6.9689,-7.0087,-6.9689,-6.9774,-7.0144,-6.9746,-6.949,-6.9347,-6.9347,-6.9262,-6.9205,-6.9262,-6.9347,-6.9722,-7.0614,-7.2374,-7.432,-7.5566,-7.6098,-7.545,-7.5264,-7.5017,-7.44,-7.4894,-7.4832,-7.4585,-7.4894,-7.5203,-7.5203,-7.5048,-7.4925,-7.4338,-7.4153,-7.3905,-7.3504,-7.3998,-7.4369,-7.4492,-7.4801,-7.5141,-7.511,-7.4647,-7.4523,-7.4956,-7.4461,-7.406,-7.4091,-7.4183,-7.3967,-7.3288,-7.3226,-7.3226,-7.3226,-7.3226,-7.3226,-7.3164,-7.2979,-7.2701,-7.2639,-7.2639,-7.2732,-7.2948,-7.3195,-7.3195,-7.3647,-7.4037,-7.5532,-7.6829,-7.8921,-8.0296,-8.2781,-8.4209,-8.452,-8.452,-8.452,-8.452,-8.452,-8.452,-8.452,-8.452,-8.452,-8.452,-6.747,-6.747,-6.747,-6.7612,-6.7783,-6.7783,-6.7925,-6.8067,-6.7868,-6.7811,-6.7754,-6.7555,-6.747,-6.747,-6.747,-6.747,-6.747,-6.747,-6.747,-6.747,-6.747,-6.7555,-6.7698,-6.7555,-6.747,-6.747,-6.747,-6.7584,-6.7811,-6.8153,-6.8466,-6.875,-6.9091,-6.9404,-6.9546,-6.9404,-6.9376,-6.9546,-6.9404,-6.9091,-6.8778,-6.8693,-6.8494,-6.8266,-6.8494,-6.9035,-6.9833,-7.0953,-7.257,-7.4604,-7.5879,-7.5882,-7.5295,-7.5172,-7.4739,-7.3998,-7.4183,-7.4554,-7.4369,-7.4863,-7.5203,-7.511,-7.4832,-7.4492,-7.4276,-7.3782,-7.3566,-7.335,-7.3844,-7.4245,-7.4276,-7.4492,-7.4801,-7.5141,-7.4585,-7.44,-7.443,-7.3998,-7.3689,-7.3689,-7.3658,-7.3504,-7.3288,-7.3226,-7.3226,-7.3226,-7.3226,-7.3226,-7.3164,-7.2979,-7.301,-7.2979,-7.2886,-7.2979,-7.3195,-7.3226,-7.3226,-7.3226,-7.3226,-7.4301,-7.5341,-7.7119,-7.8888,-8.1349,-8.3826,-8.3826,-8.452,-8.452,-8.452,-8.452,-8.452,-8.452,-8.452,-8.452,-8.5213,-6.7157,-6.7186,-6.7385,-6.747,-6.747,-6.747,-6.747,-6.747,-6.747,-6.747,-6.747,-6.747,-6.747,-6.747,-6.747,-6.747,-6.747,-6.747,-6.7555,-6.7698,-6.7527,-6.7555,-6.7698,-6.7555,-6.747,-6.7498,-6.7641,-6.7726,-6.784,-6.8153,-6.821,-6.8153,-6.8494,-6.8807,-6.8978,-6.9006,-6.8978,-6.9006,-6.8978,-6.8807,-6.8409,-6.8352,-6.8266,-6.8096,-6.8409,-6.9262,-7.0252,-7.1754,-7.3525,-7.5069,-7.5879,-7.5913,-7.5357,-7.5203,-7.477,-7.4029,-7.4307,-7.4554,-7.4616,-7.4986,-7.5203,-7.511,-7.4616,-7.4307,-7.4183,-7.3658,-7.3257,-7.3288,-7.3628,-7.406,-7.4214,-7.4245,-7.4338,-7.4554,-7.4214,-7.3905,-7.3875,-7.372,-7.3566,-7.3535,-7.3535,-7.3442,-7.3288,-7.3226,-7.3226,-7.3226,-7.3226,-7.3226,-7.3226,-7.3164,-7.3226,-7.3226,-7.3226,-7.3195,-7.3226,-7.3226,-7.3226,-7.3226,-7.3226,-7.3943,-7.4984,-7.6409,-7.7828,-7.9593,-8.2048,-8.3478,-8.4173,-8.452,-8.452,-8.452,-8.452,-8.452,-8.452,-8.5213,-8.5868,-6.6531,-6.6588,-6.7186,-6.7328,-6.7299,-6.7356,-6.7442,-6.7413,-6.7442,-6.747,-6.747,-6.747,-6.747,-6.747,-6.747,-6.7442,-6.7385,-6.7442,-6.7698,-6.8096,-6.7726,-6.7811,-6.8238,-6.784,-6.7641,-6.7584,-6.8039,-6.8266,-6.8181,-6.821,-6.801,-6.7584,-6.7612,-6.7925,-6.8352,-6.8352,-6.8352,-6.8352,-6.8352,-6.8323,-6.8323,-6.8266,-6.8466,-6.8978,-6.9205,-7.018,-7.1502,-7.2629,-7.4034,-7.594,-7.6314,-7.5913,-7.5481,-7.5295,-7.5203,-7.5079,-7.5172,-7.5203,-7.5203,-7.5295,-7.5419,-7.5233,-7.4678,-7.4338,-7.4183,-7.3628,-7.3226,-7.3226,-7.3319,-7.3535,-7.406,-7.4214,-7.406,-7.3411,-7.3411,-7.335,-7.3411,-7.3813,-7.4214,-7.4091,-7.4029,-7.3905,-7.3442,-7.3226,-7.3226,-7.3226,-7.3226,-7.3226,-7.3226,-7.3226,-7.3226,-7.3226,-7.3226,-7.3226,-7.3226,-7.3226,-7.3226,-7.3226,-7.3226,-7.3226,-7.427,-7.5697,-7.7119,-7.7828,-8.0296,-8.2398,-8.3478,-8.4173,-8.452,-8.452,-8.452,-8.452,-8.4867,-8.5523,-8.6521,-6.5877,-6.5906,-6.6105,-6.619,-6.6218,-6.6645,-6.6816,-6.6873,-6.7271,-6.747,-6.747,-6.747,-6.747,-6.747,-6.747,-6.7242,-6.6901,-6.7271,-6.7555,-6.7726,-6.7954,-6.8153,-6.8352,-6.8579,-6.8466,-6.8153,-6.8266,-6.8124,-6.7811,-6.7754,-6.7641,-6.747,-6.747,-6.7555,-6.7698,-6.7754,-6.7754,-6.7754,-6.7754,-6.7754,-6.7726,-6.7726,-6.7868,-6.8181,-6.9262,-7.1134,-7.3311,-7.3697,-7.4694,-7.6586,-7.6963,-7.687,-7.6592,-7.616,-7.5697,-7.5326,-7.5635,-7.5913,-7.5944,-7.6376,-7.6407,-7.5944,-7.5295,-7.4678,-7.4245,-7.3628,-7.3288,-7.3226,-7.3226,-7.3257,-7.3597,-7.3998,-7.3967,-7.338,-7.3226,-7.3226,-7.3226,-7.3473,-7.3597,-7.3628,-7.3658,-7.3504,-7.3257,-7.3226,-7.3226,-7.3226,-7.3226,-7.3226,-7.3226,-7.3226,-7.3226,-7.3226,-7.3226,-7.3226,-7.3226,-7.3226,-7.3226,-7.3226,-7.3226,-7.3226,-7.3943,-7.4984,-7.6409,-7.6764,-7.8502,-8.0964,-8.2746,-8.3826,-8.4173,-8.452,-8.452,-8.4556,-8.4867,-8.5868,-8.8236,-6.5906,-6.5934,-6.6133,-6.6105,-6.5962,-6.6332,-6.6389,-6.6218,-6.6617,-6.6759,-6.6787,-6.6787,-6.6759,-6.6816,-6.7242,-6.7129,-6.6617,-6.7157,-6.7328,-6.7186,-6.7754,-6.8153,-6.8352,-6.875,-6.8807,-6.8722,-6.8892,-6.8807,-6.8466,-6.821,-6.801,-6.784,-6.7783,-6.7641,-6.7527,-6.7669,-6.7669,-6.7527,-6.7698,-6.7783,-6.784,-6.7811,-6.7783,-6.7868,-6.9722,-7.1947,-7.3875,-7.4523,-7.5785,-7.7303,-7.7303,-7.7303,-7.7241,-7.687,-7.6407,-7.6067,-7.6376,-7.6623,-7.6685,-7.7056,-7.7087,-7.6592,-7.5759,-7.5017,-7.4554,-7.3782,-7.335,-7.3535,-7.3597,-7.3597,-7.3689,-7.3967,-7.4091,-7.3658,-7.338,-7.3411,-7.3751,-7.372,-7.3597,-7.3597,-7.3597,-7.3473,-7.335,-7.3226,-7.3226,-7.3226,-7.3226,-7.3226,-7.3226,-7.3226,-7.3226,-7.3226,-7.3226,-7.3226,-7.3226,-7.3226,-7.3226,-7.3226,-7.3226,-7.3226,-7.3226,-7.427,-7.4627,-7.5341,-7.6732,-7.8855,-7.9559,-8.0648,-8.2432,-8.2781,-8.4556,-8.4556,-8.452,-8.6557,-8.8882,-6.6474,-6.6531,-6.71,-6.6901,-6.6474,-6.6474,-6.619,-6.5763,-6.5763,-6.5735,-6.5849,-6.5792,-6.565,-6.5735,-6.6873,-6.7072,-6.6645,-6.7157,-6.7186,-6.6759,-6.7299,-6.7811,-6.8323,-6.838,-6.8693,-6.9091,-6.9546,-6.9802,-6.9774,-6.9404,-6.8949,-6.8409,-6.838,-6.8124,-6.7783,-6.8096,-6.8039,-6.7641,-6.7954,-6.8266,-6.8295,-6.8295,-6.8266,-6.838,-7.0643,-7.2063,-7.3371,-7.5043,-7.6134,-7.7303,-7.7241,-7.7241,-7.7303,-7.7241,-7.7179,-7.721,-7.7272,-7.7272,-7.7241,-7.7272,-7.7241,-7.7025,-7.5913,-7.5172,-7.4925,-7.3998,-7.3628,-7.4183,-7.4307,-7.443,-7.443,-7.4554,-7.4461,-7.4276,-7.3751,-7.3998,-7.5017,-7.4554,-7.4338,-7.4307,-7.4214,-7.3936,-7.3411,-7.3257,-7.3226,-7.3226,-7.3226,-7.3226,-7.3226,-7.3226,-7.3226,-7.3226,-7.3226,-7.3226,-7.3226,-7.3226,-7.3226,-7.3226,-7.3226,-7.3226,-7.3226,-7.3226,-7.3226,-7.3943,-7.5697,-7.6764,-7.6764,-7.7828,-7.9945,-8.1349,-8.2781,-8.4209,-8.452,-8.6901,-8.9563,-6.582,-6.5849,-6.6019,-6.5991,-6.5877,-6.6304,-6.6418,-6.6304,-6.673,-6.6958,-6.693,-6.693,-6.6446,-6.5763,-6.6418,-6.6674,-6.6617,-6.7186,-6.7356,-6.7299,-6.7811,-6.8181,-6.838,-6.8807,-6.8892,-6.8665,-6.8835,-6.8665,-6.8266,-6.8437,-6.875,-6.9006,-6.9034,-6.8949,-6.8778,-6.8437,-6.8266,-6.8096,-6.7811,-6.7698,-6.7726,-6.7726,-6.7925,-6.8352,-7.0238,-7.1654,-7.3252,-7.5013,-7.6134,-7.7272,-7.6809,-7.6747,-7.7241,-7.6809,-7.6778,-7.721,-7.7303,-7.7303,-7.7303,-7.7303,-7.7087,-7.6531,-7.5759,-7.5017,-7.4585,-7.4183,-7.4091,-7.4307,-7.5141,-7.5635,-7.5697,-7.5697,-7.545,-7.4986,-7.4832,-7.477,-7.5172,-7.5079,-7.4956,-7.4894,-7.4585,-7.4153,-7.3967,-7.3535,-7.3226,-7.3226,-7.3226,-7.3226,-7.3226,-7.3226,-7.3226,-7.3226,-7.3226,-7.3226,-7.3226,-7.3226,-7.3226,-7.3226,-7.3226,-7.3226,-7.3226,-7.3226,-7.3226,-7.3771,-7.5047,-7.6053,-7.5697,-7.7119,-7.9241,-7.9945,-8.0998,-8.2432,-8.4173,-8.8578,-9.1258,-6.6332,-6.6361,-6.6588,-6.656,-6.6389,-6.673,-6.6617,-6.619,-6.6531,-6.6674,-6.6787,-6.7783,-6.7811,-6.7129,-6.747,-6.7498,-6.7328,-6.7925,-6.8067,-6.7868,-6.8437,-6.8864,-6.912,-6.9518,-6.9632,-6.949,-6.949,-6.9034,-6.8437,-6.8835,-6.9006,-6.8921,-6.8892,-6.8778,-6.8522,-6.8153,-6.7982,-6.7954,-6.7641,-6.747,-6.7498,-6.7698,-6.801,-6.8749,-7.0436,-7.1735,-7.2866,-7.4695,-7.5688,-7.6407,-7.6036,-7.6006,-7.6438,-7.6314,-7.6438,-7.6809,-7.687,-7.6747,-7.6469,-7.6438,-7.6253,-7.5851,-7.5203,-7.4678,-7.4276,-7.4245,-7.4245,-7.4369,-7.5203,-7.5697,-7.5419,-7.5419,-7.5388,-7.5233,-7.4956,-7.5172,-7.5913,-7.582,-7.5635,-7.5573,-7.5048,-7.4585,-7.4245,-7.3658,-7.3257,-7.3226,-7.3226,-7.3226,-7.3226,-7.3226,-7.3226,-7.3226,-7.3226,-7.3226,-7.3226,-7.3226,-7.3226,-7.3226,-7.3226,-7.3411,-7.3504,-7.3473,-7.335,-7.3628,-7.4489,-7.4658,-7.5016,-7.6053,-7.7119,-7.7828,-7.8855,-8.0614,-8.4449,-8.8882,-9.2802,-6.7442,-6.7555,-6.8096,-6.8096,-6.7527,-6.7612,-6.7015,-6.5991,-6.5934,-6.5877,-6.6105,-6.8096,-6.9006,-6.912,-6.9006,-6.8665,-6.8238,-6.8835,-6.8778,-6.8409,-6.8921,-6.9518,-7.0002,-7.0087,-7.0428,-7.0798,-7.0826,-7.0144,-6.9234,-6.9774,-6.9518,-6.8551,-6.8437,-6.8238,-6.7726,-6.7612,-6.7555,-6.7555,-6.7527,-6.7527,-6.7498,-6.8039,-6.8323,-6.8323,-7.0748,-7.2184,-7.2555,-7.4095,-7.5233,-7.5295,-7.5295,-7.5233,-7.5388,-7.582,-7.6129,-7.616,-7.6129,-7.5882,-7.5295,-7.5203,-7.5264,-7.5172,-7.4647,-7.4276,-7.4245,-7.4183,-7.4122,-7.4153,-7.4739,-7.5017,-7.4461,-7.443,-7.4739,-7.5141,-7.477,-7.5048,-7.6469,-7.6592,-7.6253,-7.6253,-7.5666,-7.5048,-7.4492,-7.3844,-7.335,-7.3257,-7.3226,-7.3226,-7.3226,-7.3226,-7.3226,-7.3226,-7.3411,-7.3411,-7.3257,-7.3257,-7.3411,-7.338,-7.335,-7.3658,-7.406,-7.3936,-7.3535,-7.3998,-7.4112,-7.374,-7.3647,-7.3226,-7.3943,-7.5341,-7.6377,-7.8116,-8.396,-8.9487,-9.4384,-6.747,-6.7584,-6.8608,-6.8722,-6.8181,-6.8665,-6.8437,-6.7783,-6.821,-6.7925,-6.7157,-6.7584,-6.7868,-6.7868,-6.7868,-6.7811,-6.7698,-6.7811,-6.8039,-6.8323,-6.8494,-6.8892,-6.9433,-6.949,-6.9575,-6.9689,-6.9689,-6.9575,-6.9319,-6.9433,-6.9347,-6.912,-6.9063,-6.9006,-6.8864,-6.838,-6.8124,-6.8153,-6.8124,-6.7925,-6.7498,-6.8039,-6.8463,-6.8793,-7.0443,-7.1899,-7.2633,-7.419,-7.545,-7.5944,-7.5481,-7.545,-7.5944,-7.5666,-7.545,-7.545,-7.545,-7.5357,-7.5203,-7.5203,-7.5203,-7.5203,-7.4616,-7.4245,-7.4214,-7.3782,-7.3226,-7.2917,-7.4122,-7.5079,-7.4863,-7.4894,-7.5048,-7.5172,-7.5048,-7.5172,-7.5635,-7.6036,-7.6253,-7.6222,-7.6098,-7.5697,-7.5079,-7.443,-7.3782,-7.3288,-7.3226,-7.3226,-7.3226,-7.3226,-7.3226,-7.3411,-7.4122,-7.4338,-7.3411,-7.3658,-7.3967,-7.4029,-7.4029,-7.4307,-7.477,-7.4894,-7.4708,-7.4338,-7.4153,-7.3875,-7.335,-7.3257,-7.3678,-7.4068,-7.5142,-7.7506,-8.2677,-8.9563,-9.6473,-6.747,-6.7584,-6.8466,-6.8665,-6.838,-6.8693,-6.8494,-6.7982,-6.8295,-6.8067,-6.7498,-6.747,-6.7612,-6.7868,-6.7868,-6.801,-6.8295,-6.8295,-6.8466,-6.875,-6.8778,-6.8978,-6.9262,-6.929,-6.9433,-6.9689,-6.9717,-6.9717,-6.9717,-6.9717,-6.9433,-6.8921,-6.8892,-6.8722,-6.8466,-6.838,-6.821,-6.7954,-6.7925,-6.7783,-6.747,-6.7214,-6.7262,-6.7995,-6.9422,-7.0318,-7.1425,-7.3113,-7.372,-7.3473,-7.338,-7.3504,-7.3875,-7.3566,-7.3628,-7.4245,-7.3998,-7.3813,-7.3813,-7.3535,-7.3226,-7.2948,-7.2577,-7.2145,-7.1497,-7.1373,-7.1342,-7.1342,-7.2485,-7.335,-7.335,-7.335,-7.3597,-7.4214,-7.4307,-7.4554,-7.511,-7.5573,-7.5759,-7.5728,-7.5233,-7.4739,-7.4338,-7.372,-7.3133,-7.2886,-7.3072,-7.3226,-7.3226,-7.372,-7.4153,-7.4183,-7.4739,-7.4832,-7.4338,-7.4461,-7.4647,-7.4678,-7.4678,-7.4956,-7.5542,-7.5357,-7.5233,-7.5141,-7.4894,-7.4554,-7.4245,-7.4122,-7.4153,-7.4153,-7.521,-7.7671,-8.2207,-8.8438,-9.5337,-6.7413,-6.7385,-6.8067,-6.8238,-6.8096,-6.8096,-6.7868,-6.747,-6.7157,-6.7129,-6.7214,-6.7186,-6.747,-6.7954,-6.7954,-6.8238,-6.875,-6.8778,-6.8864,-6.9034,-6.9034,-6.912,-6.929,-6.929,-6.9575,-7.003,-7.0087,-7.0087,-7.0058,-6.9973,-6.9433,-6.8494,-6.8323,-6.8039,-6.7669,-6.8181,-6.8181,-6.7612,-6.7669,-6.7669,-6.7584,-6.6617,-6.6347,-6.7123,-6.83,-6.8976,-6.982,-7.1607,-7.1744,-7.057,-7.1095,-7.1342,-7.1157,-7.1126,-7.1404,-7.2238,-7.1713,-7.1311,-7.128,-7.0786,-7.023,-6.9798,-6.9767,-6.9026,-6.7482,-6.8223,-6.9118,-6.9705,-7.057,-7.1002,-7.1002,-7.1188,-7.1744,-7.2763,-7.2948,-7.335,-7.4338,-7.4616,-7.4739,-7.4863,-7.3967,-7.3473,-7.335,-7.2825,-7.2423,-7.2207,-7.2577,-7.3102,-7.3319,-7.4214,-7.4925,-7.5172,-7.5357,-7.5419,-7.5141,-7.5264,-7.5357,-7.5357,-7.5357,-7.5604,-7.6284,-7.6006,-7.5789,-7.6129,-7.5697,-7.5326,-7.5141,-7.5203,-7.5079,-7.5048,-7.6118,-7.8311,-8.3629,-8.8151,-9.3144,-6.7157,-6.6787,-6.7868,-6.7754,-6.6844,-6.6816,-6.7072,-6.7356,0.0,0.0,0.0,-6.5906,-6.5962,-6.6048,-6.6048,-6.6105,-6.6218,-6.6218,-6.6787,-6.7783,-6.7783,-6.8323,-6.9262,-6.929,-6.9347,-6.9433,-6.9461,-6.9461,-6.9433,-6.8921,-6.8551,-6.8323,-6.7868,-6.7811,-6.821,-6.8807,-6.8807,-6.8238,-6.8693,-6.8722,-6.821,-6.8466,-6.8629,-6.8891,-6.9721,-7.0168,-7.0869,-7.2361,-7.267,-7.1898,-7.2485,-7.233,-7.1219,-7.0632,-6.9705,-6.8285,-6.7543,-6.7204,-6.7173,-6.708,-6.7173,-6.7605,-6.7605,-6.6339,-6.3343,-6.5783,-6.7482,-6.7605,-6.9304,-7.0354,-7.0354,-7.0817,-7.1249,-7.1466,-7.1497,-7.1589,-7.1867,-7.233,-7.2948,-7.3504,-7.3751,-7.3844,-7.3195,-7.2948,-7.2639,-7.1713,-7.1929,-7.2547,-7.3102,-7.3566,-7.4183,-7.5203,-7.616,-7.6469,-7.5666,-7.5666,-7.6036,-7.6067,-7.6067,-7.6314,-7.687,-7.7025,-7.6747,-7.6407,-7.6191,-7.5851,-7.5357,-7.5664,-7.5203,-7.5203,-7.7709,-8.1608,-8.6339,-9.1159,-9.6206,-6.6304,0.0,-6.6332,-6.6105,0.0,-6.5223,-6.491,-6.454,-6.3602,-6.3374,-6.3658,-6.3658,-6.3858,-6.4142,-6.4142,-6.4313,-6.4626,-6.4938,-6.5422,-6.6048,-6.6361,-6.6816,-6.7413,-6.7726,-6.7868,-6.7897,-6.8522,-6.8807,-6.8807,-6.8835,-6.8665,-6.8352,-6.8039,-6.7584,-6.6986,-6.7897,-6.8522,-6.8807,-6.8522,-6.821,-6.7897,-6.8313,-6.8402,-6.895,-6.9513,0.0,0.0,0.0,0.0,0.0,0.0,0.0,0.0,0.0,0.0,-6.5629,-6.3621,-6.2324,-6.2015,-6.1336,-6.1243,-6.1892,-6.2262,-6.1027,-5.8256,-6.139,-6.3928,-6.5024,-6.6708,-6.7719,-6.8068,-6.8717,-6.9211,-6.9551,-6.9613,-6.9891,-7.057,-7.0971,-7.1311,-7.1651,-7.1682,-7.1558,-7.1188,-7.1157,-7.0971,-7.0755,-7.1249,-7.2145,-7.3442,-7.4029,-7.4739,-7.6067,-7.6932,-7.7025,-7.6438,-7.6592,-7.6778,-7.6778,-7.6778,-7.6932,-7.7241,-7.7303,-7.721,-7.687,-7.6778,-7.6685,-7.6314,-7.8085,-7.8424,-7.7341,-8.098,-8.6145,-8.9285,-9.4303,-9.8518,-6.5138,-6.4995,-6.4483,-6.4199,-6.3971,-6.2777,-6.1696,-6.0757,-6.0871,-6.0985,-6.1098,-6.1241,-6.1554,-6.2037,-6.2037,-6.235,-6.2834,-6.3573,-6.3971,-6.4114,-6.4853,-6.528,-6.5422,-6.6048,-6.6332,-6.6389,-6.7328,-6.7811,-6.7811,-6.8352,-6.8323,-6.7811,-6.7811,-6.7186,-6.6019,0.0,0.0,0.0,-6.8177,-6.792,-6.7777,-6.7637,-6.7769,-6.8946,-6.9478,0.0,-7.1054,-7.1791,-7.1546,-6.9786,-6.9917,0.0,0.0,0.0,0.0,0.0,0.0,0.0,0.0,0.0,0.0,0.0,-5.556,-5.5293,-5.4328,-5.7364,-6.0114,-6.2,-6.3458,-6.4587,-6.5042,-6.5721,-6.6401,-6.7049,-6.7142,-6.7636,-6.884,-6.9118,-6.9335,-6.9551,-6.9242,-6.8995,-6.9088,-6.9211,-6.952,-6.9798,-7.0663,-7.1991,-7.3597,-7.4029,-7.4986,-7.6561,-7.6747,-7.687,-7.6901,-7.7087,-7.7179,-7.7148,-7.7179,-7.7272,-7.7303,-7.7303,-7.7303,-7.7272,-7.721,-7.7056,-7.7025,-8.0278,-8.144,-7.8717,-8.4125,-8.9887,-9.1521,-9.5563,-9.9302,-6.3602,-6.3118,-6.3033,-6.2663,-6.1895,-5.8538,-5.7031,-5.6917,-5.7458,-5.8026,-5.8567,-5.9107,-5.9392,-5.9477,-5.9477,-5.9534,-5.9676,-6.0814,-6.1639,-6.2236,-6.3402,-6.4227,-6.4768,-6.5394,-6.5678,-6.5706,-6.5849,-6.5934,-6.5934,-6.6019,-6.5991,-6.5934,-6.5934,-6.6361,-6.7129,-6.699,-6.6745,-6.6884,-6.8733,-6.9419,-6.9953,-6.8879,-6.8925,-7.0373,-6.9953,-7.0012,-7.0789,-7.1849,-7.1277,-6.8708,-6.8777,-6.7701,-6.5278,-6.2099,-5.9276,0.0,-5.3213,0.0,0.0,0.0,0.0,0.0,0.0,0.0,0.0,-5.6489,-5.7539,-5.916,-6.0794,-6.149,-6.1645,-6.2293,-6.2942,-6.3559,-6.3652,-6.3961,-6.4764,-6.5381,-6.6184,-6.7327,-6.7914,-6.8223,-6.8192,-6.9335,-6.9551,-6.881,-7.0354,-7.1836,-7.233,-7.2083,-7.2825,-7.5141,-7.5481,-7.5635,-7.5697,-7.65,-7.7025,-7.6561,-7.6809,-7.7272,-7.721,-7.7241,-7.7272,-7.721,-7.6747,-7.6407,-7.6376,-7.9149,-8.0921,-8.0524,-8.6053,-9.1144,-9.089,-9.412,-9.8337,-6.1753,-6.1127,-6.0444,-5.9591,-5.8538,-5.6889,-5.6149,-5.6178,-5.6462,-5.6718,-5.7031,-5.7287,-5.723,-5.6946,-5.6946,-5.7838,-5.9456,-5.9514,-6.0382,-6.1984,-6.2016,-6.2265,-6.2578,-6.3545,-6.3829,-6.3516,-6.4199,-6.4341,-6.4057,-6.437,-6.4711,-6.5052,-6.5403,-6.5498,-6.4682,-6.514,-6.5803,-6.6273,-6.8417,-7.0071,-7.0849,-7.078,-7.1205,-7.2454,-7.2633,-7.2848,-7.2661,-7.2483,-7.1455,-6.9149,-6.8084,-6.6308,-6.325,-5.9915,-5.6177,0.0,0.0,0.0,0.0,0.0,0.0,0.0,0.0,0.0,0.0,0.0,-5.4591,-5.4885,-5.7666,-5.9161,-5.8216,-5.9483,-6.0131,-5.9699,-5.9637,-5.9761,-6.0658,-6.3134,-6.455,-6.4299,-6.6249,-6.733,-6.6489,-6.7067,-6.7482,-6.8099,-6.9488,-7.0731,-7.0446,-7.1249,-7.2392,-7.4338,-7.4986,-7.5203,-7.5203,-7.5759,-7.6036,-7.5759,-7.5944,-7.6129,-7.6129,-7.6129,-7.616,-7.6129,-7.5882,-7.5666,-7.6005,-7.9765,-8.2297,-8.143,-8.5704,-9.007,-8.9947,-9.2123,-9.4605,-5.9449,-5.8823,-5.6853,-5.6017,-5.5529,-5.4972,-5.5145,-5.567,-5.5137,-5.4812,-5.4841,-5.5011,-5.4471,-5.3764,-5.3909,-5.5461,-5.8556,-5.8509,-6.0037,-6.2846,-6.1889,-6.1544,-6.1393,-6.1886,-6.1838,-6.144,-6.2208,-6.2322,-6.1895,-6.2037,-6.2378,-6.3116,-6.3388,-6.2926,-6.1236,-6.2571,-6.4109,-6.6323,-6.7852,-6.9217,-7.1123,-7.1876,-7.2999,-7.3913,-7.4434,-7.4251,-7.3762,-7.2452,-7.094,-6.9198,-6.6517,-6.3916,-6.0737,-5.6789,0.0,0.0,0.0,0.0,0.0,0.0,0.0,0.0,0.0,-4.2051,-4.4236,0.0,-5.1193,0.0,-5.4536,-5.6238,-5.671,-5.6732,0.0,0.0,-5.5159,-5.5088,-5.608,-5.9371,-6.1573,-6.1282,-6.3809,-6.5477,-6.4596,-6.5118,-6.6059,-6.7375,-6.7908,-6.8441,-6.8681,-7.0014,-7.1682,-7.2948,-7.3597,-7.4122,-7.4338,-7.4492,-7.4585,-7.4925,-7.5141,-7.5203,-7.5203,-7.4986,-7.5105,-7.5774,-7.5429,-7.5414,-7.64,-8.1135,-8.2942,-7.9833,-8.399,-8.9086,-8.8884,-8.9729,-9.085,-5.649,-5.6007,-5.1839,-5.1695,-5.3691,-5.1914,-5.2336,-5.4469,-5.21,-5.1001,-5.1058,-5.1626,-5.0847,-4.908,-4.9499,0.0,-5.5949,-5.8596,-6.1508,-6.4955,-6.4005,-6.3467,-6.3486,-6.1079,-6.0103,-6.0046,-5.9591,-5.9335,-5.925,-5.8197,-5.7968,-5.8589,-5.7787,-5.7379,-5.8082,-5.8981,-6.2135,-6.6905,-6.6091,-6.7306,-7.0849,-7.1397,-7.2422,-7.4004,-7.3085,-7.2614,-7.2525,-7.1518,-6.9568,-6.6367,-6.3042,-5.9739,-5.6937,0.0,0.0,0.0,0.0,0.0,0.0,0.0,0.0,0.0,0.0,0.0,0.0,0.0,0.0,-5.1097,-5.1383,0.0,-5.8323,-5.436,0.0,0.0,0.0,-4.9243,-5.0799,-5.2413,-5.4771,-5.8284,0.0,0.0,-6.2886,-6.4852,-6.6348,-6.6433,-6.5732,-6.5523,-6.6184,-6.7543,-6.8902,-7.0385,-7.057,-7.1033,-7.2207,-7.2361,-7.2732,-7.3813,-7.4832,-7.4956,-7.5261,-7.4454,-7.4784,-7.7375,-7.6186,-7.5959,-7.8967,-8.1883,-8.3401,-7.9781,-8.2926,-8.6148,-8.5505,-8.6551,-8.8185,-5.2241,-4.9278,-4.7207,-4.7196,-4.855,-4.8261,-4.991,-5.2806,-5.0199,-4.9882,-5.0775,-4.9125,-4.7146,-4.5037,-4.484,0.0,0.0,0.0,-5.6879,-6.0259,-5.9985,-5.9253,-5.8521,-5.7963,-5.7657,-5.7628,-5.7401,-5.7287,-5.7287,-5.6775,-5.4282,-5.0,0.0,0.0,-5.3132,-5.6579,-6.0,-6.3709,-6.6881,-6.9044,-7.0123,-7.2239,-7.37,-7.4801,-7.4343,-7.3761,-7.2939,-7.0668,-6.7692,-6.3698,-5.9257,-5.4798,0.0,0.0,0.0,0.0,0.0,0.0,0.0,0.0,0.0,0.0,0.0,-3.7463,-3.9518,0.0,0.0,0.0,-4.5214,-4.6753,-5.1164,-5.0068,0.0,0.0,0.0,0.0,0.0,0.0,0.0,-5.4397,-5.8798,-6.1988,-6.336,-6.5292,-6.5846,-6.4576,-6.5247,-6.5622,-6.443,0.0,-6.755,-6.8655,-6.8593,-6.8779,-7.0107,-6.9983,-6.9891,-7.0477,-7.1095,-7.2228,-7.4571,-7.383,-7.4172,-7.6973,-7.6681,-7.6405,-7.7704,-7.9791,-8.1011,-7.9794,-8.0984,-8.2165,-8.2366,-8.3372,-8.4499,-4.6747,0.0,0.0,0.0,0.0,-4.5085,-4.7301,-5.0178,-4.7513,-4.7156,-4.8249,-4.5766,0.0,0.0,0.0,0.0,0.0,0.0,-5.3971,-5.719,-5.7839,-5.7193,-5.5614,-5.4944,-5.4556,-5.4528,-5.3817,-5.3475,-5.3418,-5.2506,-4.9045,-4.2994,0.0,0.0,0.0,0.0,-5.7136,-6.0934,-6.5706,-6.8654,-6.9531,-7.2037,-7.3751,-7.425,-7.4281,-7.3635,-7.1957,-6.8892,-6.5423,-6.0797,-5.5468,0.0,0.0,0.0,0.0,0.0,0.0,0.0,0.0,0.0,0.0,0.0,0.0,0.0,0.0,0.0,0.0,0.0,0.0,0.0,-4.5264,-4.6232,-4.6099,0.0,0.0,0.0,0.0,0.0,0.0,0.0,0.0,0.0,-6.1695,-6.4164,-6.5341,0.0,0.0,-6.6306,-6.3795,-6.5049,-6.6146,-6.6771,-6.6524,0.0,-6.7543,-6.7451,-6.7296,-6.7512,-6.7945,-6.9526,-7.2868,-7.1865,-7.1917,-7.5765,-7.5644,-7.497,-7.4057,-7.5024,-7.5797,-7.6064,-7.5943,-7.6144,-7.7227,-7.7988,-7.883,0.0,0.0,0.0,0.0,0.0,0.0,0.0,0.0,-4.3607,-4.2184,0.0,-4.0998,0.0,0.0,0.0,0.0,0.0,-5.0813,0.0,0.0,-5.9104,-5.9313,-5.6521,-5.2568,-5.0745,-5.0574,-4.8299,-4.7132,-4.7043,-4.3962,0.0,0.0,0.0,0.0,0.0,0.0,-5.3173,-5.9418,-6.2572,-6.5575,-6.918,-7.057,-7.1546,-7.1788,-7.1818,-7.0825,-6.8357,-6.5727,-6.2356,-5.7721,-5.1499,0.0,0.0,0.0,0.0,0.0,0.0,0.0,0.0,0.0,0.0,0.0,0.0,0.0,0.0,0.0,0.0,0.0,0.0,0.0,0.0,-4.3706,0.0,0.0,0.0,0.0,0.0,0.0,0.0,0.0,0.0,0.0,-5.659,-6.1237,-6.4633,-6.5022,0.0,0.0,0.0,0.0,-6.4856,-6.4301,-6.4177,-6.4177,-6.4239,-6.4764,-6.5381,-6.5999,0.0,0.0,-6.8059,-6.6636,-6.7054,-7.2279,-7.2667,-7.1315,-6.8173,-6.7398,-6.7366,-6.7556,-6.7403,-6.7644,-6.858,-6.9747,-7.0791,0.0,0.0,0.0,0.0,0.0,0.0,0.0,0.0,0.0,-4.0086,-4.0776,-3.8319,0.0,0.0,0.0,0.0,0.0,0.0,0.0,0.0,-5.0525,-5.0801,-4.975,-4.8107,-4.7128,0.0,-4.5569,-4.2753,0.0,0.0,0.0,0.0,0.0,0.0,0.0,0.0,-5.2178,-5.7742,-6.2778,-6.6536,-6.9118,-7.0879,-7.1699,-7.1061,-7.1092,-6.9457,-6.5312,-6.2385,-5.7839,0.0,0.0,0.0,0.0,0.0,0.0,0.0,0.0,0.0,0.0,0.0,0.0,0.0,0.0,0.0,0.0,0.0,0.0,0.0,0.0,0.0,0.0,0.0,-4.4845,0.0,0.0,0.0,0.0,0.0,0.0,0.0,0.0,0.0,-5.233,-5.7332,-6.1089,-6.1613,-6.3656,-6.444,-6.2417,0.0,0.0,0.0,0.0,0.0,0.0,0.0,-6.2154,-6.1468,-6.2561,-6.2868,-6.1224,-6.1223,-6.3157,-6.8382,0.0,0.0,-6.1612,-6.1253,-6.1415,-6.0741,-6.1117,-6.1852,-6.2592,-6.3489,-6.4978,0.0,0.0,0.0,0.0,0.0,0.0,0.0,0.0,0.0,-3.7323,-3.8173,0.0,0.0,0.0,0.0,0.0,0.0,0.0,0.0,0.0,0.0,0.0,-4.367,-4.3671,0.0,0.0,0.0,0.0,0.0,0.0,0.0,0.0,0.0,0.0,0.0,0.0,-5.1196,-5.6614,-6.2,-6.5845,-6.8099,-6.9763,-7.0201,-6.9741,-6.9388,-6.753,-6.3604,0.0,0.0,0.0,0.0,0.0,0.0,0.0,0.0,0.0,0.0,0.0,0.0,0.0,0.0,0.0,0.0,0.0,0.0,0.0,0.0,0.0,0.0,0.0,0.0,0.0,-4.3112,0.0,0.0,0.0,0.0,0.0,0.0,0.0,0.0,0.0,0.0,0.0,-5.7807,-5.9353,-6.2645,-6.4618,-6.4111,-6.4327,-6.4526,0.0,0.0,0.0,0.0,0.0,0.0,0.0,0.0,0.0,0.0,0.0,0.0,0.0,0.0,-5.6921,-5.3838,-5.3812,-5.412,-5.3458,0.0,0.0,0.0,0.0,0.0,0.0,0.0,0.0,0.0,0.0,0.0,0.0,0.0,0.0,0.0,-3.3903,0.0,0.0,-3.109,0.0,0.0,0.0,0.0,0.0,0.0,0.0,0.0,0.0,0.0,0.0,0.0,0.0,0.0,0.0,0.0,0.0,0.0,0.0,0.0,0.0,0.0,-4.9929,-5.5787,-6.0051,-6.3405,-6.6061,-6.7462,-6.7782,-6.7318,-6.6308,-6.5081,-6.3372,0.0,0.0,0.0,0.0,0.0,0.0,0.0,0.0,0.0,0.0,0.0,0.0,0.0,0.0,0.0,0.0,0.0,0.0,0.0,0.0,0.0,0.0,0.0,0.0,0.0,0.0,-4.0357,-4.427,-4.6005,0.0,0.0,0.0,0.0,0.0,0.0,0.0,0.0,0.0,0.0,-6.426,-6.8452,-6.9417,-6.9046,-6.8781,-6.9649,-6.6168,-6.345,-6.4253,-6.1963,-6.0065,0.0,0.0,0.0,0.0,0.0,0.0,0.0,0.0,0.0,0.0,0.0,0.0,0.0,0.0,0.0,0.0,0.0,0.0,0.0,0.0,0.0,0.0,0.0,0.0,0.0,0.0,0.0,0.0,0.0,0.0,0.0,0.0,0.0,0.0,0.0,0.0,0.0,0.0,0.0,0.0,0.0,0.0,0.0,0.0,0.0,0.0,0.0,0.0,0.0,0.0,0.0,0.0,0.0,0.0,-5.1254,-5.4708,-6.139,-6.5221,-6.5351,-6.752,-6.801,-6.6013,-6.5231,-6.3342,0.0,0.0,0.0,0.0,0.0,0.0,0.0,0.0,0.0,0.0,0.0,0.0,0.0,0.0,0.0,0.0,0.0,0.0,0.0,0.0,0.0,0.0,0.0,0.0,0.0,0.0,0.0,0.0,-4.3557,-4.4062,-4.2036,0.0,0.0,0.0,0.0,0.0,0.0,0.0,0.0,0.0,0.0,-6.2224,-6.6812,-6.5766,-6.5541,-6.7314,-6.4951,-6.2802,-6.2077,-6.0973,-5.9292,-5.729,0.0,0.0,0.0,0.0,0.0,0.0,0.0,0.0,0.0,0.0,0.0,0.0,0.0,0.0,0.0,0.0,0.0,0.0,0.0,0.0,0.0,0.0,0.0,0.0,0.0,0.0,0.0,0.0,0.0,0.0,0.0,0.0,0.0,0.0,0.0,0.0,0.0,0.0,0.0,0.0,0.0,0.0,0.0,0.0,0.0,0.0,0.0,0.0,0.0,0.0,0.0,0.0,0.0,-5.2402,-5.4581,-6.2278,-6.5881,-6.4988,-6.6422,-6.6822,-6.5063,-6.3843,-6.1571,0.0,0.0,0.0,0.0,0.0,0.0,0.0,0.0,0.0,0.0,0.0,0.0,0.0,0.0,0.0,0.0,0.0,0.0,0.0,0.0,0.0,0.0,0.0,0.0,0.0,0.0,0.0,0.0,-4.122,-4.2388,-4.1428,0.0,0.0,0.0,0.0,0.0,0.0,0.0,0.0,0.0,0.0,-6.1222,-6.6707,-6.6576,0.0,0.0,-6.5292,-6.2245,-6.1921,-6.0257,-5.7907,-5.529,-5.3624,0.0,0.0,0.0,0.0,0.0,0.0,0.0,0.0,0.0,0.0,0.0,0.0,0.0,0.0,0.0,0.0,0.0,0.0,0.0,0.0,0.0,0.0,0.0,0.0,0.0,0.0,0.0,0.0,0.0,0.0,0.0,0.0,0.0,0.0,0.0,0.0,0.0,0.0,0.0,0.0,0.0,0.0,0.0,0.0,0.0,0.0,0.0,0.0,0.0,0.0,0.0,0.0,-5.3619,-5.5331,-6.2978,-6.6163,-6.4681,-6.4318,-6.4322,-6.4351,-6.2073,-5.959,0.0,0.0,0.0,0.0,0.0,0.0,0.0,0.0,0.0,0.0,0.0,0.0,0.0,0.0,0.0,0.0,0.0,0.0,0.0,0.0,0.0,0.0,0.0,0.0,0.0,0.0,0.0,0.0,0.0,0.0,0.0,0.0,0.0,0.0,0.0,0.0,0.0,0.0,0.0,0.0,0.0,-6.4003,-6.8438,-6.9785,-7.0902,0.0,-6.6152,-6.1257,-6.2795,-5.9364,-5.6094,-5.3638,0.0,0.0,0.0,0.0,0.0,0.0,0.0,0.0,0.0,0.0,0.0,0.0,0.0,0.0,0.0,0.0,0.0,0.0,0.0,0.0,0.0,0.0,0.0,0.0,0.0,0.0,0.0,0.0,0.0,0.0,0.0,0.0,0.0,0.0,0.0,0.0,0.0,0.0,0.0,0.0,0.0,0.0,0.0,0.0,0.0,0.0,0.0,0.0,0.0,0.0,0.0,0.0,0.0,0.0,-5.7463,-6.4395,-6.8114,-6.7667,-6.5965,-6.4521,-6.3639,-6.1789,0.0,0.0,0.0,0.0,0.0,0.0,0.0,0.0,0.0,0.0,0.0,0.0,0.0,0.0,0.0,0.0,0.0,0.0,0.0,0.0,0.0,0.0,0.0,0.0,0.0,0.0,0.0,-3.0367,0.0,0.0,0.0,0.0,0.0,0.0,0.0,0.0,0.0,0.0,0.0,0.0,0.0,0.0,-6.1663,-6.7326,-6.6995,-6.6478,0.0,0.0,-5.9234,-5.8692,-5.6532,-5.4074,0.0,0.0,0.0,0.0,0.0,0.0,0.0,0.0,0.0,0.0,0.0,0.0,0.0,0.0,0.0,0.0,0.0,0.0,0.0,0.0,0.0,0.0,0.0,0.0,0.0,0.0,0.0,0.0,0.0,0.0,0.0,0.0,0.0,0.0,0.0,0.0,0.0,0.0,0.0,0.0,0.0,0.0,0.0,0.0,0.0,0.0,0.0,0.0,0.0,0.0,0.0,0.0,0.0,0.0,-5.5298,-5.8546,-6.4907,-6.8097,-6.837,-6.5464,-6.3505,-6.2601,-6.0686,-5.8241,0.0,0.0,0.0,0.0,0.0,0.0,0.0,0.0,0.0,0.0,0.0,0.0,0.0,0.0,0.0,0.0,0.0,0.0,0.0,0.0,0.0,0.0,0.0,0.0,0.0,0.0,0.0,0.0,0.0,0.0,0.0,0.0,0.0,0.0,0.0,0.0,0.0,0.0,0.0,0.0,0.0,0.0,-6.4636,-6.3397,0.0,0.0,0.0,-5.6198,-5.5301,0.0,0.0,0.0,0.0,0.0,0.0,0.0,0.0,0.0,0.0,0.0,0.0,0.0,0.0,0.0,0.0,0.0,0.0,0.0,0.0,0.0,0.0,0.0,0.0,0.0,0.0,0.0,0.0,0.0,0.0,0.0,0.0,0.0,0.0,0.0,0.0,0.0,0.0,0.0,0.0,0.0,0.0,0.0,0.0,0.0,0.0,0.0,0.0,0.0,0.0,0.0,0.0,0.0,0.0,0.0,0.0,0.0,-5.9117,-6.4081,-6.7413,-6.8175,-6.4429,-6.2097,-6.1652,-5.9446,-5.7173,0.0,0.0,0.0,0.0,0.0,0.0,0.0,0.0,0.0,0.0,0.0,0.0,0.0,0.0,0.0,0.0,0.0,0.0,0.0,0.0,0.0,0.0,0.0,0.0,0.0,0.0,0.0,0.0,0.0,0.0,0.0,0.0,0.0,0.0,0.0,0.0,0.0,0.0,0.0,0.0,0.0,-5.7861,-6.1201,-5.9734,-5.7599,0.0,0.0,-5.2775,-5.2531,-5.1228,0.0,0.0,0.0,0.0,0.0,0.0,0.0,0.0,0.0,0.0,0.0,0.0,0.0,0.0,0.0,0.0,0.0,0.0,0.0,0.0,0.0,0.0,0.0,0.0,0.0,0.0,0.0,0.0,0.0,0.0,0.0,0.0,0.0,0.0,0.0,0.0,0.0,0.0,0.0,0.0,0.0,0.0,0.0,0.0,0.0,0.0,0.0,0.0,0.0,0.0,0.0,0.0,0.0,0.0,0.0,0.0,-6.0287,-6.2928,-6.6367,-7.0263,-6.5093,-6.2015,-6.2245,-6.0405,-5.7586,0.0,0.0,0.0,0.0,0.0,0.0,0.0,0.0,0.0,0.0,0.0,0.0,0.0,0.0,0.0,0.0,0.0,0.0,0.0,0.0,0.0,0.0,0.0,0.0,0.0,0.0,0.0,0.0,0.0,0.0,0.0,0.0,0.0,0.0,0.0,0.0,0.0,0.0,0.0,0.0,0.0,-5.5996,-5.77,-5.6296,0.0,0.0,0.0,0.0,-4.9774,-4.8327,0.0,0.0,0.0,0.0,0.0,0.0,0.0,0.0,0.0,0.0,0.0,0.0,0.0,0.0,0.0,0.0,0.0,0.0,0.0,0.0,0.0,0.0,0.0,0.0,0.0,0.0,0.0,0.0,0.0,0.0,0.0,0.0,0.0,0.0,0.0,0.0,0.0,0.0,0.0,0.0,0.0,0.0,0.0,0.0,0.0,0.0,0.0,0.0,0.0,0.0,0.0,0.0,0.0,0.0,0.0,0.0,-6.0586,-6.3283,-6.6542,-7.0363,-6.6032,-6.3002,-6.1503,-5.9357,-5.6495,0.0,0.0,0.0,0.0,0.0,0.0,0.0,0.0,0.0,0.0,0.0,0.0,0.0,0.0,0.0,0.0,0.0,0.0,0.0,0.0,0.0,0.0,0.0,0.0,0.0,0.0,0.0,0.0,0.0,0.0,0.0,0.0,0.0,0.0,0.0,0.0,0.0,0.0,0.0,0.0,-4.9074,-5.1926,-5.3516,0.0,0.0,0.0,0.0,0.0,0.0,-4.6821,-4.554,0.0,0.0,0.0,0.0,0.0,0.0,0.0,0.0,0.0,0.0,0.0,0.0,0.0,0.0,0.0,0.0,0.0,0.0,0.0,0.0,0.0,0.0,0.0,0.0,0.0,0.0,0.0,0.0,0.0,0.0,0.0,0.0,0.0,0.0,0.0,0.0,0.0,0.0,0.0,0.0,0.0,0.0,0.0,0.0,0.0,0.0,0.0,0.0,0.0,0.0,0.0,0.0,0.0,0.0,0.0,-5.9343,-6.3083,-6.6188,-6.905,-6.6739,-6.3834,-6.0494,-5.7749,-5.4657,-5.1386,0.0,0.0,0.0,0.0,0.0,0.0,0.0,0.0,0.0,0.0,0.0,0.0,0.0,0.0,0.0,0.0,0.0,0.0,0.0,0.0,0.0,0.0,0.0,0.0,0.0,0.0,0.0,0.0,0.0,0.0,0.0,0.0,0.0,0.0,0.0,0.0,0.0,0.0,0.0,-4.5334,-4.74,0.0,0.0,0.0,0.0,0.0,0.0,0.0,0.0,-4.4351,0.0,0.0,0.0,0.0,0.0,0.0,0.0,0.0,0.0,0.0,0.0,0.0,0.0,0.0,0.0,0.0,0.0,0.0,0.0,0.0,0.0,0.0,0.0,0.0,0.0,0.0,0.0,0.0,0.0,0.0,0.0,0.0,0.0,0.0,0.0,0.0,0.0,0.0,0.0,0.0,0.0,0.0,0.0,0.0,0.0,0.0,0.0,0.0,0.0,0.0,0.0,0.0,0.0,0.0,0.0,0.0,-5.9145,-6.2928,-6.4527,-6.5118,-6.3834,-6.0524,-5.772,-5.364,-4.8303,0.0,0.0,0.0,0.0,0.0,0.0,0.0,0.0,0.0,0.0,0.0,0.0,0.0,0.0,0.0,0.0,0.0,0.0,0.0,0.0,0.0,0.0,0.0,0.0,0.0,0.0,0.0,0.0,0.0,0.0,0.0,0.0,0.0,0.0,0.0,0.0,0.0,0.0,-3.6393,-4.0774,0.0,0.0,0.0,0.0,0.0,0.0,0.0,0.0,-4.1781,0.0,0.0,0.0,0.0,0.0,0.0,0.0,0.0,0.0,0.0,0.0,0.0,0.0,0.0,0.0,0.0,0.0,0.0,0.0,0.0,0.0,0.0,0.0,0.0,0.0,0.0,0.0,0.0,0.0,0.0,0.0,0.0,0.0,0.0,0.0,0.0,0.0,0.0,0.0,0.0,0.0,0.0,0.0,0.0,0.0,0.0,0.0,0.0,0.0,0.0,0.0,0.0,0.0,0.0,0.0,0.0,0.0,0.0,-6.1248,-6.3241,-6.3964,-6.2737,-5.9672,-5.5321,-5.1034,0.0,0.0,0.0,0.0,0.0,0.0,0.0,0.0,0.0,0.0,0.0,0.0,0.0,0.0,0.0,0.0,0.0,0.0,0.0,0.0,0.0,0.0,0.0,0.0,0.0,0.0,0.0,0.0,0.0,0.0,0.0,0.0,0.0,0.0,0.0,0.0,0.0,0.0,0.0,0.0,0.0,0.0,0.0,0.0,0.0,0.0,0.0,0.0,0.0,0.0,0.0,0.0,0.0,0.0,0.0,0.0,0.0,0.0,0.0,0.0,0.0,0.0,0.0,0.0,0.0,0.0,0.0,0.0,0.0,0.0,0.0,0.0,0.0,0.0,0.0,0.0,0.0,0.0,0.0,0.0,0.0,0.0,0.0,0.0,0.0,0.0,0.0,0.0,0.0,0.0,0.0,0.0,0.0,0.0,0.0,0.0,0.0,0.0,0.0,0.0,0.0,0.0,0.0,0.0,0.0,0.0,0.0,0.0,-5.9202,-6.1277,-6.2446,-6.1359,-5.8121,-5.2692,-4.7767,0.0,0.0,0.0,0.0,0.0,0.0,0.0,0.0,0.0,0.0,0.0,0.0,0.0,0.0,0.0,0.0,0.0,0.0,0.0,0.0,0.0,0.0,0.0,0.0,0.0,0.0,0.0,0.0,0.0,0.0,0.0,0.0,0.0,0.0,0.0,0.0,0.0,0.0,0.0,0.0,0.0,0.0,0.0,0.0,0.0,0.0,0.0,0.0,-3.9996,0.0,0.0,0.0,0.0,0.0,0.0,0.0,0.0,0.0,0.0,0.0,0.0,0.0,0.0,0.0,0.0,0.0,0.0,0.0,0.0,0.0,0.0,0.0,0.0,0.0,0.0,0.0,0.0,0.0,0.0,0.0,0.0,0.0,0.0,0.0,0.0,0.0,0.0,0.0,0.0,0.0,0.0,0.0,0.0,0.0,0.0,0.0,0.0,0.0,0.0,0.0,0.0,0.0,0.0,0.0,0.0,0.0,0.0,0.0,-5.5216,-5.6453,-5.9658,-5.9917,-5.6929,-5.0595,-4.4736,0.0,0.0,0.0,0.0,0.0,0.0,0.0,0.0,0.0,0.0,0.0,0.0,0.0,0.0,0.0,0.0,0.0,0.0,0.0,0.0,0.0,0.0,0.0,0.0,0.0,0.0,0.0,0.0,0.0,0.0,0.0,0.0,0.0,0.0,0.0,0.0,0.0,0.0,0.0,0.0,0.0,0.0,0.0,0.0,0.0,0.0,0.0,0.0,0.0,0.0,0.0,0.0,0.0,0.0,0.0,0.0,0.0,0.0,0.0,0.0,0.0,0.0,0.0,0.0,0.0,0.0,0.0,0.0,0.0,0.0,0.0,0.0,0.0,0.0,0.0,0.0,0.0,0.0,0.0,0.0,0.0,0.0,0.0,0.0,0.0,0.0,0.0,0.0,0.0,0.0,0.0,0.0,0.0,0.0,0.0,0.0,0.0,0.0,0.0,0.0,0.0,0.0,0.0,0.0,0.0,0.0,0.0,0.0,-5.0234,-5.37,-5.5517,-5.4715,-5.0955,-4.5972,-4.1627,0.0,0.0,0.0,0.0,0.0,0.0,0.0,0.0,0.0,0.0,0.0,0.0,0.0,0.0,0.0,0.0,0.0,0.0,0.0,0.0,0.0,0.0,0.0,0.0,0.0,0.0,0.0,0.0,0.0,0.0,0.0,0.0,0.0,0.0,0.0,0.0,0.0,0.0,0.0,0.0,0.0,0.0,0.0,0.0,0.0,0.0,0.0,0.0,0.0,0.0,0.0,0.0,0.0,0.0,0.0,0.0,0.0,0.0,0.0,0.0,0.0,0.0,0.0,0.0,0.0,0.0,0.0,0.0,0.0,0.0,0.0,0.0,0.0,0.0,0.0,0.0,0.0,0.0,0.0,0.0,0.0,0.0,0.0,0.0,0.0,0.0,0.0,0.0,0.0,0.0,0.0,0.0,0.0,0.0,0.0,0.0,0.0,0.0,0.0,0.0,0.0,0.0,0.0,0.0,0.0,0.0,0.0,0.0,0.0,-5.0193,-5.0198,-4.8401,-4.4731,-4.1529,-3.8327,0.0,0.0,0.0,0.0,0.0,0.0,0.0,0.0,0.0,0.0,0.0,0.0,0.0,0.0,0.0,0.0,0.0,0.0,0.0,0.0,0.0,0.0,0.0,0.0,0.0,0.0,0.0,0.0,0.0,0.0,0.0,0.0,0.0,0.0,0.0,0.0,0.0,0.0,0.0,0.0,0.0,0.0,0.0,0.0,0.0,0.0,0.0,0.0,0.0,0.0,0.0,0.0,0.0,0.0,0.0,0.0,0.0,0.0,0.0,0.0,0.0,0.0,0.0,0.0,0.0,0.0,0.0,0.0,0.0,0.0,0.0,0.0,0.0,0.0,0.0,0.0,0.0,0.0,0.0,0.0,0.0,0.0,0.0,0.0,0.0,0.0,0.0,0.0,0.0,0.0,0.0,0.0,0.0,0.0,0.0,0.0,0.0,0.0,0.0,0.0,0.0,0.0,0.0,0.0,0.0,0.0,0.0,0.0,0.0,-4.5774,-4.3244,-4.133,-3.9767,-3.7636,-3.455,0.0,0.0,0.0,0.0,0.0,0.0,0.0,0.0,0.0,0.0,0.0,0.0,0.0,0.0,0.0,0.0,0.0,0.0,0.0,0.0,0.0,0.0,0.0,0.0,0.0,0.0,0.0,0.0,0.0,0.0,0.0,0.0,0.0,0.0,0.0,0.0,0.0,0.0,0.0,0.0,0.0,0.0,0.0,0.0,0.0,0.0,0.0,0.0,0.0,0.0,0.0,0.0,0.0,0.0,0.0,0.0,0.0,0.0,0.0,0.0,0.0,0.0,0.0,0.0,0.0,0.0,0.0,0.0,0.0,0.0,0.0,0.0,0.0,0.0,0.0,0.0,0.0,0.0,0.0,0.0,0.0,0.0,0.0,0.0,0.0,0.0,0.0,0.0,0.0,0.0,0.0,0.0,0.0,0.0,0.0,0.0,0.0,0.0,0.0,0.0,0.0,0.0,0.0,0.0,0.0,0.0,0.0,0.0,0.0,-3.9919,-3.9064,-3.8472,-3.7944,-3.5367,-3.2722,-3.0225,0.0,0.0,0.0,0.0,0.0,0.0,0.0,0.0,0.0,0.0,0.0,0.0,0.0,0.0,0.0,0.0,0.0,0.0,0.0,0.0,0.0,0.0,0.0,0.0,0.0,0.0,0.0,0.0,0.0,0.0,0.0,0.0,0.0,0.0,0.0,0.0,0.0,0.0,0.0,0.0,0.0,0.0,0.0,0.0,0.0,0.0,0.0,0.0,0.0,0.0,0.0,0.0,0.0,0.0,0.0,0.0,0.0,0.0,0.0,0.0,0.0,0.0,0.0,0.0,0.0,0.0,0.0,0.0,0.0,0.0,0.0,0.0,0.0,0.0,0.0,0.0,0.0,0.0,0.0,0.0,0.0,0.0,0.0,0.0,0.0,0.0,0.0,0.0,0.0,0.0,0.0,0.0,0.0,0.0,0.0,0.0,0.0,0.0,0.0,0.0,0.0,0.0,0.0,0.0,0.0,0.0,0.0,0.0,-3.556,-3.5403,-3.552,-3.5501,-3.2904,-3.0756,0.0,0.0,0.0,0.0,0.0,0.0,0.0,0.0,0.0,0.0,0.0,0.0,0.0,0.0,0.0,0.0,0.0,0.0,0.0,0.0,0.0,0.0,0.0,0.0,0.0,0.0,0.0,0.0,0.0,0.0,0.0,0.0,0.0,0.0,0.0,0.0,0.0,0.0,0.0,0.0,0.0,0.0,0.0,0.0,0.0,0.0,0.0,0.0,0.0,0.0,0.0,0.0,0.0,0.0,0.0,0.0,0.0,0.0,0.0,0.0,0.0,0.0,0.0,0.0,0.0,0.0,0.0,0.0,0.0,0.0,0.0,0.0,0.0,0.0,0.0,0.0,0.0,0.0,0.0,0.0,0.0,0.0,0.0,0.0,0.0,0.0,0.0,0.0,0.0,0.0,0.0,0.0,0.0,0.0,0.0,0.0,0.0,0.0,0.0,0.0,0.0,0.0,0.0,0.0,0.0,0.0,0.0,0.0,-3.2575,-3.3199,-3.2296,-3.1848,-3.1788,-3.032,-2.8848,0.0,0.0,0.0,0.0,0.0,0.0,0.0,0.0,0.0,0.0,0.0,0.0,0.0,0.0,0.0,0.0,0.0,0.0,0.0,0.0,0.0,0.0,0.0,0.0,0.0,0.0,0.0,0.0,0.0,0.0,0.0,0.0,0.0,0.0,0.0,0.0,0.0,0.0,0.0,0.0,0.0,0.0,0.0,0.0,0.0,0.0,0.0,0.0,0.0,0.0,0.0,0.0,0.0,0.0,0.0,0.0,0.0,0.0,0.0,0.0,0.0,0.0,0.0,0.0,0.0,0.0,0.0,0.0,0.0,0.0,0.0,0.0,0.0,0.0,0.0,0.0,0.0,0.0,0.0,0.0,0.0,0.0,0.0,0.0,0.0,0.0,0.0,0.0,0.0,0.0,0.0,0.0,0.0,0.0,0.0,0.0,0.0,0.0,0.0,0.0,0.0,0.0,0.0,0.0,0.0,0.0,0.0,0.0,0.0,-3.3258,0.0,-3.2779,-3.2783,-3.0789,-2.9392,0.0,0.0,0.0,0.0,0.0,0.0,0.0,0.0,0.0,0.0,0.0,0.0,0.0,0.0,0.0,0.0,0.0,0.0,0.0,0.0,0.0,0.0,0.0,0.0,0.0,0.0,0.0,0.0,0.0,0.0,0.0,0.0,0.0,0.0,0.0,0.0,0.0,0.0,0.0,0.0,0.0,0.0,0.0,0.0,0.0,0.0,0.0,0.0,0.0,0.0,0.0,0.0,0.0,0.0,0.0,0.0,0.0,0.0,0.0,0.0,0.0,0.0,0.0,0.0,0.0,0.0,0.0,0.0,0.0,0.0,0.0,0.0,0.0,0.0,0.0,0.0,0.0,0.0,0.0,0.0,0.0,0.0,0.0,0.0,0.0,0.0,0.0,0.0,0.0,0.0,0.0,0.0,0.0,0.0,0.0,0.0,0.0,0.0,0.0,0.0,0.0,0.0,0.0,0.0,0.0,0.0,0.0,0.0,0.0,-3.2458,-3.2455,-3.2499,-3.242,-3.0794,-2.9486,0.0,0.0,0.0,0.0,0.0,0.0,0.0,0.0,0.0,0.0,0.0,0.0,0.0,0.0,0.0,0.0,0.0,0.0,0.0,0.0,0.0,0.0,0.0,0.0,0.0,0.0,0.0,0.0,0.0,0.0,0.0,0.0,0.0,0.0,0.0,0.0,0.0,0.0,0.0,0.0,0.0,0.0,0.0,0.0,0.0,0.0,0.0,0.0,0.0,0.0,0.0,0.0,0.0,0.0,0.0,0.0,0.0,0.0,0.0,0.0,0.0,0.0,0.0,0.0,0.0,0.0,0.0,0.0,0.0,0.0,0.0,0.0,0.0,0.0,0.0,0.0,0.0,0.0,0.0,0.0,0.0,0.0,0.0,0.0,0.0,0.0,0.0,0.0,0.0,0.0,0.0,0.0,0.0,0.0,0.0,0.0,0.0,0.0,0.0,0.0,0.0,0.0,0.0,0.0,0.0,0.0,0.0,0.0,0.0,-3.1051,-3.0904,-3.0701,-3.0639,-3.0131,-2.9374,0.0,0.0,0.0,0.0,0.0,0.0,0.0,0.0,0.0,0.0,0.0,0.0,0.0,0.0,0.0,0.0,0.0,0.0,0.0,0.0,0.0,0.0,0.0,0.0,0.0,0.0,0.0,0.0,0.0,0.0,0.0,0.0,0.0,0.0,0.0,0.0,0.0,0.0,0.0,0.0,0.0,0.0,0.0,0.0,0.0,0.0,0.0,0.0,0.0,0.0,0.0,0.0,0.0,0.0,0.0,0.0,0.0,0.0,0.0,0.0,0.0,0.0,0.0,0.0,0.0,0.0,0.0,0.0,0.0,0.0,0.0,0.0,0.0,0.0,0.0,0.0,0.0,0.0,0.0,0.0,0.0,0.0,0.0,0.0,0.0,0.0,0.0,0.0,0.0,0.0,0.0,0.0,0.0,0.0,0.0,0.0,0.0,0.0,0.0,0.0,0.0,0.0,0.0,0.0,0.0,0.0,0.0,0.0,0.0,0.0,-3.1835,-3.1783,-3.1808,-3.0738,-3.0067,-2.9692,0.0,0.0,0.0,0.0,0.0,0.0,0.0,0.0,0.0,0.0,0.0,0.0,0.0,0.0,0.0,0.0,0.0,0.0,0.0,0.0,0.0,0.0,0.0,0.0,0.0,0.0,0.0,0.0,0.0,0.0,0.0,0.0,0.0,0.0,0.0,0.0,0.0,0.0,0.0,0.0,0.0,0.0,0.0,0.0,0.0,0.0,0.0,0.0,0.0,0.0,0.0,0.0,0.0,0.0,0.0,0.0,0.0,0.0,0.0,0.0,0.0,0.0,0.0,0.0,0.0,0.0,0.0,0.0,0.0,0.0,0.0,0.0,0.0,0.0,0.0,0.0,0.0,0.0,0.0,0.0,0.0,0.0,0.0,0.0,0.0,0.0,0.0,0.0,0.0,0.0,0.0,0.0,0.0,0.0,0.0,0.0,0.0,0.0,0.0,0.0,0.0,0.0,0.0,0.0,0.0,0.0,0.0,0.0,0.0,0.0,-3.1718,-3.1868,-3.0746,-2.9983,0.0,0.0,0.0,0.0,0.0,0.0,0.0,0.0,0.0,0.0,0.0,0.0,0.0,0.0,0.0,0.0,0.0,0.0,0.0,0.0,0.0,0.0,0.0,0.0,0.0,0.0,0.0,0.0,0.0,0.0,0.0,0.0,0.0,0.0,0.0,0.0,0.0,0.0,0.0,0.0,0.0,0.0,0.0,0.0,0.0,0.0,0.0,0.0,0.0,0.0,0.0,0.0,0.0,0.0,0.0,0.0,0.0,0.0,0.0,0.0,0.0,0.0,0.0,0.0,0.0,0.0,0.0,0.0,0.0,0.0,0.0,0.0,0.0,0.0,0.0,0.0,0.0,0.0,0.0,0.0,0.0,0.0,0.0,0.0,0.0,0.0,0.0,0.0,0.0,0.0,0.0,0.0,0.0,0.0,0.0,0.0,0.0,0.0,0.0,0.0,0.0,0.0,0.0,0.0,0.0,0.0,0.0,0.0,0.0,0.0,0.0,-3.0934,-3.0934,-3.0255,0.0,-2.8636,0.0,0.0,0.0,0.0,0.0,0.0,0.0,0.0,0.0,0.0,0.0,0.0,0.0,0.0,0.0,0.0,0.0,0.0,0.0,0.0,0.0,0.0,0.0,0.0,0.0,0.0,0.0,0.0,0.0,0.0,0.0,0.0,0.0,0.0,0.0,0.0,0.0,0.0,0.0,0.0,0.0,0.0,0.0,0.0,0.0,0.0,0.0,0.0,0.0,0.0,0.0,0.0,0.0,0.0,0.0,0.0,0.0,0.0,0.0,0.0,0.0,0.0,0.0,0.0,0.0,0.0,0.0,0.0,0.0,0.0,0.0,0.0,0.0,0.0,0.0,0.0,0.0,0.0,0.0,0.0,0.0,0.0,0.0,0.0,0.0,0.0,0.0,0.0,0.0,0.0,0.0,0.0,0.0,0.0,0.0,0.0,0.0,0.0,0.0,0.0,0.0,0.0,0.0,0.0,0.0,0.0,0.0,0.0,0.0,0.0,0.0,0.0,-3.023,-2.9583,-2.9065,0.0,0.0,0.0,0.0,0.0,0.0,0.0,0.0,0.0,0.0,0.0,0.0,0.0,0.0,0.0,0.0,0.0,0.0,0.0,0.0,0.0,0.0,0.0,0.0,0.0,0.0,0.0,0.0,0.0,0.0,0.0,0.0,0.0,0.0,0.0,0.0,0.0,0.0,0.0,0.0,0.0,0.0,0.0,0.0,0.0,0.0,0.0,0.0,0.0,0.0,0.0,0.0,0.0,0.0,0.0,0.0,0.0,0.0,0.0,0.0,0.0,0.0,0.0,0.0,0.0,0.0,0.0,0.0,0.0,0.0,0.0,0.0,0.0,0.0,0.0,0.0,0.0,0.0,0.0,0.0,0.0,0.0,0.0,0.0,0.0,0.0,0.0,0.0,0.0,0.0,0.0,0.0,0.0,0.0,0.0,0.0,0.0,0.0,0.0,0.0,0.0,0.0,0.0,0.0,0.0,0.0,0.0,0.0,0.0,0.0,-3.1828,-3.1565,-3.047,-2.9673,-2.9458,0.0,0.0,0.0,0.0,0.0,0.0,0.0,0.0,0.0,0.0,0.0,0.0,0.0,0.0,0.0,0.0,0.0,0.0,0.0,0.0,0.0,0.0,0.0,0.0,0.0,0.0,0.0,0.0,0.0,0.0,0.0,0.0,0.0,0.0,0.0,0.0,0.0,0.0,0.0,0.0,0.0,0.0,0.0,0.0,0.0,0.0,0.0,0.0,0.0,0.0,0.0,0.0,0.0,0.0,0.0,0.0,0.0,0.0,0.0,0.0,0.0,0.0,0.0,0.0,0.0,0.0,0.0,0.0,0.0,0.0,0.0,0.0,0.0,0.0,0.0,0.0,0.0,0.0,0.0,0.0,0.0,0.0,0.0,0.0,0.0,0.0,0.0,0.0,0.0,0.0,0.0,0.0,0.0,0.0,0.0,0.0,0.0,0.0,0.0,0.0,0.0,0.0,0.0,0.0,0.0,0.0,0.0,0.0,0.0,0.0,0.0,0.0,0.0,0.0,-2.9795,0.0,0.0,0.0,0.0,0.0,0.0,0.0,0.0,0.0,0.0,0.0,0.0,0.0,0.0,0.0,0.0,0.0,0.0,0.0,0.0,0.0,0.0,0.0,0.0,0.0,0.0,0.0,0.0,0.0,0.0,0.0,0.0,0.0,0.0,0.0,0.0,0.0,0.0,0.0,0.0,0.0,0.0,0.0,0.0,0.0,0.0,0.0,0.0,0.0,0.0,0.0,0.0,0.0,0.0,0.0,0.0,0.0,0.0,0.0,0.0,0.0,0.0,0.0,0.0,0.0,0.0,0.0,0.0,0.0,0.0,0.0,0.0,0.0,0.0,0.0,0.0,0.0,0.0,0.0,0.0,0.0,0.0,0.0,0.0,0.0,0.0,0.0,0.0,0.0,0.0,0.0,0.0,0.0,0.0,0.0,0.0,0.0,0.0,0.0,0.0,0.0,0.0,0.0,0.0,0.0,0.0,0.0,0.0,0.0,0.0,0.0,0.0,0.0,0.0,0.0,0.0,0.0,0.0,0.0,0.0,0.0,0.0,0.0,0.0,0.0,0.0,0.0,0.0,0.0,0.0,0.0,0.0,0.0,0.0,0.0,0.0,0.0,0.0,0.0,0.0,0.0,0.0,0.0,0.0,0.0,0.0,0.0,0.0,0.0,0.0,0.0,0.0,0.0,0.0,0.0,0.0,0.0,0.0,0.0,0.0,0.0,0.0,0.0,0.0,0.0,0.0,0.0,0.0,0.0,0.0,0.0,0.0,0.0,0.0,0.0,0.0,0.0,0.0,0.0,0.0,0.0,0.0,0.0,0.0,0.0,0.0,0.0,0.0,0.0,0.0,0.0,0.0,0.0,0.0,0.0,0.0,0.0,0.0,0.0,0.0,0.0,0.0,0.0,0.0,0.0,0.0,0.0,0.0,0.0,0.0,0.0,0.0,0.0,0.0,0.0,0.0,0.0,0.0,0.0,0.0,0.0,0.0,0.0,0.0,0.0,0.0,0.0,0.0,0.0,0.0,0.0,0.0,0.0,0.0,0.0,0.0,0.0,0.0,0.0,0.0,0.0,0.0,0.0,0.0,0.0,0.0,0.0,0.0,0.0,0.0,0.0,0.0,0.0,0.0,0.0,0.0,0.0,0.0,0.0,0.0,0.0,0.0,0.0,0.0,0.0,0.0,0.0,0.0,0.0,0.0,0.0,0.0,0.0,0.0,0.0,0.0,0.0,0.0,0.0,0.0,0.0,0.0,0.0,0.0,0.0,0.0,0.0,0.0,0.0,0.0,0.0,0.0,0.0,0.0,0.0,0.0,0.0,0.0,0.0,0.0,0.0,0.0,0.0,0.0,0.0,0.0,0.0,0.0,0.0,0.0,0.0,0.0,0.0,0.0,0.0,0.0,0.0,0.0,0.0,0.0,0.0,0.0,0.0,0.0,0.0,0.0,0.0,0.0,0.0,0.0,0.0,0.0,0.0,0.0,0.0,0.0,0.0,0.0,0.0,0.0,0.0,0.0,0.0,0.0,0.0,0.0,0.0,0.0,0.0,0.0,0.0,0.0,0.0,0.0,0.0,0.0,0.0,0.0,0.0,0.0,0.0,0.0,0.0,0.0,0.0,0.0,0.0,0.0,0.0,0.0,0.0,0.0,0.0,0.0,0.0,0.0,0.0,0.0,0.0,0.0,0.0,0.0,0.0,0.0,0.0,0.0,0.0,0.0,0.0,0.0,0.0,0.0,0.0,0.0,0.0,0.0,0.0,0.0,0.0,0.0,0.0,0.0,0.0,0.0,0.0,0.0,0.0,0.0,0.0,0.0,0.0,0.0,0.0,0.0,0.0,0.0,0.0,0.0,0.0,0.0,0.0,0.0,0.0,0.0,0.0,0.0,0.0,0.0,0.0,0.0,0.0,0.0,0.0,0.0,0.0,0.0,0.0,0.0,0.0,0.0,0.0,0.0,0.0,0.0,0.0,0.0,0.0,0.0,0.0,0.0,0.0,0.0,0.0,0.0,0.0,0.0,0.0,0.0,0.0,0.0,0.0,0.0,0.0,0.0,0.0,0.0,0.0,0.0,0.0,0.0,0.0,0.0,0.0,0.0,0.0,0.0,0.0,0.0,0.0,0.0,0.0,0.0,0.0,0.0,0.0,0.0,0.0,0.0,0.0,0.0,0.0,0.0,0.0,0.0,0.0,0.0,0.0,0.0,0.0,0.0,0.0,0.0,0.0,0.0,0.0,0.0,0.0,0.0,0.0,0.0,0.0,0.0,0.0,0.0,0.0,0.0,0.0,0.0,0.0,0.0,0.0,0.0,0.0,0.0,0.0,0.0,0.0,0.0,0.0,0.0,0.0,0.0,0.0,0.0,0.0,0.0,0.0,0.0,0.0,0.0,0.0,0.0,0.0,0.0,0.0,0.0,0.0,0.0,0.0,0.0,0.0,0.0,0.0,0.0,0.0,0.0,0.0,0.0,0.0,0.0,0.0,0.0,0.0,0.0,0.0,0.0,0.0,0.0,0.0,0.0,0.0,0.0,0.0,0.0,0.0,0.0,0.0,0.0,0.0,0.0,0.0,0.0,0.0,0.0,0.0,0.0,0.0,0.0,0.0,0.0,0.0,0.0,0.0,0.0,0.0,0.0,0.0,0.0,0.0,0.0,0.0,0.0,0.0,0.0,0.0,0.0,0.0,0.0,0.0,0.0,0.0,0.0,0.0,0.0,0.0,0.0,0.0,0.0,0.0,0.0,0.0,0.0,0.0,0.0,0.0,0.0,0.0,0.0,0.0,0.0,0.0,0.0,0.0,0.0,0.0,0.0,0.0,0.0,0.0,0.0,0.0,0.0,0.0,0.0,0.0,0.0,0.0,0.0,0.0,0.0,0.0,0.0,0.0,0.0,0.0,0.0,0.0,0.0,0.0,0.0,0.0,0.0,0.0,0.0,0.0,0.0,0.0,0.0,0.0,0.0,0.0,0.0,0.0,0.0,0.0,0.0,0.0,0.0,0.0,0.0,0.0,0.0,0.0,0.0,0.0,0.0,0.0,0.0,0.0,0.0,0.0,0.0,0.0,0.0,0.0,0.0,0.0,0.0,0.0,0.0,0.0,0.0,0.0,0.0,0.0,0.0,0.0,0.0,0.0,0.0,0.0,0.0,0.0,0.0,0.0,0.0,0.0,0.0,0.0,0.0,0.0,0.0,0.0,0.0,0.0,0.0,0.0,0.0,0.0,0.0,0.0,0.0,0.0,0.0,0.0,0.0,0.0,0.0,0.0,0.0,0.0,0.0,0.0,0.0,0.0,0.0,0.0,0.0,0.0,0.0,0.0,0.0,0.0,0.0,0.0,0.0,0.0,0.0,0.0,0.0,0.0,0.0,0.0,0.0,0.0,0.0,0.0,0.0,0.0,0.0,0.0,0.0,0.0,0.0,0.0,0.0,0.0,0.0,0.0,0.0,0.0,0.0,0.0,0.0,0.0,0.0,0.0,0.0,0.0,0.0,0.0,0.0,0.0,0.0,0.0,0.0,0.0,0.0,0.0,0.0,0.0,0.0,0.0,0.0,0.0,0.0,0.0,0.0,0.0,0.0,0.0,0.0,0.0,0.0,0.0,0.0,0.0,0.0,0.0,0.0,0.0,0.0,0.0,0.0,0.0,0.0,0.0,0.0,0.0,0.0,0.0,0.0,0.0,0.0,0.0,0.0,0.0,0.0,0.0,0.0,0.0,0.0,0.0,0.0,0.0,0.0,0.0,0.0,0.0,0.0,0.0,0.0,0.0,0.0,0.0,0.0,0.0,0.0,0.0,0.0,0.0,0.0,0.0,0.0,0.0,0.0,0.0,0.0,0.0,0.0,0.0,0.0,0.0,0.0,0.0,0.0,0.0,0.0,0.0,0.0,0.0,0.0,0.0,0.0,0.0,0.0,0.0,0.0,0.0,0.0,0.0,0.0,0.0,0.0,0.0,0.0,0.0,0.0,0.0,0.0,0.0,0.0,0.0,0.0,0.0,0.0,0.0,0.0,0.0,0.0,0.0,0.0,0.0,0.0,0.0,0.0,0.0,0.0,0.0,0.0,0.0,0.0,0.0,0.0,0.0,0.0,0.0,0.0,0.0,0.0,0.0,0.0,0.0,0.0,0.0,0.0,0.0,0.0,0.0,0.0,0.0,0.0,0.0,0.0,0.0,0.0,0.0,0.0,0.0,0.0,0.0,0.0,0.0,0.0,0.0,0.0,0.0,0.0,0.0,0.0,0.0,0.0,0.0,0.0,0.0,0.0,0.0,0.0,0.0,0.0,0.0,0.0,0.0,0.0,0.0,0.0,0.0,0.0,0.0,0.0,0.0,0.0,0.0,0.0,0.0,0.0,0.0,0.0]}]]]